GFSSE_prec_cthk_000.txt.gz
RH
33 30 28 31 31 31 32 31 30 24 23 20 15 11 14 23 25 23 21 23 21 22 20 19 23 25 30 30 30 30 26 21 19 19 18 13 14 18 18 14 15 19 15
33 32 31 33 32 32 32 31 28 25 21 18 14 13 17 20 22 19 21 27 24 22 20 21 25 31 30 29 29 24 24 21 20 18 15 12 12 16 20 15 17 21 17
34 33 32 35 33 36 34 30 26 23 20 16 13 21 19 22 21 23 21 24 22 22 18 20 22 21 26 27 26 27 21 21 20 17 15 16 19 16 18 17 19 23 24
35 33 37 38 36 41 34 24 21 20 18 16 12 22 29 30 27 26 21 22 20 20 19 17 18 20 21 22 22 29 23 22 18 17 18 20 20 18 14 14 17 23 26
37 36 37 40 37 36 36 28 22 18 16 14 12 21 30 30 30 28 23 21 19 18 17 17 15 18 18 21 21 25 23 23 23 19 23 23 24 23 18 21 21 21 24
39 37 37 39 38 38 38 32 23 19 18 13 12 20 28 30 30 29 21 20 19 18 17 17 16 15 16 17 18 21 24 23 24 24 22 23 23 26 21 19 25 19 24
42 40 39 39 41 40 36 35 32 27 21 18 14 20 26 28 29 30 22 20 19 19 15 16 18 18 16 15 15 16 22 24 23 25 23 23 24 23 20 23 23 25 21
42 41 42 40 42 41 42 41 38 36 33 26 18 17 24 27 28 28 26 19 20 19 17 19 20 20 20 20 20 18 17 22 23 24 25 23 22 18 19 25 22 25 25
42 41 41 42 42 43 45 44 42 40 38 35 30 23 21 23 24 22 21 20 20 20 20 17 21 21 23 22 23 21 19 20 20 22 24 23 23 18 19 24 25 24 25
42 41 41 42 44 45 46 43 43 42 41 37 32 27 25 24 23 23 20 21 20 21 21 19 19 20 22 25 21 19 17 16 18 22 22 23 18 16 18 18 20 24 24
42 41 38 39 42 43 45 46 41 41 38 36 33 30 28 30 29 25 25 25 24 24 25 25 26 26 27 27 26 25 25 24 26 23 21 16 14 15 16 16 17 18 23
45 40 37 38 39 41 40 42 44 43 41 41 36 35 33 33 32 28 28 28 28 29 30 30 30 30 30 32 33 31 30 32 31 29 25 22 19 15 14 15 15 15 16
47 42 37 37 37 38 37 40 40 36 35 33 32 33 33 31 31 31 32 33 33 33 32 33 31 33 33 31 31 30 30 30 29 29 25 23 24 22 19 14 14 16 16
47 44 41 37 36 35 35 34 33 30 28 30 29 29 29 30 30 32 33 34 34 35 36 35 35 34 33 33 34 33 32 32 30 29 25 22 22 23 22 21 19 16 16
46 43 42 40 37 33 32 32 30 30 29 28 28 29 29 30 31 33 36 35 37 38 37 37 38 39 39 40 39 39 38 38 38 36 34 31 29 27 26 24 23 21 19
41 39 38 38 35 32 33 34 30 30 33 32 33 34 34 34 34 34 35 36 37 39 38 39 40 39 39 41 40 42 42 43 43 43 44 42 40 39 38 35 32 32 29
36 35 35 35 34 33 35 35 30 33 34 34 35 37 39 39 39 40 41 42 45 45 44 47 48 48 48 48 47 46 46 46 45 45 45 44 42 39 39 39 38 37 37
33 33 34 34 32 32 36 33 33 35 34 35 36 39 40 41 41 42 43 46 46 47 48 48 47 45 43 43 42 41 42 40 38 38 38 38 39 38 37 38 41 43 42
33 33 32 32 30 28 34 36 36 36 35 38 39 41 41 41 42 43 43 42 40 38 37 35 36 37 36 39 39 38 36 35 34 33 34 35 36 36 36 37 38 41 44
32 30 29 27 23 28 35 38 36 38 40 41 41 41 42 43 43 40 35 33 32 32 33 35 38 38 37 39 36 35 32 32 33 37 38 39 40 41 41 40 42 43 42
29 30 25 24 29 34 37 35 36 38 39 38 39 40 40 37 35 34 34 34 35 36 36 35 34 31 30 30 29 30 28 30 33 34 41 37 34 40 43 44 45 47 53
29 26 26 30 33 35 34 35 37 36 35 35 34 33 34 35 36 36 37 38 36 32 30 29 29 30 31 31 31 29 29 29 31 30 27 30 33 32 39 42 53 54 57
27 29 34 35 35 33 33 35 35 33 31 32 34 37 38 40 40 38 33 29 28 28 28 27 26 26 26 25 25 28 30 30 29 29 28 30 34 33 34 37 38 39 42
30 33 35 36 35 33 33 32 31 33 36 39 41 42 39 35 32 30 29 29 28 26 23 20 19 18 21 21 21 21 22 28 30 29 31 29 31 32 29 31 33 33 36
34 35 36 36 34 34 35 36 38 40 42 42 41 37 35 33 32 30 27 22 19 18 18 18 16 16 20 21 21 22 27 29 28 28 23 26 25 28 27 27 30 34 32
37 37 38 38 38 38 38 39 41 44 45 43 40 36 32 29 27 26 24 23 19 18 17 17 17 17 17 18 20 22 28 28 28 26 24 22 23 22 23 24 29 38 43

GFSSE_prec_cthk_003.txt.gz
RH
35 31 29 30 31 35 32 31 29 28 23 21 19 16 18 27 28 26 28 26 21 22 22 20 25 28 28 29 29 29 29 23 20 19 18 17 12 13 19 18 12 21 19
36 34 31 32 31 35 35 34 29 23 22 20 16 15 22 27 27 27 26 23 24 22 21 21 24 27 29 31 30 29 27 21 20 18 17 15 14 14 19 16 14 19 18
40 40 33 35 36 38 37 35 26 22 19 16 14 21 21 23 25 22 24 28 24 21 17 20 23 23 21 27 30 29 23 20 19 18 17 15 21 19 17 17 14 18 19
41 41 40 39 38 43 40 32 23 19 18 15 12 21 25 28 29 28 23 23 22 20 18 16 15 16 20 20 21 25 23 20 20 18 16 26 28 28 21 17 15 19 23
44 42 41 41 41 42 40 36 28 20 16 13 12 19 28 28 30 29 30 22 22 22 19 17 15 13 14 18 19 19 20 21 21 20 22 22 23 26 24 22 22 20 23
47 43 36 43 41 41 41 39 36 28 21 15 12 19 27 28 31 29 28 23 22 22 18 16 16 16 15 14 14 15 21 23 21 23 26 23 21 20 24 20 16 21 19
48 44 37 41 39 39 41 41 37 35 31 26 16 18 23 27 30 31 29 25 21 20 18 15 16 18 18 18 16 14 14 16 20 21 22 27 22 22 21 17 20 20 23
48 45 42 40 40 40 41 43 42 39 37 34 28 22 21 25 26 38 28 26 18 18 18 17 15 18 19 19 19 19 17 16 16 19 18 20 20 17 15 15 17 21 22
47 44 46 41 41 41 43 44 43 42 40 38 34 29 27 29 31 31 27 21 17 18 19 16 16 16 18 20 19 17 17 16 16 16 19 20 20 17 14 15 16 20 23
46 46 47 45 43 42 42 39 41 42 41 37 35 31 29 30 30 27 26 24 23 21 21 22 23 22 22 22 23 23 23 22 21 23 24 21 19 15 14 15 16 17 19
49 49 48 46 44 42 41 42 38 36 35 33 32 31 29 31 35 34 32 28 28 28 28 28 28 28 27 26 27 28 28 27 28 29 27 25 23 20 17 15 15 16 16
53 53 50 46 45 44 42 41 40 40 37 35 35 35 34 34 35 29 29 30 30 30 29 29 28 27 27 28 31 30 27 28 28 25 23 22 22 23 22 20 17 13 13
53 53 51 48 45 45 44 41 40 38 36 32 34 34 33 32 34 34 34 33 31 31 32 34 34 35 37 37 36 36 34 33 31 30 28 26 23 23 23 22 21 19 16
53 52 52 46 43 46 45 39 38 37 35 34 32 33 33 34 34 35 36 37 36 37 38 39 39 40 40 38 38 38 38 38 38 37 35 34 33 32 31 33 32 30 28
50 50 50 47 46 45 44 43 39 39 37 36 36 36 36 37 37 38 39 39 39 39 40 42 41 42 44 43 43 42 42 43 42 43 41 39 39 39 39 39 40 40 38
48 48 46 44 43 45 44 43 41 41 39 39 38 39 39 39 41 42 45 47 47 47 46 46 47 48 48 46 45 46 44 44 45 45 43 40 38 36 35 34 34 35 37
44 42 40 38 39 43 45 45 43 42 40 42 41 40 41 43 46 48 49 49 48 48 49 49 47 42 39 37 39 38 38 39 39 39 39 38 36 35 33 32 32 32 35
40 37 35 34 35 41 44 46 44 44 45 45 43 42 44 46 45 48 49 49 47 44 41 37 34 32 33 36 41 41 39 36 34 32 31 33 36 34 33 32 33 35 37
35 33 33 35 37 40 43 45 45 46 48 48 45 46 47 45 45 46 44 40 38 36 35 34 35 37 38 36 35 33 29 29 28 28 32 38 40 41 46 38 35 35 35
36 35 33 35 37 39 42 39 44 46 46 44 44 46 45 42 40 38 37 35 34 35 38 38 38 36 33 31 29 27 28 25 26 30 36 34 37 40 38 30 39 52 35
35 35 33 33 36 38 37 40 44 45 44 43 43 40 38 38 36 34 35 37 39 39 37 32 29 26 26 26 24 24 20 24 23 30 31 34 31 25 30 29 40 51 66
33 32 33 35 37 34 38 41 42 41 39 37 34 33 32 32 36 40 41 37 33 27 25 23 23 21 22 21 21 20 23 21 22 19 20 20 24 30 29 31 30 29 28
33 31 31 31 33 43 39 37 35 34 36 34 32 33 37 41 42 37 32 27 24 22 20 18 19 19 20 20 20 23 24 24 24 24 21 26 23 19 24 24 21 20 20
32 31 29 29 31 36 36 35 34 36 35 36 38 40 42 40 34 30 26 24 22 20 19 17 18 18 20 20 19 20 20 24 26 24 23 21 19 18 16 18 18 16 16
33 30 29 30 33 33 35 37 39 39 39 40 43 43 38 32 27 25 23 21 20 19 18 18 18 17 19 21 20 21 22 25 23 21 18 16 15 15 15 15 22 17 18
33 33 34 36 37 40 42 40 40 40 42 44 41 35 29 26 27 28 26 22 20 19 19 18 18 18 19 21 20 20 17 17 19 18 17 17 18 18 21 18 19 26 28

GFSSE_prec_cthk_006.txt.gz
RH
36 30 30 31 32 38 33 34 32 28 25 20 18 15 20 27 25 24 24 26 26 21 22 27 31 30 28 30 30 29 28 24 21 19 17 16 16 12 14 19 13 19 19
34 32 32 35 33 35 36 36 34 29 25 20 15 14 20 24 26 25 24 25 21 21 18 25 28 27 29 30 29 28 23 19 19 17 16 16 14 19 17 16 14 19 21
38 35 34 37 36 39 39 39 34 27 23 19 15 16 19 22 24 21 20 21 20 20 18 17 24 23 22 21 24 28 23 20 19 16 14 17 21 21 20 19 17 18 22
39 39 37 38 38 42 45 36 30 23 21 18 16 20 23 24 26 25 21 19 18 18 17 16 16 15 16 19 21 23 23 22 20 18 15 20 22 24 22 21 19 18 23
42 45 44 39 40 41 39 38 34 30 23 17 15 20 27 27 28 29 29 22 19 19 18 16 16 14 13 15 18 19 18 20 21 18 19 22 20 23 24 23 21 18 20
43 45 42 38 43 42 40 40 38 33 32 25 18 22 25 26 27 27 29 28 21 19 18 16 15 16 16 15 14 13 12 13 14 15 17 22 21 18 21 24 22 18 16
47 48 42 36 41 41 41 42 41 39 37 34 28 30 25 26 26 29 28 27 21 16 15 14 12 12 14 15 15 15 11 10 10 10 11 15 18 18 14 14 13 14 15
48 45 41 38 39 40 39 40 41 42 41 38 33 32 33 34 34 33 34 26 19 14 12 12 12 12 13 14 15 17 16 16 15 14 13 14 16 17 15 13 13 14 14
49 46 42 41 42 38 38 38 41 42 41 40 35 32 31 35 39 39 32 26 21 19 19 18 17 18 19 20 20 20 20 20 20 20 19 18 17 18 16 15 15 15 16
50 47 46 46 44 40 38 37 37 38 37 34 31 29 29 31 32 31 31 29 28 27 26 26 26 25 24 24 25 25 25 26 25 24 24 24 24 23 21 19 16 16 16
48 49 50 51 51 45 42 42 39 32 30 29 27 25 24 28 31 30 31 29 30 30 30 30 30 30 30 30 30 31 30 29 27 27 25 25 24 23 21 21 21 20 17
50 50 50 52 52 48 44 42 39 35 32 31 30 30 28 29 30 31 30 32 32 32 32 33 33 33 33 33 33 33 33 33 32 32 32 32 31 31 30 29 28 26 25
53 53 53 52 53 50 46 44 44 40 35 34 35 35 34 32 32 32 33 34 32 33 34 35 36 37 37 38 39 37 38 36 36 36 37 36 36 37 37 37 38 38 37
54 53 52 53 53 51 48 46 46 45 40 38 37 37 37 37 37 38 39 38 39 39 41 42 45 45 45 45 43 43 43 43 42 42 42 43 42 43 43 43 43 42 43
51 50 50 52 52 50 49 48 47 48 46 42 40 42 40 40 40 40 42 45 51 50 50 49 47 46 46 45 43 40 38 38 41 43 43 43 41 40 40 40 39 39 39
50 48 49 50 51 48 48 47 48 49 50 46 45 44 43 43 43 44 49 50 50 50 50 49 46 41 35 33 32 33 35 36 38 38 39 37 36 36 36 35 33 32 33
45 44 44 48 48 47 48 48 50 49 50 49 49 48 47 46 44 47 50 50 49 46 44 39 33 31 30 31 33 36 39 38 35 32 31 28 31 35 36 36 36 41 39
38 38 40 41 42 43 44 48 50 52 50 49 47 50 48 47 46 46 45 41 38 37 34 33 33 33 34 34 33 32 28 26 25 24 27 32 35 39 41 41 46 39 41
36 34 39 38 36 41 46 50 50 51 48 44 47 49 49 47 45 40 34 34 34 33 34 34 35 33 30 26 25 22 21 21 20 25 25 26 29 33 33 33 41 33 35
35 36 37 38 40 42 44 45 46 46 43 46 48 48 44 41 37 34 33 32 33 35 35 33 28 24 20 19 17 17 16 19 18 19 22 24 25 27 28 28 26 25 29
37 37 38 38 38 39 40 41 43 42 45 47 44 41 37 36 34 31 31 35 37 34 29 24 19 17 17 16 17 15 15 15 16 16 15 15 14 15 18 21 24 25 26
37 39 39 38 38 39 39 39 42 42 42 40 36 35 34 33 34 36 37 36 30 25 21 18 18 17 16 16 17 16 17 15 16 15 18 14 17 18 15 12 10 12 14
36 37 37 36 36 38 37 35 38 39 36 34 35 37 37 37 36 35 33 28 22 19 18 17 17 16 16 16 17 18 19 20 16 15 12 14 10 11 9 9 10 11 10
36 35 34 35 35 33 29 30 32 33 37 39 39 38 38 35 34 33 26 24 21 19 18 17 17 17 17 16 17 16 15 16 17 18 15 13 12 12 12 14 13 19 18
35 35 35 34 33 32 33 35 37 39 41 41 39 38 36 34 29 26 25 25 24 21 20 18 18 18 18 18 17 16 16 16 14 16 17 16 15 14 15 15 18 13 11
37 36 35 34 35 36 37 39 41 41 41 41 41 39 36 30 27 29 30 28 25 22 21 20 20 20 19 17 17 17 17 17 17 17 18 16 17 16 18 16 17 14 18

GFSSE_prec_cthk_009.txt.gz
RH
36 31 30 32 33 37 38 35 32 30 25 21 16 14 22 24 24 25 24 22 19 18 18 24 28 29 28 30 31 29 27 22 20 19 17 15 17 15 14 16 16 18 18
36 32 31 35 36 37 40 39 36 31 24 20 14 14 22 24 26 21 23 22 20 17 14 20 24 24 26 27 26 27 26 21 19 16 14 15 16 18 20 20 17 19 22
37 34 34 37 37 36 38 38 35 26 21 18 16 18 18 23 24 19 20 21 18 16 15 14 20 20 21 21 21 20 21 21 20 16 13 16 20 21 22 21 20 18 20
37 35 37 41 41 38 38 37 33 30 26 19 18 20 21 23 26 26 23 19 17 16 15 15 15 16 15 16 17 18 21 19 15 16 14 16 18 20 22 23 22 19 19
38 38 39 41 41 40 41 39 37 33 32 29 22 22 26 26 27 27 28 21 20 16 15 14 15 15 14 14 14 14 16 15 13 15 15 16 16 20 21 21 21 20 17
37 38 39 45 41 41 41 38 37 36 35 31 29 32 27 26 28 27 27 19 20 16 13 12 13 13 13 13 13 13 12 11 9 9 11 15 16 18 17 19 14 16 17
38 40 46 45 40 42 41 39 38 36 36 34 33 35 33 36 37 33 29 26 18 12 11 12 11 11 11 12 12 13 12 13 12 11 12 12 15 17 18 19 16 14 13
40 44 47 44 41 43 41 39 37 37 38 36 32 34 34 36 39 41 41 33 24 18 17 17 16 16 16 17 18 19 19 20 21 20 20 18 17 18 21 24 19 16 16
39 48 48 45 42 44 40 38 37 38 36 33 31 27 26 31 36 37 35 30 28 27 26 26 26 26 26 24 25 26 27 27 27 27 26 26 26 25 25 31 27 21 18
38 48 49 46 45 45 43 39 37 37 34 29 27 24 23 24 26 26 27 29 31 32 33 33 33 33 33 34 33 32 32 31 31 29 29 30 30 28 28 29 31 28 24
38 44 50 49 50 47 47 44 41 37 33 29 25 26 26 26 26 25 26 29 32 34 36 37 38 38 38 37 37 38 38 37 36 36 36 36 35 34 33 34 33 32 30
42 42 50 52 52 49 50 49 42 37 37 33 30 29 31 32 31 30 30 31 31 33 33 35 36 36 37 39 41 41 43 41 39 39 39 39 38 39 39 40 40 40 41
47 47 49 51 50 50 51 49 44 42 41 39 38 34 36 36 37 37 37 36 37 36 36 39 40 40 40 40 39 40 40 40 39 39 39 40 41 42 44 44 45 44 44
47 52 52 52 51 51 52 50 46 46 44 44 43 37 39 39 39 39 39 39 41 43 42 43 44 44 45 44 41 37 34 34 33 36 39 41 43 43 41 45 46 47 47
44 50 55 54 53 52 52 53 50 48 49 48 47 46 44 42 42 45 45 43 44 43 44 44 44 43 36 31 29 28 30 32 34 36 38 39 40 38 38 39 43 43 46
42 51 54 53 52 51 52 54 53 50 52 50 51 52 51 46 47 50 49 47 46 46 45 42 38 33 30 29 29 30 32 34 34 33 30 29 28 28 33 34 36 43 50
45 51 52 51 48 47 53 54 53 52 53 51 51 53 50 47 50 50 49 49 46 41 38 33 30 30 31 32 32 31 28 25 23 21 21 22 26 29 31 29 37 37 42
43 46 48 45 44 46 52 53 52 53 52 51 52 50 45 47 51 50 49 44 36 32 29 29 31 32 30 26 22 18 15 16 17 19 21 24 26 26 29 31 33 33 33
36 37 39 40 42 48 50 48 50 50 48 49 48 48 48 51 51 45 38 36 33 30 31 32 31 26 22 18 16 15 15 15 18 15 15 17 19 20 21 24 29 29 27
29 32 36 36 42 44 45 48 48 47 47 47 47 49 47 43 40 38 36 33 32 33 32 29 23 20 18 17 17 16 15 14 13 14 13 13 12 13 14 16 17 18 17
29 31 37 39 42 44 44 43 44 48 49 52 50 45 42 39 36 35 35 35 32 28 25 21 19 18 17 16 15 14 12 12 13 10 10 9 10 10 10 12 11 9 9
33 34 38 42 42 43 43 44 47 47 44 41 42 38 36 37 38 36 34 31 28 24 22 20 18 17 17 16 15 14 14 12 14 13 13 12 13 13 11 10 10 11 11
37 39 39 42 43 42 42 42 40 37 34 32 35 38 40 39 35 33 31 28 25 23 20 19 18 17 16 16 16 17 18 18 16 16 13 16 13 14 13 13 13 13 15
39 42 45 45 43 41 39 37 34 32 33 37 41 41 40 37 35 31 27 27 26 24 21 20 19 19 19 19 18 16 18 19 19 20 16 14 15 13 13 13 13 15 14
37 42 42 40 38 37 35 35 36 38 39 41 41 40 39 38 33 29 29 29 27 24 23 23 22 22 21 20 18 18 18 18 18 19 19 17 16 15 13 14 14 13 13
35 40 39 37 37 38 39 40 42 43 42 41 39 38 36 33 33 34 33 32 28 26 26 25 25 24 22 19 19 20 20 19 19 19 18 16 17 16 15 15 15 16 17

GFSSE_prec_cthk_012.txt.gz
RH
36 31 31 33 35 40 35 32 26 24 21 18 15 13 20 22 24 26 28 25 19 17 18 27 27 29 31 31 29 29 26 25 22 19 17 16 16 18 16 17 17 17 18
36 31 32 35 36 35 36 34 32 28 22 19 15 18 24 24 27 24 24 22 19 16 13 19 20 21 24 23 25 23 21 22 19 17 14 14 15 16 20 21 20 19 21
38 35 33 36 38 37 37 36 35 32 28 21 15 17 19 21 23 18 19 19 15 13 13 13 18 18 20 21 21 20 21 20 19 17 14 15 17 18 20 21 21 18 19
34 34 35 38 40 38 38 36 36 33 29 29 30 24 22 20 22 24 19 18 17 14 13 14 15 16 16 17 18 19 19 21 19 17 17 15 16 18 20 23 24 21 18
35 34 36 40 43 42 38 36 35 32 32 30 30 34 32 29 29 26 24 17 18 16 14 13 14 15 15 15 15 16 15 16 14 13 13 15 16 18 21 22 24 23 19
36 36 38 40 42 44 40 39 36 33 32 32 32 35 35 40 38 34 24 20 18 16 13 14 14 14 15 16 16 16 16 15 14 12 11 11 15 17 20 23 23 22 17
38 37 40 43 45 46 41 40 39 36 32 31 31 33 33 37 42 42 38 30 21 14 13 14 15 15 16 16 16 17 17 18 19 20 20 18 17 18 19 23 24 23 24
39 39 44 44 49 48 43 41 40 37 34 31 30 30 29 32 37 42 40 36 29 25 24 24 23 23 22 23 22 23 24 26 27 28 27 26 25 24 25 29 29 28 27
42 40 42 43 46 47 44 43 41 39 36 32 27 25 25 27 29 31 32 30 31 32 33 32 33 33 34 35 35 35 34 33 32 32 31 31 30 29 28 29 32 33 34
44 42 40 45 47 46 43 44 45 40 36 32 27 24 25 26 27 24 23 26 29 32 35 37 39 40 40 40 39 39 39 38 38 37 38 38 38 38 37 36 35 37 36
46 43 37 46 49 46 47 46 48 43 36 33 29 26 25 28 30 28 29 29 29 30 30 32 34 35 37 38 40 41 41 42 42 40 42 42 41 41 39 38 40 40 39
40 40 41 45 52 50 49 48 48 44 39 35 34 33 33 32 34 35 35 37 36 35 34 36 36 37 37 36 38 39 39 38 37 37 36 37 38 39 39 40 44 44 44
36 39 46 47 52 51 49 49 48 46 42 40 40 38 36 36 37 38 40 41 40 38 41 42 40 42 42 40 38 35 33 31 32 32 33 33 34 35 38 40 46 48 47
37 39 48 53 54 54 52 50 50 51 46 42 42 41 40 40 41 44 43 46 47 44 43 43 43 43 43 38 35 33 32 31 32 32 34 36 38 39 39 39 38 39 44
32 37 44 53 55 57 55 52 51 52 49 47 47 45 43 44 45 47 49 48 48 46 44 44 44 43 37 31 30 30 31 32 33 33 31 29 27 28 28 29 30 31 34
30 33 40 55 56 58 56 55 53 53 52 52 50 50 51 49 48 47 47 50 50 48 46 45 38 30 28 30 31 31 30 27 25 23 22 22 23 24 26 29 32 32 33
28 31 38 56 58 58 57 56 56 56 53 53 51 51 50 51 48 50 52 54 50 48 41 33 29 30 30 29 25 20 18 16 16 17 18 21 23 25 27 29 30 30 31
24 29 39 51 55 57 56 56 57 56 53 52 51 49 50 48 52 53 54 52 42 36 33 33 32 29 25 21 17 17 17 17 17 19 19 20 21 21 21 22 24 27 29
25 31 40 48 50 53 54 56 57 53 52 50 50 51 52 54 56 56 46 39 36 35 34 31 26 21 18 18 19 19 18 17 17 15 16 14 14 13 14 16 18 18 19
26 30 37 45 46 48 52 56 55 54 51 51 52 51 56 54 46 42 38 37 37 34 29 25 19 18 18 19 18 16 15 16 13 14 11 11 10 11 11 11 10 10 11
29 25 28 32 38 42 50 53 52 50 50 53 53 51 41 42 38 38 40 38 34 29 24 19 17 17 18 18 17 15 14 13 13 14 13 13 13 13 12 12 12 12 12
31 29 27 30 36 45 50 50 51 50 53 54 47 38 35 37 40 40 38 35 32 25 20 18 19 20 20 19 18 17 16 15 16 15 16 15 16 15 15 14 14 13 13
32 34 34 36 41 46 51 52 53 53 51 44 38 37 40 41 41 40 37 32 26 23 20 22 23 21 21 21 19 18 18 19 18 18 17 17 17 16 15 14 13 12 12
36 37 38 40 45 50 50 51 51 46 41 39 40 41 42 42 40 38 33 28 26 26 25 24 24 23 22 22 21 20 19 20 20 19 18 17 17 16 14 13 11 10 10
40 41 42 44 47 47 47 46 43 38 39 43 45 46 44 40 37 34 32 30 32 29 27 26 25 24 23 23 21 20 20 20 21 22 20 18 14 12 10 9 9 9 9
42 44 45 45 47 45 41 39 39 41 44 47 49 46 41 40 37 35 35 37 35 31 28 26 26 24 23 23 22 22 22 22 21 20 18 16 15 13 13 11 9 10 12

GFSSE_prec_cthk_015.txt.gz
RH
38 34 37 34 36 36 33 32 29 26 21 18 15 15 15 18 23 27 24 21 19 17 17 25 25 28 31 31 25 23 22 23 24 23 20 15 16 16 18 17 18 18 18
38 33 36 37 37 36 33 33 32 32 29 21 17 20 26 21 22 20 22 19 18 15 13 19 20 21 25 26 24 23 21 21 21 21 17 15 15 15 16 18 21 19 22
38 36 36 40 39 36 35 35 34 35 32 27 25 32 23 28 26 19 20 16 14 14 13 15 18 18 21 22 22 21 21 21 20 19 18 16 16 17 19 19 22 21 20
36 34 34 39 40 39 36 36 36 34 31 29 28 32 30 28 27 27 18 18 18 14 13 13 14 16 16 18 18 18 19 19 18 17 16 16 17 18 18 21 23 23 22
33 33 35 37 40 39 38 37 37 32 31 30 35 34 37 41 38 29 20 18 18 15 13 13 14 14 15 15 16 16 17 16 15 14 13 13 14 16 17 23 25 24 23
34 34 36 38 40 41 40 38 38 34 30 30 31 35 39 44 43 41 35 25 19 13 13 14 15 16 17 17 18 18 18 18 18 17 16 15 14 14 18 20 23 23 23
35 34 36 40 43 44 44 42 40 37 32 28 28 32 33 41 42 44 41 34 31 23 20 18 17 17 17 18 18 18 19 20 22 24 25 25 24 21 20 21 25 24 24
38 36 37 41 44 45 46 47 43 39 35 30 29 29 31 35 38 38 37 36 33 31 31 31 30 29 29 30 30 31 31 32 33 32 32 31 31 30 29 28 28 31 32
42 40 40 40 42 45 48 48 45 42 37 33 30 28 27 30 32 34 28 24 26 29 31 34 36 39 40 40 40 39 39 39 38 38 38 37 36 35 34 34 31 30 32
44 45 44 41 41 44 47 49 47 45 41 36 32 29 27 29 32 29 28 28 30 30 30 31 32 35 37 39 40 42 43 42 42 42 42 42 43 43 44 43 42 40 41
46 47 47 44 39 47 51 50 47 46 44 39 33 31 30 32 31 32 33 36 37 38 36 37 37 38 40 41 39 40 40 40 41 38 39 38 38 39 40 40 42 44 41
47 47 45 42 42 46 52 51 50 49 46 42 36 34 36 36 36 37 38 38 40 40 41 42 43 42 42 40 41 38 37 35 34 32 32 32 32 32 35 38 42 44 46
42 44 46 45 47 48 54 54 52 49 49 47 40 42 40 38 38 40 41 42 43 43 47 46 45 44 42 40 37 35 35 33 33 33 34 34 35 36 36 36 37 40 42
36 40 43 45 49 55 55 58 55 52 51 50 47 46 44 43 42 44 41 44 48 48 47 46 45 44 45 42 37 34 32 31 32 33 33 32 31 29 28 29 29 31 32
33 37 40 44 46 57 58 60 61 56 53 54 52 50 48 48 48 45 48 50 47 47 49 48 45 44 40 32 29 29 29 28 26 26 26 26 25 25 26 27 28 27 29
30 29 33 42 46 52 62 64 65 60 58 58 55 54 54 53 52 48 50 48 49 51 51 48 42 35 32 32 30 26 23 20 19 18 18 19 20 21 22 23 25 27 29
35 30 31 35 41 48 62 67 68 64 60 58 55 55 54 53 53 52 50 50 53 52 47 37 34 35 33 29 23 19 17 17 17 18 20 20 21 22 23 24 25 26 28
35 29 27 33 40 46 60 67 68 63 59 57 56 56 57 53 53 54 53 53 50 39 36 37 35 32 25 19 17 17 16 18 19 21 20 19 17 17 17 18 19 20 21
36 34 27 29 38 47 57 67 67 66 63 63 61 60 56 55 56 56 54 41 36 37 36 34 29 23 19 18 17 16 17 18 18 18 16 14 13 13 13 15 13 13 13
33 36 30 31 41 49 56 63 64 67 67 65 61 58 54 56 56 42 38 37 38 37 35 31 22 17 16 16 16 16 18 17 17 15 17 14 13 13 14 14 13 13 13
33 38 39 34 38 45 53 57 60 66 66 63 60 57 56 49 37 34 37 39 38 37 30 21 17 18 17 18 20 20 19 18 16 16 17 15 15 15 16 15 15 15 15
34 33 36 40 36 39 46 53 59 62 60 59 60 57 46 37 37 40 40 39 36 29 22 19 19 19 21 23 22 21 20 19 18 19 18 18 18 18 18 17 17 16 15
37 34 32 34 35 36 46 53 57 58 58 58 58 47 39 41 42 44 44 39 31 25 22 20 20 24 25 24 23 23 21 21 20 20 20 20 20 20 19 18 17 14 12
42 37 35 35 38 46 47 52 54 55 56 57 49 40 42 45 48 47 40 35 30 28 25 23 27 27 25 24 23 22 22 23 23 22 21 21 21 19 17 14 11 9 8
46 41 41 41 44 48 50 53 53 55 56 50 42 43 46 50 50 45 39 35 33 31 29 30 29 27 25 24 23 23 24 24 24 26 25 22 19 15 12 10 9 8 8
49 45 44 47 48 50 51 52 52 51 48 42 44 47 50 52 50 44 41 38 36 35 35 34 29 27 26 25 25 26 25 26 27 27 25 21 18 14 12 10 10 10 11

GFSSE_prec_cthk_018.txt.gz
RH
37 35 39 38 38 38 35 32 29 27 25 20 17 16 23 23 22 24 23 21 20 17 19 25 28 30 32 30 31 26 23 23 23 22 20 18 15 16 17 18 17 17 18
37 36 40 39 39 36 35 33 32 31 30 25 23 26 26 27 25 24 24 19 16 14 14 19 20 25 30 28 27 22 21 21 19 19 18 16 16 17 16 16 18 19 21
39 37 42 41 39 37 35 34 33 33 32 27 34 40 36 31 27 23 17 14 14 14 13 16 17 17 21 22 21 21 19 19 19 20 18 17 18 17 18 19 20 21 20
41 38 37 40 39 38 37 37 35 33 30 27 33 37 35 39 32 23 18 18 15 14 13 13 14 15 16 17 17 17 17 18 17 16 15 16 16 16 15 17 20 23 23
40 36 36 41 40 38 38 39 37 33 30 28 30 35 37 42 34 32 26 21 17 13 12 12 13 14 14 15 16 16 17 17 17 16 15 13 12 13 14 17 28 27 22
43 38 37 39 41 40 39 39 38 35 32 28 29 34 38 42 43 42 39 32 26 19 17 16 15 15 16 17 18 17 18 19 19 19 19 18 17 15 15 18 19 23 23
41 40 38 39 41 42 43 43 42 38 34 30 30 32 40 41 40 39 40 35 32 29 29 29 29 27 25 23 23 23 23 24 26 26 26 26 25 25 24 22 22 27 25
39 38 39 39 42 43 45 46 47 44 37 32 31 33 36 40 40 37 35 32 29 29 31 33 34 36 38 39 39 40 39 39 39 37 37 35 33 32 30 28 27 26 29
43 44 42 41 41 44 45 48 50 48 42 36 34 34 34 35 38 40 33 30 27 28 30 32 33 34 36 38 40 42 43 43 42 42 41 41 41 40 38 38 38 36 34
46 47 45 46 45 43 44 48 52 51 46 41 37 34 33 34 35 35 32 33 36 38 38 40 38 38 39 39 40 40 40 40 39 37 37 38 39 39 41 41 41 40 39
49 49 50 50 50 45 44 50 54 53 49 47 42 36 34 34 35 35 36 39 40 41 41 43 44 44 43 42 40 39 39 37 37 35 34 33 35 34 35 38 39 44 48
48 49 50 51 50 45 47 48 56 56 51 48 44 39 36 37 37 39 41 41 42 43 46 46 47 46 43 43 40 37 36 36 35 34 33 34 35 37 38 38 39 42 44
49 49 50 51 52 49 50 50 54 60 55 50 47 45 42 41 41 43 45 44 45 46 48 48 46 46 44 43 41 38 34 32 31 31 32 34 35 35 34 32 33 34 34
41 43 46 48 51 53 53 58 59 63 60 54 50 51 48 48 48 48 47 45 51 50 49 46 47 45 45 42 36 32 30 30 28 26 25 25 26 27 26 28 27 26 27
33 37 40 43 47 50 52 58 65 64 65 60 56 55 53 53 53 52 49 52 51 50 48 49 49 46 40 35 32 31 30 26 22 20 19 19 19 21 22 22 23 23 26
38 35 35 40 44 47 50 56 66 67 69 67 62 62 59 58 57 54 54 53 52 50 49 50 45 36 34 34 33 29 22 18 16 16 17 18 20 21 22 23 23 25 27
35 38 35 34 37 44 48 55 63 71 75 72 65 62 60 58 58 56 56 55 55 52 50 38 35 36 34 31 25 20 18 18 18 17 18 19 21 22 22 22 23 24 25
36 34 39 37 34 38 47 54 59 70 75 73 65 63 62 61 59 56 56 57 55 44 37 36 36 33 29 23 20 18 16 16 16 17 18 18 17 16 16 16 17 17 16
36 35 36 39 32 34 46 52 59 67 77 74 70 66 66 63 59 57 58 53 37 35 38 35 34 29 22 18 16 16 16 15 16 19 20 19 17 15 15 15 15 14 15
37 37 35 38 38 34 41 49 59 68 74 74 71 68 64 62 59 59 51 36 33 36 35 34 29 21 17 16 17 17 17 20 21 21 19 18 18 17 16 17 17 16 16
39 36 35 36 40 37 39 48 58 66 72 72 73 68 63 64 60 47 37 35 37 39 35 28 20 17 17 18 19 21 22 22 21 20 19 20 19 19 19 18 19 18 18
42 38 36 36 42 46 42 47 56 60 67 72 70 67 65 61 46 41 40 42 42 38 32 24 19 19 21 21 22 24 23 22 21 20 21 21 21 21 21 22 22 21 20
44 42 38 38 39 46 50 49 58 58 64 69 67 66 63 50 43 42 44 45 43 38 31 25 23 23 23 23 25 25 24 22 22 22 22 22 23 24 24 24 23 22 19
42 43 42 40 39 44 50 53 55 56 60 58 61 62 54 45 45 46 46 45 44 40 33 29 27 26 25 26 27 27 26 26 25 23 23 25 25 25 25 24 21 18 15
42 44 45 41 40 39 45 52 59 60 58 56 57 55 46 46 47 48 49 52 49 43 37 34 30 29 28 29 29 28 28 27 26 27 26 25 25 26 23 20 17 15 13
44 45 48 45 44 47 51 56 59 57 55 55 56 47 46 48 51 53 55 55 52 47 44 38 33 32 31 30 31 30 29 27 27 29 29 28 27 23 19 16 14 14 14

GFSSE_prec_cthk_021.txt.gz
RH
37 38 40 39 36 34 33 31 28 27 26 23 19 19 26 28 25 23 24 24 24 20 20 29 32 34 33 29 30 29 25 23 22 20 18 18 15 14 16 17 18 17 17
39 40 45 41 39 38 35 32 30 30 30 26 23 25 28 30 29 28 26 19 17 17 19 20 25 31 31 27 25 21 19 19 18 18 18 16 15 16 17 17 15 17 18
41 42 45 43 40 38 36 34 33 31 29 28 36 42 39 34 26 26 22 13 13 13 13 17 19 22 21 23 22 20 20 18 17 17 16 17 17 17 17 20 18 20 18
43 42 43 44 38 37 36 36 35 32 27 28 39 43 39 37 30 23 21 18 15 13 13 14 16 16 19 19 19 17 17 16 16 16 15 15 16 15 15 14 18 18 20
45 44 44 44 40 39 37 38 38 33 28 26 33 35 35 35 34 33 28 22 16 15 14 13 13 14 14 14 16 16 17 18 18 18 18 15 13 11 12 14 19 25 23
56 48 47 49 45 40 40 40 38 35 32 30 31 33 37 38 38 38 35 31 27 25 24 23 21 19 18 17 17 17 19 18 19 20 19 19 19 18 16 16 18 20 23
48 47 47 51 47 42 41 42 43 39 35 33 35 35 40 40 39 38 37 33 31 30 31 31 31 31 32 33 34 33 33 34 34 34 33 32 31 31 29 26 24 23 26
44 43 44 48 45 45 43 44 45 44 41 36 36 38 39 42 40 39 35 31 27 28 29 29 31 33 35 37 39 40 40 41 41 40 39 38 38 37 37 36 35 33 31
45 47 43 46 46 45 43 45 46 47 45 41 38 38 40 41 42 38 34 33 30 32 35 37 39 37 37 37 37 37 39 37 35 34 35 35 35 36 37 37 41 39 37
49 50 48 49 46 49 47 45 47 47 47 46 41 38 38 40 40 42 37 34 37 39 40 41 41 43 45 43 43 41 39 38 36 35 33 32 33 34 34 37 40 40 48
50 52 56 54 52 52 50 47 48 49 49 50 46 42 38 39 40 37 36 40 42 42 42 44 44 45 44 44 43 43 40 37 36 34 34 32 32 33 34 34 36 40 43
48 51 56 58 58 55 53 49 49 49 53 53 48 45 42 40 39 39 40 43 46 45 45 45 46 46 42 43 42 41 39 36 32 31 30 30 31 32 34 36 37 36 36
48 50 54 59 61 58 55 53 51 52 55 56 52 46 45 45 45 44 45 46 48 47 47 48 48 45 44 44 41 37 34 31 30 30 29 28 26 26 27 27 26 25 26
44 50 52 55 57 60 60 57 54 56 58 58 58 54 51 50 50 50 51 49 50 50 49 49 48 46 46 42 37 32 32 31 30 27 23 20 19 20 21 22 22 22 24
37 46 49 54 55 56 58 57 57 57 62 61 62 63 58 57 56 56 54 55 53 51 50 50 49 47 39 35 33 33 31 27 23 19 17 17 18 18 19 20 20 22 24
40 37 38 41 45 48 51 55 56 57 61 65 69 70 65 64 61 57 56 56 53 52 52 51 45 35 35 34 32 28 24 21 19 18 17 18 19 19 20 22 23 24 24
41 41 40 37 37 42 47 51 54 56 59 69 74 75 71 65 63 61 57 56 54 54 53 40 37 36 35 31 27 23 21 18 17 16 17 17 18 18 18 18 18 19 19
44 40 38 39 38 37 40 47 52 54 58 66 75 76 74 69 67 65 58 57 56 54 38 36 34 36 33 27 22 20 16 15 15 16 17 18 19 19 18 17 17 16 16
45 44 41 38 37 40 40 44 49 56 58 63 74 80 77 73 70 65 59 58 52 38 37 35 31 31 26 22 19 17 16 17 17 18 21 22 22 20 19 18 17 17 17
43 44 42 39 38 38 42 45 45 56 59 66 73 78 76 75 71 64 60 54 39 39 36 33 30 26 23 20 17 17 19 19 19 21 24 21 20 21 20 19 19 19 19
39 42 44 41 40 40 40 48 45 52 57 66 71 77 76 77 69 64 57 42 41 41 39 36 31 27 24 19 19 19 20 20 20 22 22 21 21 21 21 20 20 21 21
37 40 43 42 40 40 40 44 47 49 58 63 71 77 82 73 69 61 45 44 45 43 41 38 36 32 26 21 20 21 22 23 24 25 25 23 23 22 22 22 23 24 24
33 38 43 42 42 42 43 46 53 59 63 64 67 76 74 70 65 49 46 48 47 46 45 44 41 35 28 22 21 23 23 25 25 26 26 26 25 24 24 25 26 26 26
31 38 43 43 46 44 46 48 51 56 60 62 66 73 66 65 55 47 48 51 52 52 52 51 47 40 30 25 24 24 24 26 27 26 26 26 25 24 25 26 26 25 23
33 36 41 43 46 49 49 54 57 64 65 68 68 62 63 56 47 47 52 54 54 55 54 52 49 45 34 27 25 26 27 26 26 26 26 26 26 28 27 25 24 22 19
37 40 44 45 47 50 54 56 56 58 59 64 63 57 55 49 47 50 54 55 57 58 57 54 50 44 36 30 30 29 29 28 28 28 30 31 31 28 26 23 21 19 17

GFSSE_prec_cthk_024.txt.gz
RH
35 39 40 38 34 31 30 29 27 27 26 24 23 27 29 30 26 25 24 24 24 23 22 30 40 30 29 33 27 27 26 23 21 19 17 17 16 15 15 16 18 21 18
37 46 44 43 38 34 33 31 28 28 28 26 25 29 33 32 30 28 25 17 17 19 19 24 34 41 40 32 31 27 23 20 18 15 16 16 15 15 16 16 16 21 15
42 49 48 44 41 38 34 31 31 30 27 28 33 36 38 36 31 27 21 12 11 12 15 16 26 30 30 29 29 24 20 18 17 15 15 20 20 17 16 16 17 16 16
48 52 50 47 44 39 35 33 32 31 27 30 39 39 37 33 29 24 20 16 13 13 13 15 18 19 24 23 21 18 16 16 16 16 21 20 19 16 15 15 19 18 17
50 52 50 47 45 43 38 36 34 31 29 32 36 32 30 31 32 30 27 22 17 16 14 14 14 14 13 14 15 17 17 18 19 21 23 20 17 16 11 13 18 22 27
58 56 56 56 50 46 42 40 38 32 29 34 36 33 32 35 35 35 32 30 26 25 24 23 23 22 22 22 23 23 26 22 23 26 25 25 23 24 22 20 22 24 23
56 60 59 54 50 46 42 41 40 37 35 33 36 37 36 39 38 37 33 31 30 29 29 29 29 30 32 33 35 35 36 37 39 41 41 39 39 36 35 34 32 30 29
54 56 56 53 50 47 41 40 41 41 39 38 40 40 41 42 40 38 36 31 27 27 28 30 31 34 36 35 36 37 37 36 39 41 39 38 37 36 36 36 37 39 37
55 51 53 54 52 48 44 41 42 43 40 40 44 44 42 43 44 42 38 34 31 32 34 36 37 38 39 43 41 42 41 39 37 40 36 38 37 38 39 43 45 42 50
51 51 52 59 55 54 49 47 46 44 43 42 44 47 45 44 45 42 37 35 35 38 39 39 40 45 46 46 43 41 40 39 40 38 36 34 33 32 33 34 32 37 42
51 51 56 59 59 59 58 53 51 47 46 45 43 47 47 47 44 43 38 37 41 42 41 43 44 44 44 42 43 42 41 38 35 33 33 31 31 31 33 33 34 34 34
51 52 54 59 62 66 63 59 55 52 50 49 47 46 49 47 47 41 40 41 43 45 46 46 46 45 44 44 42 41 39 34 32 31 31 29 30 31 31 30 29 30 31
50 53 53 55 63 66 65 61 61 57 56 56 54 50 49 48 46 46 47 48 47 47 47 48 48 45 46 43 41 38 33 32 31 31 30 29 27 25 24 22 20 21 22
47 49 48 52 57 63 68 66 65 59 59 58 57 55 56 57 52 54 55 52 50 49 51 50 49 47 46 40 34 34 33 32 30 27 24 21 19 18 20 21 19 20 21
45 47 48 49 55 54 58 62 63 64 65 60 60 58 64 64 60 57 56 54 55 55 52 51 49 47 40 32 33 32 30 27 23 22 21 19 19 18 18 19 19 20 20
47 46 48 47 49 53 55 61 63 59 60 61 61 62 67 68 64 62 61 59 56 56 54 53 49 38 34 34 31 29 26 23 22 20 18 17 17 17 17 18 18 18 18
47 46 45 44 46 48 52 55 55 56 58 61 62 62 70 71 71 67 64 61 58 57 56 51 37 35 34 31 28 26 24 21 20 17 16 17 18 17 17 16 16 17 17
46 47 46 44 43 42 45 47 51 53 56 59 61 59 67 74 75 72 69 63 60 59 53 38 36 35 31 26 21 23 21 20 18 17 18 20 19 18 18 18 18 18 18
40 46 46 46 43 42 47 49 49 51 51 53 55 58 64 74 80 77 72 67 63 54 40 38 37 33 26 21 20 21 21 20 19 19 21 21 21 21 20 20 20 20 19
34 39 44 47 47 45 46 49 52 55 54 51 53 59 63 68 79 79 74 70 61 43 40 41 37 33 29 25 24 23 22 20 19 21 22 23 20 20 21 22 22 21 20
32 33 39 43 47 47 47 46 49 51 59 62 51 62 63 67 76 78 74 71 50 44 45 42 39 37 33 29 28 27 24 21 20 22 22 22 22 22 23 23 22 21 21
30 31 35 38 43 47 48 48 53 53 59 67 59 60 66 73 74 78 74 60 49 49 47 46 47 45 41 37 31 28 27 25 22 23 24 23 24 25 25 24 24 23 22
29 30 31 34 38 44 48 51 50 50 54 62 63 63 69 68 76 73 67 52 51 50 52 53 52 50 46 43 37 31 28 27 24 25 25 26 26 27 27 26 25 24 24
29 28 29 31 35 39 42 46 49 50 55 63 65 66 70 75 75 68 56 49 51 53 54 54 54 53 50 46 38 31 29 27 27 26 27 29 29 29 28 26 26 26 26
29 29 30 31 35 38 40 45 53 57 61 65 72 75 73 69 71 63 49 49 52 54 54 56 57 56 55 50 42 34 30 28 28 29 29 29 27 29 30 32 31 29 28
29 30 34 34 35 39 41 45 53 57 62 69 69 72 75 73 65 56 48 52 55 56 58 59 59 60 57 51 42 37 34 32 31 30 30 32 34 34 33 31 29 27 25

GFSSE_prec_cthk_027.txt.gz
RH
35 34 37 36 34 30 28 28 28 28 27 26 27 32 32 30 28 25 23 22 23 24 23 33 37 28 36 37 27 25 25 24 23 22 21 18 16 15 15 15 16 24 23
40 39 41 39 36 32 30 27 27 26 26 25 24 26 32 33 30 27 24 15 16 21 21 29 39 41 41 38 31 28 27 24 22 17 15 15 17 15 15 16 16 21 20
44 46 43 43 39 36 33 30 28 28 25 23 26 37 35 36 33 26 19 12 11 14 17 21 32 34 32 31 30 26 21 17 15 14 16 20 22 19 17 17 17 17 17
48 49 46 45 43 41 38 33 30 28 28 32 35 32 33 33 30 24 20 15 13 12 12 14 20 25 25 22 22 18 15 14 15 17 24 23 22 19 15 15 15 20 18
52 52 48 47 48 46 44 37 33 28 30 34 35 31 25 25 27 28 25 21 17 15 14 14 14 13 14 15 14 15 16 17 19 23 27 25 21 22 14 12 14 19 22
56 59 55 52 51 52 44 40 36 32 31 35 35 29 29 30 29 28 28 26 24 23 22 21 20 21 22 23 24 24 25 26 28 36 35 35 32 29 28 26 24 25 26
62 64 55 51 54 51 43 39 36 33 32 37 38 35 35 34 34 32 29 28 27 28 28 28 28 29 30 32 33 34 35 35 37 45 46 46 45 39 38 37 37 36 35
63 65 57 51 53 50 45 40 37 35 34 36 40 40 38 41 42 37 33 31 27 26 28 30 31 33 35 35 36 37 36 36 34 39 39 39 37 34 33 36 39 40 41
60 55 56 55 54 54 48 42 40 37 36 39 42 43 42 45 44 42 37 34 30 31 34 36 37 38 41 41 42 40 38 36 37 43 40 41 35 32 32 35 37 36 37
54 54 60 56 54 56 53 49 44 40 37 39 44 45 47 49 49 47 40 37 35 37 38 40 41 43 43 43 41 40 39 38 39 38 41 34 31 30 29 30 30 31 30
55 56 58 59 55 57 55 51 49 47 43 41 43 44 48 50 51 46 42 37 39 40 42 42 43 43 42 41 41 40 37 36 36 35 35 31 29 30 31 30 30 31 32
56 53 50 56 58 58 55 60 55 53 48 43 42 43 47 53 54 52 43 40 42 42 43 45 45 45 44 44 41 38 34 32 33 31 31 29 30 31 33 28 24 25 25
53 53 54 56 60 57 58 60 63 59 56 55 50 48 51 53 53 52 48 48 47 47 47 46 46 45 46 45 43 34 30 32 33 33 31 28 27 27 26 21 20 22 22
54 52 53 56 60 60 58 58 62 67 62 64 54 52 50 53 55 58 61 61 57 51 51 50 48 47 47 42 34 32 29 29 29 29 28 23 22 22 21 18 17 18 18
51 53 53 54 53 59 61 58 65 69 70 65 62 62 54 57 60 64 66 60 56 55 54 53 51 49 43 34 33 31 29 27 26 25 25 22 20 18 17 16 17 16 17
47 49 53 51 55 56 61 61 62 61 62 64 68 61 57 61 67 67 64 63 61 59 56 54 52 46 36 33 31 29 26 24 24 23 24 21 19 16 17 17 17 16 15
40 47 51 55 53 55 58 59 62 63 63 64 65 57 59 64 59 65 69 69 67 64 60 56 47 38 35 32 29 25 23 21 20 22 22 22 19 17 18 17 16 15 15
38 39 44 51 54 53 57 60 59 59 60 60 62 58 60 60 60 60 70 72 70 67 64 54 41 38 35 31 26 24 20 18 21 22 22 21 19 19 19 20 19 17 17
37 37 40 43 48 51 53 56 56 56 55 55 58 59 60 57 57 58 64 75 73 69 64 47 42 39 35 32 27 25 22 22 24 25 25 24 21 20 20 20 19 19 19
34 36 38 37 43 49 52 56 57 58 57 60 62 59 57 55 56 59 65 70 74 71 54 49 45 39 37 36 33 29 26 24 25 26 27 26 25 21 20 21 21 21 21
30 33 34 36 35 41 48 53 57 53 56 58 63 64 65 61 57 60 63 65 73 65 53 52 47 45 45 45 42 37 33 29 28 28 28 26 25 24 22 24 22 21 21
26 30 34 36 35 35 40 48 55 57 56 59 58 63 72 77 62 62 70 70 69 57 56 53 51 51 50 49 46 42 38 34 32 28 28 26 26 24 24 24 22 22 22
26 26 28 33 36 35 38 44 53 55 54 54 58 61 63 72 68 69 70 71 63 53 55 54 53 53 52 52 51 46 41 38 34 31 29 28 26 27 27 27 26 24 22
28 30 28 30 35 37 39 41 39 42 50 54 56 59 63 70 73 73 71 72 64 52 52 54 53 55 55 54 52 51 45 40 38 35 33 31 31 29 28 28 27 27 27
26 31 32 33 35 38 38 40 39 43 48 52 59 63 68 75 76 73 77 75 58 52 53 53 55 56 57 56 55 52 47 43 40 37 34 33 31 30 31 32 32 31 29
24 29 34 34 36 37 39 39 40 41 45 50 59 65 68 74 78 77 74 73 56 54 55 56 57 59 59 58 57 54 47 43 41 37 35 33 33 34 33 31 28 26 27

GFSSE_prec_cthk_030.txt.gz
RH
37 31 32 32 32 30 28 27 27 28 29 29 33 35 34 31 29 27 22 19 21 22 21 34 32 32 40 39 29 26 25 25 25 26 26 24 19 15 14 14 15 22 23
37 34 34 34 35 31 29 26 24 23 23 23 23 28 33 34 30 25 19 12 13 17 18 32 38 40 39 38 30 28 26 22 18 16 16 17 18 17 15 15 16 19 20
39 37 35 33 36 35 33 30 26 25 22 22 28 34 35 35 33 25 15 12 11 15 15 24 33 33 31 30 30 24 18 15 14 17 20 20 20 19 16 16 16 19 17
45 41 39 35 34 35 37 35 33 24 25 27 30 29 29 30 30 23 18 15 13 12 12 15 24 27 25 20 18 15 14 15 18 22 23 23 23 23 18 14 15 19 20
46 42 42 39 37 38 38 38 32 27 30 31 31 28 23 23 22 22 22 20 17 14 14 14 14 13 13 14 14 16 17 20 23 25 25 25 23 22 21 17 15 17 22
45 47 45 46 48 43 40 39 32 29 32 33 31 27 28 28 26 24 23 23 24 22 21 19 19 19 20 22 23 25 26 28 32 38 39 39 35 34 33 33 34 33 33
48 53 51 51 55 49 43 41 33 30 33 36 31 32 33 31 31 28 26 23 23 25 27 27 28 29 31 32 34 35 37 37 38 41 41 41 42 39 36 37 36 37 39
52 56 54 51 53 48 45 42 36 32 31 36 35 35 36 37 39 34 30 28 26 25 24 26 28 30 32 34 36 36 35 34 35 39 39 40 37 32 31 34 34 37 38
52 52 47 54 50 47 44 43 40 35 32 34 35 38 41 43 39 37 35 33 30 31 32 33 34 37 39 41 41 38 37 36 38 40 38 38 35 31 29 28 31 32 31
54 49 47 46 46 46 44 45 45 39 35 37 37 39 43 45 47 43 39 36 33 36 37 37 38 39 40 39 38 38 38 37 35 34 33 33 30 28 28 28 28 29 29
54 53 48 48 48 47 47 46 46 44 40 39 38 39 43 45 47 46 43 38 37 38 39 40 40 41 41 39 39 39 36 34 31 31 31 30 29 30 32 30 29 31 28
54 54 52 50 50 49 47 47 48 47 48 43 42 40 42 47 49 47 47 45 44 42 41 42 42 41 41 40 41 39 33 30 29 29 30 30 29 30 30 26 25 24 22
56 55 55 55 53 50 49 49 48 46 52 51 45 44 43 46 49 52 49 49 51 49 48 46 44 44 44 44 42 34 31 29 28 27 29 28 26 27 25 22 22 21 18
51 53 55 55 55 52 52 51 51 49 50 54 54 55 48 50 47 47 49 54 56 57 53 51 47 47 46 43 34 33 30 28 28 26 24 24 23 23 23 21 19 16 17
48 48 47 53 56 53 51 52 53 54 53 55 61 66 56 51 51 51 56 61 59 59 58 55 52 50 46 37 34 31 29 27 27 25 23 22 22 22 21 20 17 17 17
41 44 44 48 53 53 52 53 54 57 58 59 60 58 57 59 60 59 59 57 60 64 61 59 57 52 41 36 33 30 28 26 23 22 21 19 20 21 21 19 18 16 16
37 43 43 44 47 49 53 54 58 60 60 59 61 62 61 65 59 57 58 59 58 65 66 63 61 50 41 36 33 30 27 24 22 21 19 18 21 22 21 20 18 16 17
35 37 43 42 44 45 48 53 56 57 59 58 62 61 60 57 57 56 58 59 59 59 65 67 61 49 45 38 33 31 28 26 23 23 22 23 24 25 24 24 23 20 19
33 36 37 38 38 40 47 50 53 57 57 54 59 57 56 55 56 55 55 56 57 57 59 65 54 52 47 42 38 34 32 30 28 26 25 25 25 25 25 24 23 22 21
27 33 38 40 39 36 40 47 52 57 58 57 57 56 54 57 55 54 55 53 53 57 58 48 50 54 51 48 46 42 39 36 34 32 30 29 28 26 26 24 24 23 22
22 28 32 36 35 36 42 44 47 53 56 60 60 55 54 58 61 63 66 66 55 57 54 44 47 52 54 53 49 46 44 43 42 37 34 31 29 28 26 26 26 25 24
23 23 28 33 34 34 37 42 45 50 54 58 60 59 59 63 63 64 69 75 65 60 54 45 48 51 54 53 51 49 47 46 44 42 39 37 34 31 29 28 27 26 25
27 24 25 30 34 35 35 41 47 48 46 52 54 59 63 66 66 67 69 72 71 66 57 47 48 51 54 52 52 51 48 47 45 42 41 39 37 34 32 30 28 28 26
23 27 28 30 31 35 37 39 42 44 42 43 47 53 60 67 71 70 70 75 76 66 63 54 55 55 54 52 53 52 50 47 45 44 43 41 36 33 32 32 32 29 28
22 24 26 30 34 35 37 36 41 43 45 43 46 50 58 65 71 72 75 77 75 73 69 59 57 57 56 56 56 53 51 49 47 45 43 40 38 35 33 32 29 28 27
22 23 25 29 33 38 42 40 41 42 42 44 47 48 53 63 70 75 78 76 77 77 68 59 57 56 57 58 57 55 53 49 47 45 42 40 37 35 32 30 28 27 27

GFSSE_prec_cthk_033.txt.gz
RH
42 36 31 27 29 29 30 29 26 26 27 29 31 33 33 31 27 23 20 17 19 19 21 26 27 33 39 31 27 25 23 23 27 26 27 24 22 17 14 14 14 16 20
41 39 31 28 29 31 32 30 28 25 24 25 29 29 30 31 29 22 13 13 17 16 23 32 37 40 36 29 26 22 20 17 14 15 16 17 16 16 14 15 15 16 17
44 42 35 32 29 28 29 30 29 26 22 22 24 27 29 31 29 22 14 13 15 15 21 26 27 29 26 22 25 18 13 13 16 18 19 17 17 19 15 14 15 20 18
44 43 38 36 32 29 30 30 30 27 24 29 29 29 27 26 25 19 18 15 14 14 16 22 23 21 22 19 14 12 14 17 20 21 22 21 20 21 19 15 15 16 19
43 40 37 36 36 35 36 32 30 30 32 30 28 26 25 21 19 18 19 19 17 15 14 15 18 16 13 13 15 16 18 22 24 25 26 27 25 25 24 23 20 20 24
41 38 38 39 40 41 42 34 31 33 32 31 27 25 25 24 23 21 19 19 20 20 20 19 18 18 18 19 22 24 27 30 32 36 37 39 37 37 37 36 37 37 40
38 38 41 43 44 45 43 39 32 33 33 30 27 29 30 28 27 25 22 21 21 21 23 26 27 29 31 33 33 34 35 36 36 38 38 38 38 33 31 35 36 35 38
42 45 45 47 47 45 44 40 34 32 33 32 28 31 32 34 33 28 27 25 25 25 24 25 27 28 30 32 35 34 33 35 38 40 39 39 34 33 31 31 33 35 35
46 48 49 46 44 45 44 40 34 35 34 34 32 32 35 37 37 34 31 29 29 30 31 31 32 34 35 37 37 36 36 38 37 37 36 34 35 30 27 28 31 31 29
49 50 49 47 44 43 41 39 38 38 37 36 37 37 37 39 39 40 37 34 33 33 34 35 36 37 36 36 37 38 38 37 35 34 34 32 31 28 29 28 30 33 31
49 51 47 45 44 44 43 41 40 39 38 39 41 42 40 41 44 45 44 40 39 39 37 37 38 38 38 39 38 39 37 34 32 32 31 30 30 32 30 29 31 31 29
44 47 49 49 44 45 46 44 40 39 41 39 45 46 44 44 43 45 47 44 45 46 46 43 41 39 40 40 40 40 34 31 30 30 29 28 30 34 29 27 26 25 23
50 47 48 51 52 49 47 47 43 41 41 42 43 49 48 48 46 44 42 41 48 50 51 50 48 47 45 43 41 35 32 30 30 29 27 26 24 26 26 24 25 22 21
44 47 46 48 51 50 50 47 45 44 44 44 44 44 49 52 58 50 51 46 46 49 52 53 53 53 50 45 38 35 33 30 30 27 26 24 24 22 22 22 22 22 21
40 42 46 45 46 46 49 49 48 47 48 47 46 46 46 52 61 53 52 52 50 51 52 54 55 54 53 44 38 35 32 30 28 26 24 23 22 21 20 21 22 22 20
39 40 41 44 44 41 41 44 45 46 49 50 51 53 51 53 52 53 57 58 53 53 52 52 54 56 53 43 40 36 31 28 27 25 24 23 22 20 20 20 22 21 19
35 37 39 40 42 39 38 41 43 43 48 51 52 55 54 51 53 56 55 54 54 52 53 53 53 55 47 44 42 39 33 29 28 27 26 24 23 22 21 23 23 24 23
30 34 38 39 38 39 38 39 41 44 45 49 52 55 54 54 53 53 54 55 52 52 53 53 53 49 43 45 44 42 38 35 32 30 29 28 26 25 25 25 25 24 24
30 30 34 38 38 36 37 39 42 45 47 50 53 54 54 52 52 51 53 54 51 51 51 50 51 41 40 41 44 46 45 43 39 37 35 33 32 30 28 27 26 25 24
19 28 31 37 34 35 37 39 43 54 52 51 52 54 53 54 55 55 57 56 57 59 61 57 47 40 41 41 44 47 47 46 44 42 41 39 38 37 34 31 28 27 26
19 20 28 32 36 37 39 41 42 46 48 50 54 52 52 55 57 58 58 59 60 65 67 66 48 43 44 45 46 47 48 48 47 45 43 43 42 40 37 35 33 32 30
28 24 23 31 35 36 37 38 39 48 51 57 61 62 56 57 60 63 62 62 62 63 65 65 54 48 46 47 48 47 49 49 46 45 44 43 42 41 38 36 36 33 31
26 30 29 26 32 37 41 39 39 46 53 62 64 61 56 55 58 61 65 68 68 67 67 66 61 56 51 52 54 54 53 50 46 44 42 42 42 42 40 38 35 31 28
22 26 29 32 32 36 39 40 38 38 39 43 47 52 57 59 60 64 65 70 72 71 72 68 63 63 56 56 57 57 57 54 50 46 44 43 43 41 39 37 34 32 30
20 21 23 26 30 34 41 39 40 42 43 45 48 52 58 60 63 65 67 72 72 75 75 69 65 69 60 57 58 57 55 53 51 50 48 47 47 47 44 39 35 32 29
19 20 23 23 24 27 33 38 41 40 42 42 49 54 58 59 60 65 70 75 76 79 78 72 71 71 66 59 56 58 59 57 54 51 51 51 50 50 45 40 35 30 27

GFSSE_prec_cthk_036.txt.gz
RH
44 40 36 32 29 28 29 29 27 27 26 26 26 27 27 27 27 23 19 18 17 17 21 20 24 40 36 28 26 23 23 29 31 27 25 25 23 19 14 13 14 15 18
43 41 37 34 30 29 30 32 31 30 29 25 26 26 25 26 25 21 14 18 16 21 25 35 38 38 32 25 23 20 19 16 15 14 14 15 15 14 14 14 15 16 16
44 42 40 37 32 30 29 30 29 27 27 27 26 25 24 25 23 16 16 19 19 21 25 26 28 27 24 19 20 14 12 12 14 15 15 16 17 17 15 14 16 21 18
42 42 39 38 34 33 32 31 28 27 25 24 25 26 25 23 18 16 17 19 19 22 25 23 23 21 20 18 13 13 14 16 18 18 18 18 18 19 18 15 15 16 19
41 39 37 36 34 35 35 35 32 28 30 32 30 28 24 21 17 16 16 17 18 20 23 23 22 20 15 13 15 17 20 22 24 25 24 25 26 27 27 27 27 27 30
41 38 37 36 35 38 39 37 37 32 32 32 27 25 23 22 20 19 17 16 16 18 19 20 19 18 18 19 22 24 28 30 31 31 36 35 35 38 36 37 37 39 45
40 40 37 37 39 41 40 38 37 36 33 30 26 25 26 26 24 22 22 21 20 19 19 22 25 28 31 32 34 34 34 33 32 32 33 37 35 33 35 35 36 36 35
41 42 39 39 41 44 45 39 39 37 34 32 31 30 30 30 28 27 27 26 26 25 26 27 27 28 29 32 32 31 32 33 34 34 35 34 34 33 30 33 36 37 38
44 42 42 42 44 44 43 39 38 36 35 35 34 35 34 36 32 31 32 31 30 30 32 33 34 34 34 34 33 34 35 36 36 37 36 36 36 32 30 30 32 31 31
48 50 50 49 45 45 42 41 39 37 36 37 38 38 40 38 37 36 36 36 36 36 35 36 37 37 36 36 36 35 36 36 36 35 35 35 34 32 30 30 34 35 35
47 53 54 53 51 47 44 43 42 39 37 38 40 41 43 43 41 40 40 40 43 43 42 42 40 39 38 37 38 37 36 34 33 33 33 32 32 33 32 34 33 32 31
43 49 53 53 51 47 46 44 44 41 38 37 41 41 46 49 46 45 40 38 42 47 47 48 47 46 44 42 41 40 37 32 32 32 31 31 32 31 27 30 29 25 24
43 46 50 52 50 48 48 47 46 44 40 39 40 43 45 50 50 48 45 43 45 44 45 48 50 50 51 49 47 41 35 33 32 31 31 29 28 28 26 25 24 23 23
41 41 46 49 49 51 51 50 49 46 42 40 41 43 45 46 48 49 54 50 45 47 46 47 47 49 51 51 48 41 37 34 32 31 30 28 27 25 24 23 23 22 22
36 37 39 45 46 49 52 52 50 47 43 43 42 43 46 47 47 48 54 56 50 53 52 49 49 48 51 51 44 39 39 35 31 28 27 26 25 25 24 23 21 21 22
39 36 38 39 39 42 44 49 52 50 45 44 42 42 44 47 49 50 54 53 54 55 53 50 50 51 50 47 42 40 38 36 33 30 28 27 27 27 25 24 23 20 20
36 42 40 37 37 35 36 39 40 43 44 43 44 45 48 48 49 51 51 52 55 54 53 51 50 50 51 41 37 39 38 39 37 35 33 30 30 29 28 26 25 25 25
30 31 38 40 36 34 33 35 36 39 41 41 47 47 48 51 53 54 52 52 53 54 52 51 49 49 47 36 35 36 36 40 43 42 40 38 36 34 33 32 31 29 27
28 30 31 35 41 35 37 40 39 39 39 39 44 46 51 52 53 52 52 52 52 53 53 53 56 57 52 39 37 36 37 37 39 42 43 43 42 41 39 38 36 35 34
28 31 33 36 34 43 46 45 46 44 43 40 48 49 51 50 52 56 57 57 55 57 57 60 62 63 51 46 43 41 40 40 41 43 44 44 44 44 42 41 40 38 36
21 24 30 32 34 35 47 49 51 54 54 46 44 51 48 50 53 58 57 59 61 63 63 62 62 60 50 49 47 46 43 43 43 44 45 46 43 41 40 40 38 37 36
25 22 21 21 29 32 35 44 47 42 47 50 56 57 53 58 61 61 60 60 64 67 67 67 66 60 55 53 52 51 49 48 49 50 50 48 46 44 43 41 39 37 35
25 26 27 25 23 30 35 37 45 58 54 54 54 57 64 67 69 67 68 65 65 64 68 71 69 63 60 58 56 55 53 52 53 53 52 48 46 45 43 40 39 38 36
19 24 26 28 28 29 33 37 38 48 57 55 50 49 60 66 70 66 65 67 69 68 68 71 69 66 64 60 62 59 58 57 57 53 52 50 50 48 46 46 44 41 39
18 19 23 26 27 29 31 32 37 41 43 47 50 49 50 60 68 73 74 73 71 71 73 76 73 72 69 66 65 65 61 59 58 56 56 55 53 53 52 49 46 44 39
17 18 19 21 25 28 30 32 32 35 40 49 51 51 49 57 63 68 70 73 74 73 75 80 77 76 71 69 68 68 64 60 60 59 58 57 58 59 58 55 51 46 39

GFSSE_prec_cthk_039.txt.gz
RH
45 44 42 38 34 31 31 30 31 30 29 28 28 27 27 27 26 24 20 19 18 16 17 16 33 38 26 26 24 24 28 29 32 31 31 29 24 22 16 13 13 14 16
43 43 42 44 41 31 29 30 30 31 30 27 28 26 24 25 24 20 16 19 19 19 25 32 39 33 26 22 23 21 20 20 23 24 19 17 15 14 13 14 15 16 16
43 41 40 41 42 38 36 34 33 31 31 30 29 27 24 23 22 15 20 21 23 30 37 38 37 25 22 18 19 14 13 13 14 14 14 15 16 15 14 14 16 23 19
43 41 39 40 39 38 37 36 34 31 30 31 28 25 24 23 17 15 19 25 26 28 27 26 23 21 19 18 13 12 14 17 17 18 18 18 18 19 19 18 18 20 24
43 41 37 38 37 36 37 37 35 33 29 27 27 28 26 22 17 16 16 23 25 27 26 24 23 20 18 13 15 17 19 19 19 21 24 24 26 26 27 27 29 31 35
43 41 38 36 36 35 34 36 37 35 34 34 30 27 23 21 21 18 17 16 19 24 27 28 26 20 21 21 23 25 28 31 33 33 32 32 34 36 38 36 37 40 40
40 41 39 36 35 36 36 38 37 38 39 35 29 27 25 25 24 23 21 20 19 19 18 19 21 25 28 30 31 32 32 32 31 32 32 32 33 32 34 34 34 37 38
39 40 40 37 37 37 38 38 40 38 40 33 30 29 27 27 27 27 27 26 25 25 25 27 29 29 31 32 32 32 32 33 34 34 34 33 33 33 32 33 35 35 37
40 40 39 40 40 40 40 39 40 37 37 35 34 33 33 30 30 30 30 31 32 32 32 33 34 36 36 35 33 33 34 36 36 36 36 36 35 34 32 31 30 29 28
39 43 40 40 41 43 43 41 40 40 40 37 37 37 37 38 34 33 34 36 38 39 39 40 39 37 37 37 37 37 37 37 36 35 35 35 35 33 32 34 34 33 28
40 44 47 48 47 46 46 44 42 41 42 39 37 40 40 42 43 39 37 36 39 42 44 46 45 44 42 41 40 39 38 37 36 34 34 34 35 34 35 35 32 31 29
35 41 49 54 57 56 49 46 44 41 42 42 41 41 42 43 46 47 43 41 41 43 42 45 48 48 48 47 48 46 42 36 34 33 33 33 36 32 34 31 29 27 24
38 41 45 53 57 54 50 47 45 43 43 43 42 42 43 44 45 47 46 45 48 48 47 46 45 45 47 49 50 49 43 39 36 34 33 34 32 30 32 28 25 25 24
34 38 42 46 49 49 50 48 48 46 45 43 42 42 44 47 48 47 46 45 48 54 53 51 51 47 47 47 48 44 41 39 37 34 31 29 28 28 27 26 25 24 23
33 34 38 42 43 46 48 50 49 48 47 45 43 41 45 46 48 48 49 49 48 52 55 54 53 49 47 47 46 39 39 39 37 33 31 29 28 27 26 26 26 25 24
35 35 36 38 40 44 46 48 50 52 51 48 44 41 42 44 46 48 53 54 50 53 55 55 52 50 48 47 44 37 34 34 35 34 33 33 33 31 29 29 29 28 26
36 36 36 38 40 40 41 43 46 51 52 47 43 41 40 41 43 48 58 58 54 55 57 54 53 53 50 47 40 35 32 31 30 32 35 38 38 37 36 35 33 32 31
39 39 37 37 40 41 41 42 43 47 49 45 43 41 39 40 44 51 55 57 56 59 58 57 54 53 51 52 46 42 37 34 33 33 32 34 37 39 40 39 39 38 37
31 33 33 31 34 37 40 42 45 49 50 46 44 42 41 43 48 51 55 56 55 57 58 57 56 56 59 60 49 46 42 40 38 35 35 37 39 41 41 41 40 39 38
28 31 34 34 32 32 36 42 47 47 52 49 48 44 41 46 49 56 54 53 57 62 62 61 60 61 61 58 48 46 44 44 42 41 40 41 42 43 44 43 40 37 35
25 26 27 32 35 34 32 37 44 49 52 52 53 49 45 48 58 62 62 57 58 60 64 65 64 65 64 57 50 48 48 47 46 45 46 46 47 49 47 46 43 40 38
21 20 19 22 31 37 35 33 35 43 48 52 59 60 54 48 54 64 62 63 63 61 64 66 66 68 68 59 54 53 51 50 50 50 51 50 51 50 47 44 43 42 40
25 26 25 24 23 28 35 37 34 36 44 51 53 51 52 53 63 67 66 70 75 73 69 68 67 65 67 60 56 53 52 53 53 52 53 54 54 51 49 48 46 45 46
16 21 25 29 30 29 28 28 29 33 37 41 45 53 58 59 61 64 71 81 82 79 75 75 77 74 71 65 60 59 58 58 55 55 55 55 55 55 53 51 50 50 49
17 17 17 23 27 29 30 31 30 30 36 41 46 47 61 66 65 64 64 76 79 80 84 86 86 84 77 72 69 65 61 62 61 60 57 56 58 58 56 55 54 53 51
19 18 18 19 20 24 29 31 33 36 45 47 51 56 53 53 56 59 60 65 71 80 84 85 86 85 81 78 73 69 65 67 65 68 62 59 59 59 59 58 57 56 53

GFSSE_prec_cthk_042.txt.gz
RH
38 43 44 42 38 34 30 30 31 31 31 29 29 29 29 28 27 24 23 22 19 16 17 25 39 31 24 22 23 29 30 35 36 34 33 30 27 22 18 14 15 15 16
38 44 45 43 40 40 34 32 32 30 30 28 26 26 26 24 24 21 18 19 18 23 28 40 40 33 23 21 22 20 22 25 25 27 25 20 17 13 13 14 16 16 15
42 42 45 44 42 44 42 38 35 34 30 29 31 29 24 22 20 14 22 27 32 37 40 43 36 22 19 16 18 15 16 16 16 16 15 15 15 14 14 14 18 20 20
43 41 42 43 43 46 43 41 40 38 36 31 31 31 24 23 17 17 22 26 33 36 35 35 29 20 18 15 12 12 13 15 16 17 17 18 18 20 21 21 22 24 26
43 42 41 41 40 44 43 37 37 40 37 34 33 30 27 23 19 17 21 21 27 29 31 29 23 21 17 14 14 15 17 18 19 21 22 25 29 32 31 33 35 36 37
40 39 38 38 38 38 36 33 36 39 39 36 32 29 26 22 21 20 20 19 21 24 24 26 27 22 23 24 26 28 30 32 33 34 32 30 31 36 40 36 37 40 42
38 38 37 37 35 37 36 34 34 36 34 36 33 28 24 24 24 23 23 22 25 26 25 23 20 21 25 27 30 31 32 33 33 32 31 32 35 35 35 37 36 37 36
36 37 37 36 35 36 36 35 36 37 40 37 33 29 28 26 27 27 26 26 26 25 25 26 29 31 32 32 33 33 34 35 35 35 35 34 38 34 33 34 36 37 36
32 34 37 35 36 37 38 36 38 37 38 36 33 32 31 31 30 30 32 32 32 32 33 34 34 34 36 36 36 36 36 37 38 37 36 37 41 34 34 32 31 31 31
31 35 37 37 36 38 39 39 39 41 40 36 34 34 35 34 35 35 34 33 35 38 39 41 42 40 38 38 38 38 38 38 37 36 36 36 36 34 35 36 35 33 31
33 34 38 38 38 38 40 41 42 44 42 40 39 37 39 40 38 40 41 38 38 38 39 42 44 45 45 44 43 42 41 39 36 35 34 36 35 36 35 33 32 31 28
34 37 39 41 42 45 46 48 47 45 42 43 42 41 40 41 41 40 43 43 45 45 46 47 44 42 44 47 49 49 48 42 39 36 34 35 34 34 33 29 29 28 25
37 37 38 43 50 52 55 56 50 46 43 43 44 44 42 45 45 44 43 42 43 46 51 52 49 48 48 46 46 45 43 39 38 37 36 36 32 32 31 27 26 24 24
34 37 41 43 48 53 56 55 51 46 44 44 45 45 46 45 47 48 48 45 45 46 49 53 56 54 51 49 46 45 39 35 35 34 33 31 30 29 28 26 26 25 24
33 32 36 42 44 47 52 52 50 49 48 48 46 45 46 45 47 48 50 49 48 47 48 52 53 52 51 49 47 43 37 34 31 30 30 30 30 31 31 30 28 27 27
33 32 36 38 41 43 46 49 51 51 52 51 48 46 47 47 46 45 47 49 51 48 50 52 55 54 51 50 49 45 36 33 29 28 27 27 29 32 34 35 34 32 32
32 34 36 38 40 41 44 46 49 51 53 54 53 51 46 43 43 44 46 49 53 52 53 55 56 56 53 51 50 44 39 38 35 32 30 30 29 30 32 35 37 37 36
29 33 37 39 41 39 40 43 46 49 54 48 50 55 51 44 41 43 45 50 55 55 57 59 59 56 54 53 52 51 46 43 40 37 35 34 33 32 34 37 38 38 38
27 30 36 37 38 39 38 40 43 48 51 47 48 50 52 50 44 43 46 52 56 57 57 58 59 58 56 57 57 53 46 44 41 40 38 38 38 38 39 39 39 39 39
27 28 30 32 33 33 32 35 40 46 50 50 49 51 53 52 48 46 47 53 57 55 53 57 60 62 60 61 60 52 47 46 44 43 42 41 40 41 43 44 44 43 42
23 26 28 30 30 32 30 30 30 33 37 43 46 53 56 55 51 51 52 58 61 59 58 59 60 62 62 64 63 54 49 49 48 46 43 43 43 45 47 47 47 44 42
20 21 23 26 30 32 31 31 30 31 33 38 48 55 58 59 59 58 58 64 73 69 67 65 66 64 64 64 64 56 50 50 49 46 45 45 46 46 47 48 48 47 47
21 22 23 23 25 28 30 30 30 31 31 33 38 50 54 58 65 69 66 63 67 72 70 73 77 78 71 70 69 62 53 51 51 50 51 50 49 50 49 49 49 49 49
19 19 21 25 26 28 29 26 25 28 30 33 36 40 44 51 58 67 68 69 75 80 79 81 86 86 89 84 81 74 65 59 57 57 56 54 54 55 53 51 52 52 51
18 19 18 19 19 26 30 31 31 29 28 30 35 36 40 44 51 62 68 76 76 77 77 81 85 85 88 90 92 88 78 71 66 62 59 60 60 62 61 57 56 55 54
19 20 19 19 20 20 23 26 30 32 34 34 34 35 37 45 48 53 63 74 79 78 75 79 82 85 86 89 91 89 82 79 74 67 64 64 68 66 63 62 60 57 56

GFSSE_prec_cthk_045.txt.gz
RH
33 38 43 41 37 34 30 28 27 28 30 32 32 32 32 32 30 26 23 22 19 17 20 38 34 27 20 21 29 28 36 35 38 36 30 29 25 21 16 13 14 14 14
33 41 45 42 39 36 36 32 32 31 29 29 29 29 29 27 24 21 18 18 22 26 35 46 38 28 19 21 22 26 27 29 29 26 25 24 18 13 13 14 14 14 14
38 40 45 43 40 39 39 37 35 35 32 30 29 26 26 24 20 14 21 25 30 38 49 48 36 25 16 17 20 18 20 20 20 19 19 15 14 14 14 15 20 22 20
40 39 41 42 43 42 42 38 36 37 35 33 32 27 24 23 17 21 25 33 40 42 44 39 29 20 17 12 12 12 14 15 15 15 16 17 17 19 21 23 27 30 30
41 39 38 42 42 42 41 39 36 38 36 35 32 26 26 22 20 24 26 30 34 34 35 34 26 20 16 14 14 15 16 17 18 19 21 25 29 33 35 36 38 38 37
40 38 39 40 42 43 42 40 35 37 36 34 30 27 24 21 21 24 26 28 31 33 29 24 23 22 23 25 27 29 30 30 31 31 30 30 32 45 39 39 43 47 46
39 37 37 36 38 37 37 39 34 37 36 33 32 28 23 22 22 23 24 26 28 27 27 27 23 22 23 26 29 30 30 31 31 30 30 31 36 37 38 39 39 39 38
39 39 38 38 37 34 37 36 34 35 31 32 32 28 26 26 25 25 26 29 31 31 29 27 28 30 32 33 33 32 33 33 33 33 33 34 42 35 37 35 36 37 36
34 38 39 36 36 36 36 35 35 36 37 35 33 29 29 29 29 28 27 29 31 32 33 35 36 36 35 34 34 33 34 35 36 35 35 35 40 34 36 32 32 31 31
33 35 36 36 37 37 37 37 37 37 43 38 33 31 32 32 32 34 33 33 30 32 36 39 42 43 42 41 40 39 38 37 36 35 35 34 37 35 36 35 33 31 29
34 33 35 35 37 37 38 39 39 40 42 42 38 37 35 34 35 35 38 39 39 39 40 41 41 40 41 44 45 45 44 42 39 37 36 35 35 36 36 33 31 29 27
36 35 35 39 37 38 39 41 41 43 45 46 42 41 40 39 37 38 38 40 40 42 44 48 46 44 43 42 41 41 42 40 38 38 37 36 35 35 31 29 29 29 26
34 36 36 38 40 40 43 45 47 50 49 47 44 42 44 45 43 41 40 40 41 42 44 47 49 51 49 47 47 44 41 36 33 33 34 32 31 33 28 25 24 24 24
34 34 38 40 40 45 51 51 55 56 53 48 46 45 44 45 46 44 43 43 42 43 44 46 48 50 52 53 49 46 40 35 32 31 29 29 29 29 28 27 27 26 25
33 34 36 40 42 45 52 56 55 56 56 50 48 45 45 45 45 47 46 45 45 44 44 47 49 51 53 51 49 47 41 35 31 28 27 26 25 27 28 30 30 31 30
32 32 33 33 35 43 46 47 51 55 56 53 50 48 46 45 45 46 47 46 46 45 45 48 52 53 52 52 50 49 44 35 33 32 29 28 28 28 29 28 30 33 34
33 33 35 33 34 34 38 42 47 51 54 55 54 53 51 48 47 47 46 45 45 47 46 49 53 54 54 53 51 49 46 40 39 38 35 33 32 31 30 30 30 32 34
29 28 30 32 31 33 34 38 44 50 55 50 51 54 54 53 51 51 46 42 44 47 48 51 54 56 55 54 53 51 50 44 42 39 37 36 33 33 34 34 34 36 36
25 24 24 27 31 33 33 37 44 47 51 52 49 49 56 54 53 54 53 46 44 45 50 54 55 56 56 57 56 56 54 46 42 41 39 38 37 37 35 35 36 38 40
23 24 24 24 27 33 35 36 39 44 46 47 45 48 51 53 53 56 58 52 47 46 49 53 56 56 58 58 58 61 59 48 44 42 41 40 39 38 37 38 39 41 42
21 22 22 23 24 27 32 35 34 32 34 40 42 46 50 52 53 60 60 59 53 51 51 55 57 60 63 62 62 62 61 53 48 46 44 41 40 38 40 42 41 41 43
17 19 20 22 23 25 27 29 31 32 32 34 39 41 46 46 47 54 61 65 63 61 59 61 62 67 70 70 68 67 62 57 51 49 45 43 42 42 43 44 45 46 45
17 18 18 19 20 21 22 25 27 29 31 33 34 35 36 40 44 51 59 64 68 71 69 66 68 71 74 77 81 79 70 65 60 56 52 50 48 48 48 47 48 50 50
18 18 19 19 20 22 24 25 24 24 26 26 30 36 39 40 45 50 57 62 67 72 78 77 71 74 82 82 86 87 88 85 81 70 66 62 58 55 54 52 53 53 53
20 20 19 19 19 20 21 26 29 30 30 30 29 29 34 36 41 45 54 59 60 67 76 77 80 81 85 87 85 88 86 85 87 83 77 75 71 67 63 60 57 60 60
20 21 20 20 20 19 19 20 24 29 33 33 34 36 37 36 39 42 51 55 60 64 70 75 78 84 86 89 91 89 89 88 86 82 78 79 79 75 69 70 68 66 64

GFSSE_prec_cthk_048.txt.gz
RH
30 32 39 41 38 34 31 31 31 32 29 28 30 30 29 30 29 27 22 19 18 18 32 34 27 20 23 27 31 35 35 34 37 34 34 28 25 21 14 12 15 20 16
33 38 41 43 41 37 36 34 33 31 30 30 30 29 29 27 23 21 17 19 22 30 40 38 33 23 17 20 26 27 29 31 33 32 28 23 19 12 13 14 14 14 15
40 44 43 45 39 39 38 35 33 34 32 30 28 28 27 25 21 14 18 28 33 39 45 40 31 20 13 18 20 21 24 25 24 22 19 22 14 14 15 16 19 20 19
44 44 44 42 40 41 40 37 34 33 33 32 30 25 25 23 17 23 29 35 41 44 45 37 28 19 14 12 12 15 16 16 16 15 21 22 22 18 21 28 31 32 29
46 46 45 42 41 41 41 39 34 32 34 32 31 23 24 20 21 29 34 34 36 39 38 34 26 18 15 14 15 16 16 17 17 21 25 27 31 36 37 36 40 40 42
47 46 41 42 43 42 42 41 37 33 32 33 28 22 22 19 22 27 31 33 36 35 33 29 21 19 21 24 26 29 29 30 30 33 33 32 41 46 37 42 50 48 47
47 46 40 42 44 43 43 42 41 38 35 33 29 25 22 21 21 23 28 30 34 33 27 24 23 24 25 26 27 28 28 28 32 32 32 38 37 39 38 39 39 39 41
47 46 44 45 46 44 44 43 41 40 39 34 31 28 25 25 23 24 27 31 31 29 28 27 27 30 32 32 33 32 32 31 34 34 35 42 35 36 39 35 34 36 38
45 45 46 45 47 44 44 38 38 38 41 36 31 27 28 27 28 27 27 30 33 33 31 33 35 37 37 36 34 33 33 34 37 36 37 44 39 35 35 33 32 32 32
38 39 44 46 44 43 39 38 38 37 41 43 36 30 29 31 30 31 32 31 30 30 33 36 38 41 42 42 42 42 41 40 41 38 42 41 39 39 38 36 35 31 29
38 38 40 41 41 42 41 38 39 39 44 44 41 36 34 36 33 34 34 36 37 38 39 41 41 40 38 38 39 41 43 45 45 44 47 38 38 37 35 34 31 29 27
35 37 36 38 40 37 38 41 39 44 46 47 44 41 42 46 42 40 36 36 37 43 43 43 44 44 44 43 43 42 42 39 40 40 43 36 36 33 29 26 25 24 23
28 34 34 36 41 38 38 42 46 49 48 49 50 50 48 49 46 41 40 38 42 42 45 44 45 44 46 48 49 47 44 39 37 39 39 31 35 30 26 25 25 25 23
28 30 34 35 38 38 41 43 49 53 53 51 51 52 50 47 49 48 47 45 46 47 47 47 47 45 46 46 47 47 45 39 36 36 38 30 29 26 26 26 26 27 27
30 31 33 36 39 40 42 52 54 57 56 59 52 51 53 49 50 51 51 49 47 47 47 47 45 45 46 47 47 47 46 41 36 37 37 29 27 26 26 27 28 28 29
33 32 32 34 39 43 41 44 47 54 61 61 58 53 50 48 46 49 51 51 51 50 47 45 44 46 47 49 49 49 47 43 38 36 39 37 31 31 30 29 28 28 29
35 36 35 34 34 35 36 38 42 47 53 61 63 61 55 50 48 47 47 52 52 51 47 43 44 46 48 51 51 50 48 46 40 38 38 43 37 33 31 30 31 31 33
31 32 35 35 32 33 34 32 33 37 43 53 61 63 62 60 52 50 48 51 56 54 46 41 43 46 48 52 52 50 50 48 43 40 39 38 37 39 34 34 33 33 33
27 28 27 28 31 32 28 29 31 34 37 43 48 54 59 65 69 58 54 56 53 56 55 46 44 46 49 54 53 52 52 51 47 41 40 39 38 36 37 36 36 35 35
21 24 25 24 26 28 32 28 29 36 35 38 41 44 51 57 59 61 60 60 60 56 56 52 48 50 50 54 55 54 55 55 52 45 42 41 40 38 37 37 36 37 39
18 19 20 23 23 24 28 29 29 31 32 36 38 38 44 49 54 54 57 59 60 57 60 59 57 54 52 55 60 59 59 58 56 49 45 44 43 41 38 38 38 39 41
16 16 17 19 21 22 23 27 24 28 31 33 35 37 39 42 46 53 54 57 60 60 61 63 62 61 60 58 64 65 66 64 64 61 51 48 47 45 43 42 43 44 45
16 16 16 16 17 18 19 21 27 30 31 27 28 30 34 38 42 44 46 53 54 59 62 64 66 68 71 68 67 73 72 71 69 72 67 61 60 55 53 52 51 51 50
18 17 17 17 18 19 21 21 23 26 27 25 25 27 32 35 39 42 44 52 52 54 61 64 68 70 78 76 76 75 75 77 76 74 78 79 75 73 69 65 62 61 58
19 18 18 18 18 18 18 20 22 28 31 32 34 35 30 29 31 37 42 49 56 58 57 65 66 72 77 83 80 81 82 86 84 83 81 82 81 80 75 74 69 67 66
20 19 19 19 19 19 19 18 18 18 25 32 35 37 39 39 36 35 36 42 47 50 61 66 68 73 73 81 84 86 87 90 91 91 86 84 84 83 78 76 75 74 75

GFSSE_prec_cthk_051.txt.gz
RH
33 27 31 38 37 35 32 30 31 33 32 33 31 32 30 30 30 26 21 19 19 23 33 28 18 25 27 31 33 34 36 35 36 37 34 32 24 17 11 12 18 19 21
33 31 35 40 40 37 35 33 32 31 30 30 30 31 29 28 24 18 16 19 23 35 38 31 24 17 15 19 26 28 30 30 31 32 29 24 16 11 13 14 14 13 17
36 38 40 43 42 38 36 36 31 31 32 31 30 27 27 26 20 14 21 28 34 41 41 35 26 14 11 18 18 23 24 25 24 22 23 20 14 15 16 17 19 19 20
45 43 43 42 41 40 38 35 33 31 31 30 25 25 26 22 18 27 31 36 40 47 42 35 25 16 12 12 14 16 16 16 16 18 27 30 24 20 22 29 32 32 29
51 44 43 40 41 42 41 38 37 33 31 32 26 23 21 18 23 32 33 35 40 41 40 35 23 16 14 14 14 14 15 16 19 26 31 26 35 38 36 39 41 44 42
52 52 44 41 41 42 42 40 39 35 32 31 27 22 19 19 25 27 30 33 36 35 34 29 19 18 19 22 25 27 27 28 31 37 37 34 41 45 37 44 46 42 42
51 51 42 43 41 43 42 41 40 39 35 32 25 22 20 20 24 26 28 31 33 33 29 23 21 23 25 26 27 27 28 29 35 37 39 39 37 41 37 37 39 39 40
52 53 45 42 42 43 43 42 42 41 39 36 29 23 22 22 22 23 29 31 32 30 26 25 24 26 28 29 30 31 31 31 40 39 41 41 35 38 38 35 32 36 37
49 46 44 43 44 43 43 43 42 40 41 38 32 25 24 24 25 26 26 28 29 29 30 29 32 34 34 34 34 34 34 35 40 39 42 42 37 33 32 33 30 30 31
44 45 46 42 42 44 43 43 42 40 38 38 35 29 26 27 28 29 32 32 31 29 28 30 32 35 35 36 37 40 40 41 45 41 47 40 37 37 35 33 30 28 27
40 41 44 46 43 44 43 40 38 38 38 44 39 34 32 32 31 31 32 30 31 33 35 36 37 37 37 36 36 36 36 40 41 43 48 41 38 37 34 31 26 25 24
39 42 41 42 43 42 42 41 38 39 42 45 43 38 38 44 39 38 35 32 32 36 37 37 37 39 39 41 41 42 42 41 40 40 40 37 36 31 30 27 24 23 22
32 36 39 41 40 40 38 39 40 43 46 47 47 46 45 48 46 41 36 34 34 36 40 39 41 40 40 41 42 43 44 44 41 39 37 33 32 28 25 24 24 24 22
33 31 32 39 41 41 40 39 41 47 48 52 51 48 48 53 54 48 44 40 40 43 43 44 45 44 43 42 43 44 43 41 39 38 38 33 30 26 24 23 23 24 25
34 34 32 33 39 41 41 42 44 47 51 53 54 54 55 57 54 55 50 48 46 49 47 48 48 45 44 43 44 46 45 44 42 39 38 35 31 29 26 26 27 26 26
36 35 35 34 36 42 41 42 45 50 53 55 56 55 57 57 55 55 57 54 53 51 50 49 46 43 41 43 45 47 47 46 43 40 38 38 34 32 32 30 28 28 26
41 41 37 33 30 32 37 37 43 47 48 48 51 55 58 59 59 57 58 55 54 57 54 54 52 45 39 39 43 47 49 49 45 42 40 40 39 36 34 32 31 29 29
27 28 32 36 33 34 34 34 35 40 41 43 45 51 55 60 63 62 61 62 60 58 58 57 56 55 46 39 40 46 50 50 47 45 43 41 42 38 36 34 32 31 33
23 27 29 32 34 38 39 35 32 35 37 39 42 42 46 54 60 61 63 64 68 66 60 59 58 55 53 49 43 43 48 52 50 49 46 42 40 40 39 36 34 33 34
19 21 23 26 29 32 36 39 33 30 33 38 42 37 40 45 48 53 58 62 67 69 69 66 64 60 55 55 53 46 46 50 51 52 51 46 43 41 40 40 37 36 35
16 16 19 21 24 27 30 34 36 28 26 30 34 39 41 41 45 48 51 58 60 63 64 65 65 63 60 59 60 57 52 51 52 56 57 52 48 46 43 41 40 38 37
16 16 16 17 19 21 23 26 31 29 24 23 27 32 37 37 38 43 46 46 52 56 60 64 66 66 65 64 63 65 62 58 55 59 64 63 59 59 54 49 47 46 44
19 16 16 16 16 17 17 19 21 28 28 26 24 24 29 35 41 44 42 47 50 55 57 60 64 66 66 67 70 69 70 66 64 62 69 70 68 66 69 65 65 62 56
19 18 17 17 16 16 17 19 20 22 26 28 29 30 28 29 33 39 44 48 52 56 56 56 58 65 71 70 75 76 76 72 75 72 69 71 75 73 73 77 73 72 72
20 18 18 18 19 17 16 16 17 20 23 27 31 35 34 34 32 31 37 45 48 54 59 67 61 61 65 72 74 81 85 84 81 81 79 76 78 81 82 81 79 76 74
24 21 19 18 18 20 19 18 18 17 18 21 24 33 35 36 37 40 41 42 47 50 52 55 61 65 67 74 75 76 79 84 85 87 91 88 87 87 88 88 82 79 79

GFSSE_prec_cthk_057.txt.gz
RH
42 32 31 31 32 32 29 26 27 29 30 30 32 30 27 26 23 20 18 21 32 22 17 18 22 24 28 32 37 36 35 32 30 29 28 23 14 11 12 13 16 19 21
35 29 32 33 35 35 33 29 28 29 32 30 28 28 28 25 20 17 20 30 40 27 25 17 11 10 17 27 29 30 29 28 27 26 22 15 13 14 15 14 15 16 18
33 29 34 35 37 36 36 35 32 29 29 28 26 25 24 20 18 23 26 33 39 32 29 22 13 11 14 17 23 24 24 23 23 20 19 17 18 20 22 21 19 21 22
35 30 36 41 38 37 37 36 33 32 28 26 21 22 19 21 24 26 27 36 36 31 28 21 13 11 13 17 17 18 19 21 20 20 21 24 27 28 31 34 34 33 29
35 31 37 42 39 39 37 36 34 33 29 19 19 18 17 23 25 28 30 33 33 30 28 20 15 15 15 15 16 17 21 24 26 28 30 35 40 42 44 40 35 34 35
38 36 39 42 40 40 38 36 35 33 25 21 18 16 21 24 24 26 29 31 29 24 24 18 16 17 18 19 20 22 26 28 29 32 34 36 40 36 39 38 35 36 43
43 39 39 39 41 41 40 39 37 35 29 25 22 17 21 25 24 25 27 27 26 26 24 19 20 21 22 23 24 26 27 29 30 31 34 35 36 34 32 33 32 31 32
41 43 41 39 42 42 40 39 38 36 30 25 23 20 19 22 24 25 25 27 27 29 25 23 24 25 26 26 26 28 30 30 31 31 32 32 32 31 29 28 28 28 31
46 48 46 40 40 40 39 39 39 38 34 28 25 23 22 21 22 25 26 27 28 26 25 24 25 26 26 26 27 29 33 34 35 35 35 34 33 31 30 29 26 26 27
49 47 43 40 38 38 39 38 38 39 39 34 29 25 24 24 24 24 26 26 27 28 28 27 28 29 29 30 30 30 32 32 32 30 31 32 32 30 28 26 23 22 20
44 44 44 40 35 35 38 38 38 38 37 35 34 30 28 27 26 26 27 28 28 28 27 27 28 28 29 29 30 31 32 34 34 35 33 33 32 27 25 23 20 19 19
40 38 38 39 37 33 34 34 34 32 33 33 34 34 33 32 31 30 30 32 33 31 30 30 30 30 30 30 31 32 33 35 35 35 33 33 31 27 24 22 20 19 19
38 35 32 33 33 32 34 36 35 32 30 30 32 35 34 36 37 36 36 36 36 34 34 34 32 33 34 32 32 34 34 34 34 36 36 34 31 27 23 21 19 20 19
35 35 35 32 32 30 30 31 30 31 31 33 32 34 35 36 40 42 41 39 39 41 39 38 39 37 36 35 36 37 36 36 35 36 38 38 34 31 27 25 23 22 22
36 37 35 36 36 34 31 31 29 29 31 34 33 37 40 39 40 43 43 43 41 43 46 47 45 42 40 38 39 40 42 40 35 35 38 41 37 35 30 27 27 26 26
34 36 38 37 37 36 32 31 31 31 31 34 36 38 41 42 40 41 43 45 46 46 47 51 54 55 55 48 44 44 43 45 46 39 36 40 40 37 34 30 29 29 28
35 36 38 37 37 36 34 32 31 32 32 35 37 37 37 41 42 42 43 42 44 47 50 51 54 56 58 60 62 55 51 48 46 48 44 38 43 41 37 34 31 30 29
31 35 36 39 42 39 37 34 34 34 37 41 42 40 41 41 39 38 39 40 42 46 49 52 53 55 56 57 58 59 58 58 54 50 49 47 40 42 41 39 37 34 32
29 34 31 33 35 37 38 40 35 36 38 39 38 39 35 34 36 39 37 35 39 42 44 50 53 56 55 57 59 59 57 59 61 58 55 53 54 46 43 41 40 40 38
25 25 32 32 30 30 31 34 38 38 39 40 41 39 39 39 37 37 40 42 41 43 44 46 49 52 56 57 59 60 60 59 60 60 58 57 58 59 52 44 43 44 43
24 24 24 22 28 29 29 30 33 33 37 41 41 41 44 42 42 45 45 44 45 48 47 51 52 54 56 63 67 65 64 62 57 55 57 60 62 63 65 59 49 49 51
24 24 25 24 22 20 20 21 23 25 27 29 29 31 35 38 42 43 47 43 45 50 52 57 62 63 67 72 75 77 74 68 66 66 66 64 65 66 67 71 68 59 56
24 23 22 21 20 19 17 18 18 19 19 19 21 23 25 28 29 31 37 43 45 52 54 54 61 69 69 73 73 76 73 71 72 72 71 70 71 72 72 75 78 77 71
22 20 19 18 18 17 17 18 18 19 20 21 21 22 25 28 29 30 32 34 42 48 54 54 63 66 62 66 73 74 77 73 72 71 73 73 74 74 79 81 84 84 84
23 22 20 20 19 18 18 17 17 17 17 17 18 20 22 26 29 31 33 34 34 34 38 44 51 51 60 63 66 69 73 74 77 81 81 78 77 76 79 86 88 89 88
24 23 21 20 20 19 18 18 18 18 17 17 16 17 18 20 23 24 26 29 33 38 42 47 52 61 65 66 69 73 79 83 87 83 80 82 86 86 87 89 90 93 92

GFSSE_prec_cthk_060.txt.gz
RH
39 33 30 29 31 30 28 26 26 26 27 27 27 25 23 24 22 18 22 30 19 17 21 23 22 23 25 33 39 38 37 32 27 25 23 18 12 12 12 17 21 21 19
35 30 28 29 32 34 33 28 26 27 26 27 27 26 25 22 19 19 28 34 24 24 17 12 11 17 27 29 31 30 28 26 24 21 17 13 13 14 14 14 17 16 17
36 32 30 33 35 36 36 35 31 27 25 26 25 23 22 18 20 24 29 33 28 26 21 12 10 11 17 23 24 24 22 20 18 16 15 17 19 21 22 20 20 21 21
35 32 32 37 38 37 38 36 33 29 25 22 20 20 17 21 23 24 30 30 29 26 20 12 11 14 16 18 19 19 18 18 17 20 23 27 29 36 37 34 32 30 30
36 33 35 39 39 39 39 36 33 30 28 20 18 17 21 21 23 25 31 31 29 25 19 14 14 15 17 19 20 21 21 23 24 26 32 35 42 44 40 35 33 35 44
38 33 39 42 42 40 39 36 33 30 25 21 19 18 23 23 24 26 28 28 26 22 20 16 17 18 18 18 20 21 23 24 25 29 33 35 36 38 37 35 34 37 42
37 35 40 42 43 42 40 38 35 30 25 23 21 22 24 21 23 24 25 25 25 25 21 20 21 21 22 22 23 24 26 28 27 28 30 32 33 30 30 29 27 28 29
40 38 39 40 44 43 41 38 37 32 26 24 24 25 27 24 22 22 21 25 25 26 22 22 23 24 24 24 26 27 29 31 32 31 32 31 30 29 26 25 25 26 28
46 41 37 41 44 44 41 39 39 35 30 27 25 24 24 26 26 25 24 26 27 27 25 25 26 25 24 25 26 27 29 30 29 29 29 29 30 30 28 26 25 23 24
47 48 48 43 44 42 40 40 38 37 33 33 31 27 24 24 25 27 27 28 28 27 26 26 26 25 25 25 26 28 30 32 32 31 31 29 28 25 24 22 21 19 18
52 51 46 45 41 40 38 36 37 37 35 35 33 30 27 26 26 26 28 30 32 33 31 29 29 28 28 28 28 29 30 30 31 31 31 31 31 29 25 22 20 19 18
49 46 46 43 40 38 35 34 34 31 32 33 33 31 29 29 30 30 31 32 35 35 34 34 34 34 32 31 31 32 31 32 32 32 32 33 31 29 26 22 19 18 18
47 43 42 40 37 32 31 31 33 33 31 30 29 31 31 31 32 34 35 36 35 37 38 38 40 39 37 36 35 35 35 36 35 33 33 34 35 31 28 25 23 21 20
43 39 39 36 34 33 31 30 30 29 30 31 31 32 32 31 34 36 38 39 39 38 39 40 43 45 46 43 39 36 37 39 39 40 35 34 35 36 33 29 26 24 23
42 35 34 34 33 33 32 31 29 28 27 28 32 32 33 34 34 36 40 42 42 41 41 41 41 43 48 50 50 51 47 43 40 41 43 42 38 37 37 34 30 27 26
39 38 35 34 33 32 32 32 30 30 29 30 32 34 35 36 37 38 41 43 43 43 43 43 42 43 47 50 51 51 53 56 54 50 46 45 45 41 39 38 35 31 29
37 38 40 37 34 32 33 33 32 31 29 30 31 37 39 39 38 39 40 40 41 42 43 44 46 47 48 51 53 54 53 52 52 55 58 54 51 50 45 40 38 36 34
31 34 40 40 39 39 37 37 36 35 32 30 31 35 40 39 37 35 33 31 34 37 37 38 42 46 49 53 56 59 58 55 51 51 54 58 61 59 55 53 43 39 37
28 28 30 35 39 42 42 42 48 41 38 34 33 34 34 35 37 35 34 34 40 41 41 42 41 44 45 47 50 55 57 59 58 54 54 54 57 61 63 61 60 50 41
27 28 29 30 31 32 37 39 37 36 35 37 36 37 43 45 40 39 44 51 52 52 50 49 49 50 52 52 56 58 60 63 66 65 61 61 62 60 60 67 68 66 58
28 26 26 27 30 33 31 31 29 29 33 35 38 46 56 53 54 56 58 55 51 55 57 58 59 57 61 64 72 72 72 72 73 74 72 70 67 68 67 65 69 74 71
29 28 27 26 26 26 28 28 28 26 26 26 28 34 36 38 40 38 39 43 42 42 46 53 52 55 60 66 70 76 75 74 76 76 77 76 73 73 71 72 72 74 77
28 26 25 25 25 25 25 24 23 22 20 20 21 23 25 28 30 33 34 32 29 30 33 40 51 59 61 61 67 75 75 70 72 70 71 73 75 75 76 77 79 80 80
29 27 26 26 24 23 22 22 21 21 20 20 20 21 21 22 23 26 28 30 34 34 38 39 40 44 52 58 63 67 74 74 72 69 69 73 76 75 76 79 81 84 87
29 28 27 24 24 23 21 19 19 19 19 19 20 19 18 18 21 24 26 28 33 41 38 37 36 36 39 44 57 60 67 71 75 74 72 70 76 78 84 89 86 87 89
31 28 25 27 26 24 23 22 20 19 18 18 18 17 17 16 16 17 20 24 26 27 32 37 41 45 48 51 54 53 63 70 75 78 79 77 86 92 92 94 91 94 92

GFSSE_prec_cthk_063.txt.gz
RH
35 35 32 29 30 29 26 25 25 25 26 26 25 23 23 21 19 20 27 19 18 24 21 21 24 29 33 37 36 36 36 33 26 21 20 15 11 12 15 21 19 18 16
32 34 28 28 31 31 30 27 25 25 25 26 25 23 22 20 19 25 30 22 22 16 13 11 16 21 22 24 27 30 27 24 20 16 14 13 15 14 14 15 15 16 17
34 31 29 28 31 34 33 32 28 26 25 25 20 19 18 19 20 26 28 24 23 18 11 10 10 17 22 22 22 22 20 17 15 14 15 18 21 24 24 24 22 23 25
32 31 30 31 35 36 35 34 32 31 26 22 19 16 18 20 22 26 30 27 24 18 12 11 13 15 20 21 20 19 18 17 19 22 26 30 36 38 33 30 29 31 39
35 33 35 34 37 37 37 35 33 30 28 21 17 17 19 20 23 27 30 26 24 18 13 13 14 16 18 19 19 18 18 20 22 27 30 34 35 35 33 32 36 43 43
36 36 36 36 38 39 39 36 34 29 27 22 19 20 20 21 22 25 26 25 22 19 16 17 17 17 19 19 19 20 22 23 26 28 32 33 33 34 33 32 33 35 40
34 36 38 37 39 41 40 37 34 28 25 24 24 27 26 23 24 25 25 25 22 22 20 21 22 22 22 22 24 26 27 28 29 30 33 35 35 30 27 27 25 25 29
36 36 39 40 41 42 41 39 35 30 25 24 25 31 27 28 27 25 25 24 25 24 22 23 23 23 23 24 25 26 27 27 27 28 29 29 30 29 28 27 26 25 25
39 35 39 39 42 44 44 40 36 33 27 26 24 24 26 31 28 27 27 28 26 24 22 23 24 25 24 25 26 27 28 28 29 29 29 28 27 25 23 22 22 21 22
44 39 36 37 44 45 45 41 37 34 30 28 28 26 24 26 28 29 30 31 31 30 28 28 28 27 26 26 27 28 29 30 30 30 30 31 29 28 25 23 21 19 19
47 46 43 42 44 45 43 41 39 35 33 31 30 29 27 27 27 28 29 30 30 31 32 32 33 33 33 30 30 30 30 30 31 29 30 32 33 31 28 24 21 19 18
53 50 48 47 47 44 42 41 37 35 33 31 31 29 28 30 30 29 30 31 32 32 32 34 37 37 37 37 37 35 35 35 35 35 34 32 31 33 32 28 24 22 20
50 49 48 46 46 44 42 38 35 32 31 30 29 30 30 30 31 31 32 33 36 36 35 37 39 40 43 45 45 46 44 40 38 39 39 39 36 33 33 33 29 25 25
52 49 47 44 42 40 36 32 30 31 31 31 29 29 31 33 32 31 31 32 33 35 36 36 38 41 42 44 46 48 49 51 53 49 45 43 44 45 39 37 35 30 28
54 51 48 44 41 37 34 32 31 31 29 28 26 28 30 31 30 31 33 34 37 39 39 38 38 39 41 42 44 46 48 48 49 53 56 57 54 50 49 43 40 37 32
54 51 47 42 39 36 34 34 33 32 30 28 28 30 30 31 35 37 38 39 42 44 45 44 45 43 42 42 44 46 47 45 48 45 48 51 56 58 58 55 50 42 38
45 45 41 39 36 34 34 34 34 34 32 29 28 31 33 36 39 41 42 41 41 40 39 39 41 42 42 44 46 49 51 53 53 54 51 49 50 52 58 62 60 55 48
43 41 38 37 36 36 35 35 35 36 35 33 31 31 31 34 39 41 37 36 37 36 35 37 42 42 43 45 47 50 53 56 56 56 56 55 55 54 55 56 61 66 61
33 34 38 41 40 39 39 38 37 39 39 41 37 34 32 33 34 35 35 36 39 38 45 48 48 51 50 50 51 52 53 54 57 61 64 68 68 67 67 65 64 64 67
31 30 31 34 37 39 40 41 41 39 38 38 33 33 35 35 37 41 46 43 46 56 62 60 58 55 55 56 57 54 57 59 63 64 68 73 76 77 77 75 73 72 72
30 28 28 30 31 32 36 39 38 35 35 35 34 38 39 41 48 59 58 57 56 60 52 53 51 52 52 53 56 53 58 66 65 68 74 78 77 80 83 81 78 76 77
32 30 29 28 28 28 29 30 31 33 33 32 31 32 34 37 40 41 42 44 49 46 43 40 38 38 40 48 58 61 62 60 60 64 67 70 72 75 76 78 80 79 83
35 33 31 30 28 27 26 25 25 25 26 25 24 23 23 26 29 33 34 34 32 31 31 29 30 34 39 42 43 56 58 53 54 58 63 66 68 71 74 78 79 82 85
37 35 33 30 28 26 25 25 24 25 25 25 24 23 23 23 22 22 23 25 27 29 29 30 32 38 41 40 41 42 45 47 52 51 55 58 65 69 77 78 79 83 88
40 38 35 32 29 27 25 23 23 23 24 24 22 21 20 21 21 22 21 22 23 26 28 30 34 39 39 39 40 44 50 54 56 54 51 57 66 68 77 78 80 84 87
40 40 36 33 29 27 25 26 27 26 25 23 21 20 19 18 18 18 18 18 19 22 26 29 31 36 42 48 50 47 48 52 54 57 51 52 59 59 60 74 73 76 82

GFSSE_prec_cthk_069.txt.gz
RH
36 37 36 29 28 27 26 26 26 26 25 24 22 20 19 20 22 15 20 20 19 25 29 31 34 32 32 32 30 29 27 19 13 11 11 12 13 15 15 15 16 17 18
36 35 34 31 30 28 25 23 23 23 23 22 21 20 18 22 18 18 15 13 11 13 15 18 21 22 23 23 23 22 17 13 12 13 17 20 22 22 22 22 25 28 21
35 37 32 32 30 30 27 24 23 23 23 19 19 19 19 21 20 19 18 15 11 10 10 12 17 20 21 22 22 20 17 17 19 22 29 29 25 24 25 32 37 38 36
35 33 30 30 32 31 28 28 28 28 25 19 18 17 19 21 21 21 19 16 12 11 11 12 16 20 21 20 19 18 18 23 25 29 29 28 27 26 31 36 38 41 35
35 33 35 32 34 32 32 32 32 29 26 20 18 18 19 21 23 23 21 17 14 14 15 16 17 20 21 21 20 21 23 26 29 31 30 31 34 32 31 30 31 38 36
37 37 36 32 36 34 35 33 30 28 25 23 21 19 19 22 24 25 23 19 17 17 17 18 19 20 21 21 22 23 25 27 29 30 30 30 31 29 28 27 26 28 32
38 37 35 37 36 35 36 35 31 28 25 25 27 23 21 23 26 24 23 20 18 18 19 19 19 20 21 22 23 23 23 24 26 26 27 27 27 25 22 20 20 20 25
39 38 38 38 37 37 38 37 33 29 26 26 31 30 26 28 29 27 26 24 22 20 20 20 20 21 22 24 24 24 25 25 25 25 26 26 26 25 22 20 19 18 18
40 39 39 38 37 38 40 41 37 30 28 26 26 32 34 33 32 27 26 25 25 24 26 27 28 28 29 28 28 28 29 28 29 29 29 28 27 27 27 25 21 19 17
42 41 41 39 37 38 41 43 41 35 30 28 26 25 26 28 27 29 29 29 29 28 27 29 31 32 33 33 33 34 34 34 34 33 32 33 34 32 29 28 26 22 20
44 42 40 39 39 40 41 43 43 39 33 29 27 26 27 27 28 29 29 30 30 30 29 30 31 32 33 34 36 37 39 40 39 39 39 39 38 38 36 35 32 29 25
44 41 40 39 40 41 40 43 43 41 36 33 30 28 26 26 26 27 28 30 31 31 31 30 30 31 32 32 33 34 34 36 38 39 41 42 44 46 44 42 40 35 31
43 42 40 41 40 42 42 44 43 41 38 35 32 30 29 27 25 26 27 28 29 30 30 29 30 30 32 33 33 34 34 35 36 37 37 39 40 43 46 47 48 46 43
43 43 43 44 45 47 48 47 46 42 39 34 31 29 28 28 28 27 28 28 28 29 30 30 31 31 32 33 35 36 36 37 38 40 41 41 41 43 43 44 47 50 51
48 46 45 44 48 50 51 50 48 42 37 34 31 29 27 27 27 29 28 29 30 32 34 36 36 34 35 35 35 37 40 41 43 44 46 47 49 48 47 48 48 50 51
55 51 49 49 49 50 49 47 44 40 36 34 31 28 29 28 27 29 30 33 35 37 38 39 38 39 38 36 38 42 46 47 47 48 50 52 56 56 54 54 54 55 55
61 55 52 50 50 51 51 49 45 41 38 36 35 32 32 31 31 33 36 38 41 41 40 37 37 38 36 37 45 49 48 47 46 46 48 51 55 56 59 62 63 61 61
63 57 56 54 53 52 52 51 47 43 41 40 38 37 36 35 35 34 35 38 41 41 40 39 40 42 42 46 48 47 45 46 47 49 50 51 54 58 61 66 69 69 70
64 61 59 57 57 56 54 50 47 45 43 43 41 40 41 41 40 39 36 37 39 40 41 42 44 50 51 51 53 48 47 46 47 47 47 48 55 59 61 64 67 68 68
58 55 52 50 49 49 49 46 44 43 43 44 44 44 43 42 41 40 35 35 38 40 41 45 52 54 50 49 49 47 43 42 42 39 39 42 50 53 58 62 63 65 67
51 47 45 44 43 41 39 36 36 35 37 38 40 41 41 39 38 37 36 36 38 40 43 44 46 46 44 47 45 39 29 27 28 32 38 40 41 45 52 55 58 61 62
48 45 41 39 38 38 36 36 35 34 32 34 35 35 35 35 36 36 35 37 35 32 31 33 35 37 37 34 35 34 33 30 32 37 40 41 41 39 42 46 48 54 58
52 50 46 41 38 36 35 34 34 33 31 31 31 32 31 30 32 32 32 33 32 31 28 28 30 32 34 33 33 35 37 35 38 40 40 35 36 40 45 46 48 50 52
55 51 50 44 40 38 37 36 34 31 30 28 27 27 27 27 28 28 28 28 27 27 26 26 26 29 31 31 32 30 33 37 44 45 44 46 46 40 36 39 40 42 45
53 51 48 43 41 40 38 37 35 34 32 30 28 27 25 24 25 25 25 25 24 24 25 24 22 23 26 30 32 33 34 39 42 45 48 45 39 38 35 38 38 36 38
52 50 47 46 44 42 40 39 37 35 33 31 29 27 25 24 24 24 25 25 26 25 23 21 19 19 22 29 34 37 40 43 44 46 42 39 40 40 38 34 35 39 42

GFSSE_prec_cthk_072.txt.gz
RH
40 38 33 28 27 29 28 28 27 26 25 25 23 19 21 17 16 19 20 27 32 37 38 38 36 33 31 29 26 22 15 11 11 13 14 16 18 18 20 23 26 22 14
42 38 34 29 27 30 28 25 24 23 22 22 21 18 20 17 16 14 13 13 18 22 23 24 25 23 21 20 19 15 13 14 17 24 26 24 23 24 31 34 35 32 23
41 39 32 33 30 30 28 24 22 22 19 20 20 19 20 18 19 17 13 10 10 10 11 15 18 19 20 19 17 15 17 21 25 27 25 28 26 31 34 35 37 32 27
40 37 34 32 31 31 29 26 23 23 19 19 18 20 21 20 19 18 15 12 11 12 12 17 18 19 19 18 17 19 24 26 28 27 32 33 30 30 32 30 37 33 32
41 37 34 31 33 32 30 29 29 23 21 19 18 20 21 22 22 19 17 15 15 15 16 18 20 20 20 20 21 22 24 27 27 31 31 36 35 29 26 25 28 29 33
45 40 35 32 34 33 33 32 29 26 23 20 19 20 22 23 23 21 19 17 17 17 18 18 19 19 19 20 21 22 24 25 29 29 29 28 28 22 20 19 20 25 31
48 45 37 35 34 34 36 34 31 27 24 25 23 21 22 24 24 21 20 18 18 18 18 18 19 19 20 21 21 22 23 24 29 29 29 30 24 21 19 18 17 17 20
52 46 39 39 35 35 36 37 33 28 26 27 28 26 25 26 29 26 24 23 21 22 22 22 23 23 24 24 24 25 25 26 29 31 28 28 24 24 24 22 19 17 15
54 49 41 40 39 36 36 38 36 32 29 30 31 29 31 31 32 28 26 26 25 25 27 28 28 29 30 30 30 31 32 32 36 33 32 36 30 29 26 25 23 21 19
55 50 44 42 40 39 38 39 39 36 32 30 28 29 31 30 27 29 29 29 28 28 29 29 30 31 32 32 32 33 35 36 40 37 40 38 37 36 36 35 31 26 25
57 53 48 45 42 41 41 38 40 38 35 31 29 27 27 32 28 29 30 30 31 30 29 29 30 31 31 32 32 33 33 36 38 39 40 38 40 40 41 40 40 39 34
61 57 52 47 45 42 40 40 41 42 39 35 32 28 31 29 30 28 28 30 31 31 30 29 29 30 32 32 33 33 34 33 34 37 39 38 37 38 40 43 45 45 43
57 54 53 47 46 44 42 42 44 46 43 39 37 33 30 27 26 26 26 28 29 29 30 29 29 30 31 32 32 33 34 34 36 37 39 41 42 42 42 43 42 43 47
53 53 47 45 42 45 44 43 45 48 44 42 38 34 30 29 28 26 26 27 27 28 28 28 29 29 29 30 32 32 32 35 38 42 43 42 42 44 45 45 46 45 46
54 47 50 50 48 44 44 47 47 49 44 43 38 34 30 28 27 28 27 26 27 28 30 33 34 34 33 34 35 35 36 42 46 46 43 40 40 43 45 47 47 48 49
58 50 47 46 47 47 47 48 50 51 49 43 37 32 30 30 29 28 28 27 29 31 34 37 39 38 37 38 39 38 42 46 44 41 41 43 44 45 47 49 51 53 55
65 64 55 48 46 48 52 54 54 50 46 43 38 33 33 34 34 33 33 34 35 36 37 38 39 37 36 37 39 44 45 46 44 42 41 42 44 46 48 51 55 57 58
62 63 60 53 49 49 52 52 52 50 49 44 39 38 37 37 37 37 38 39 38 37 38 38 39 38 38 41 47 49 46 44 45 46 44 42 42 43 44 49 53 55 58
64 66 66 62 55 52 52 53 53 52 50 47 44 42 42 41 41 40 39 41 42 39 37 38 40 40 42 47 49 47 47 47 48 48 44 43 40 39 42 45 51 54 59
66 69 69 67 63 57 55 55 54 52 49 47 45 44 45 45 44 41 40 41 42 40 38 40 41 43 41 46 49 47 46 44 41 38 31 31 32 34 38 43 45 48 54
64 64 65 62 61 58 55 52 49 46 46 44 42 42 43 42 42 40 39 39 41 43 42 44 43 43 43 45 47 42 39 31 26 27 31 32 34 39 40 43 44 46 49
56 59 59 57 56 55 52 48 45 43 41 39 36 37 37 37 37 37 37 35 35 36 36 36 35 35 32 34 38 41 37 32 33 30 30 32 37 38 37 38 39 39 42
54 53 52 52 50 48 46 43 42 40 39 37 36 35 34 34 33 32 30 31 32 33 33 33 33 35 34 35 36 38 40 37 37 35 32 36 38 40 44 44 40 40 41
58 56 53 52 49 48 45 41 39 39 38 35 34 32 31 30 29 28 28 28 28 28 28 28 28 27 28 34 31 35 36 36 38 41 40 41 41 44 43 39 34 33 36
61 60 59 57 54 52 48 43 40 38 36 36 34 32 31 29 27 26 25 24 24 25 25 25 25 25 26 27 31 35 34 40 42 45 46 45 47 42 36 36 36 33 32
63 61 61 60 55 53 50 47 45 42 40 38 36 35 33 30 28 27 27 26 25 25 25 25 25 25 25 23 24 31 41 47 50 45 45 47 42 40 39 37 37 35 37

GFSSE_prec_cthk_075.txt.gz
RH
43 34 31 28 28 30 29 30 30 28 26 24 20 23 16 21 21 25 33 40 44 45 43 42 35 29 26 22 17 11 11 12 17 20 20 20 22 29 31 31 29 19 15
44 33 29 27 27 28 29 29 27 24 23 22 18 18 16 15 14 16 22 27 29 28 26 25 23 18 18 17 14 14 16 23 24 23 23 26 31 33 33 32 28 23 21
43 39 31 28 30 29 27 24 22 22 20 20 19 19 20 17 14 11 9 10 10 11 14 16 17 19 18 16 15 19 22 25 25 26 31 30 32 36 35 36 29 28 30
41 37 35 29 31 28 25 23 22 19 19 19 19 20 22 19 16 12 11 11 10 11 16 17 18 18 18 17 20 24 26 25 26 31 34 36 32 25 24 28 28 29 36
41 37 34 31 30 30 26 25 23 20 20 19 20 20 22 22 19 15 13 13 14 14 18 20 20 19 19 20 20 23 24 25 26 32 28 29 27 19 19 20 24 31 39
49 47 35 31 32 31 30 30 25 23 21 20 21 22 24 24 22 18 17 16 16 16 18 18 19 19 19 19 21 22 23 25 27 29 30 27 20 18 17 17 16 19 24
54 49 39 33 32 32 33 31 28 26 24 23 22 23 25 24 21 18 17 17 17 17 18 18 19 20 21 22 22 23 24 26 28 29 28 24 22 21 19 18 16 15 16
58 52 44 39 34 33 33 33 31 27 28 27 26 26 27 27 26 23 21 20 21 21 21 22 23 24 25 25 26 26 27 27 32 33 34 29 27 27 26 23 21 19 18
63 56 49 42 37 36 33 34 32 31 30 30 29 30 32 32 31 26 24 23 23 24 25 26 27 28 28 29 29 31 32 33 38 38 39 38 34 34 34 33 30 25 23
66 63 55 45 40 37 36 35 32 33 34 33 31 31 34 30 27 29 27 27 26 26 27 29 29 29 29 29 29 30 31 32 38 37 39 35 35 36 36 37 38 37 34
68 63 62 54 45 41 40 35 34 32 36 35 32 29 30 34 30 29 28 29 29 29 28 28 29 30 30 31 31 31 31 36 37 37 38 36 37 38 37 38 38 39 40
68 67 64 61 52 45 42 38 38 33 34 39 36 30 36 35 36 35 28 28 29 30 30 29 28 28 30 35 33 31 32 35 37 38 38 38 39 39 40 39 38 38 39
72 71 65 60 56 51 46 40 44 40 40 43 40 38 36 34 30 26 30 26 28 29 29 30 29 29 35 31 32 32 31 30 35 39 43 41 38 35 34 35 38 38 39
75 73 70 63 58 54 48 44 47 48 45 47 45 42 39 34 31 32 31 31 29 33 34 36 34 34 33 30 33 33 34 33 38 43 43 37 35 35 36 38 38 39 38
74 70 67 65 61 54 50 47 48 48 47 48 48 45 41 35 33 32 31 30 30 30 32 34 36 36 36 35 35 37 39 38 40 40 38 37 36 37 38 40 40 39 41
68 65 64 67 63 53 50 49 49 48 51 52 49 48 40 36 33 30 31 28 27 28 33 36 37 39 40 39 38 37 38 40 41 39 37 37 38 39 38 40 41 41 43
60 61 63 65 61 55 53 52 49 50 52 56 52 47 39 34 33 33 33 34 33 33 34 36 37 37 38 38 37 37 40 43 40 41 40 41 42 40 40 41 42 41 41
56 57 61 66 60 53 55 52 52 53 57 57 54 51 45 39 36 35 36 37 38 38 38 39 39 38 38 39 39 43 44 44 44 44 45 46 44 41 38 37 39 40 41
60 61 62 69 68 58 59 59 57 56 56 56 56 55 50 47 43 40 39 40 41 41 42 41 39 38 39 43 46 46 44 45 47 47 43 42 37 34 32 34 34 36 41
63 62 63 62 64 64 60 59 57 56 55 57 58 56 55 51 47 45 45 45 46 44 42 42 43 45 49 51 45 45 44 44 45 42 34 30 31 37 38 36 39 39 41
62 62 64 64 64 68 66 64 58 56 56 56 56 55 53 51 48 46 44 45 44 43 44 44 46 48 47 42 43 38 34 39 40 35 34 33 35 37 36 38 39 40 39
61 64 65 66 67 70 68 64 68 66 59 57 53 46 46 43 41 40 39 40 42 41 39 40 42 44 44 44 44 43 39 36 38 42 36 33 33 39 38 37 40 43 43
59 60 60 58 58 58 61 61 59 57 55 54 50 45 40 38 37 37 36 35 34 36 38 38 40 42 41 37 38 40 41 42 44 43 39 35 39 39 40 41 44 43 36
60 56 54 52 52 53 56 57 58 58 56 51 45 40 37 35 34 32 32 31 31 31 30 29 29 31 35 34 34 32 37 39 45 43 40 39 41 45 46 45 44 36 32
62 61 57 56 55 55 54 54 54 51 49 47 43 40 37 35 33 33 33 31 30 28 26 26 27 26 26 28 30 33 31 33 35 40 49 48 49 46 46 43 41 37 35
63 61 61 59 58 58 57 55 54 53 50 46 43 40 38 36 35 35 34 32 30 29 28 28 28 27 28 29 28 32 32 37 37 46 51 51 48 47 46 43 39 39 36

GFSSE_prec_cthk_078.txt.gz
RH
42 33 33 34 30 29 28 29 27 24 23 18 26 14 22 23 33 40 48 54 58 54 48 37 27 22 17 12 11 13 21 20 19 20 26 28 28 30 27 23 20 18 18
37 30 30 32 30 29 30 27 23 22 20 17 16 14 16 16 23 28 31 33 31 27 25 20 16 16 14 13 16 22 22 22 23 24 27 30 30 35 28 25 25 25 22
36 31 29 29 28 28 23 22 20 19 18 16 17 16 15 11 10 13 16 17 16 15 15 16 17 15 14 18 21 24 25 26 29 31 33 29 23 25 27 25 27 32 31
34 32 30 29 29 25 21 20 18 17 16 17 19 19 17 13 11 10 10 9 12 15 16 16 16 16 17 21 23 23 24 26 28 31 28 23 18 17 19 23 28 34 33
35 31 32 31 28 26 21 20 18 17 16 18 19 21 20 17 13 12 13 12 15 17 17 17 17 17 18 20 22 22 24 26 28 26 24 21 17 16 16 16 20 24 25
43 37 33 32 31 28 25 22 19 18 17 19 20 24 23 20 17 15 15 15 16 17 17 17 17 18 19 20 22 22 25 25 25 26 22 19 19 18 17 18 17 16 19
49 44 38 33 32 29 31 26 23 22 20 19 21 24 24 19 17 16 16 16 16 16 16 17 18 19 20 21 23 24 27 28 29 30 26 26 26 25 25 23 20 19 18
54 49 42 38 33 30 30 29 27 26 25 24 24 26 25 24 21 19 19 19 20 20 21 22 23 24 25 26 26 28 29 33 34 32 31 30 30 31 33 32 30 27 24
61 53 47 43 36 33 31 30 28 30 30 29 29 30 31 26 24 22 21 21 23 23 24 25 25 26 26 27 27 29 29 31 31 31 32 30 31 34 34 34 35 35 33
66 57 53 49 42 36 33 31 28 32 34 33 31 32 31 26 25 25 26 26 26 26 27 27 28 28 28 28 29 30 29 32 34 35 36 34 34 36 36 36 34 34 33
71 64 59 55 47 42 36 33 30 33 36 37 35 34 33 28 27 27 26 26 28 29 29 28 29 29 30 30 31 30 29 31 35 36 36 37 38 36 34 33 33 35 35
77 73 65 59 54 49 40 35 32 31 33 34 36 32 36 36 32 27 27 26 27 28 29 29 29 28 29 30 31 30 29 31 32 35 38 38 36 33 32 31 32 33 35
87 77 76 66 63 56 47 38 36 32 32 38 40 37 39 38 35 29 25 24 24 25 27 28 29 29 29 29 30 29 31 31 32 36 38 36 32 31 31 32 34 34 35
75 79 80 70 65 61 57 46 44 40 39 40 42 44 42 38 34 30 29 27 23 22 24 26 27 31 32 30 31 32 32 34 34 36 35 35 33 33 34 35 34 36 38
82 81 81 76 68 63 60 52 50 45 45 43 44 45 46 43 37 31 29 28 26 24 24 26 28 29 31 34 35 35 34 34 34 37 34 33 34 36 37 38 37 37 38
83 84 86 78 71 67 60 57 52 48 48 46 46 46 48 46 39 33 29 27 26 25 25 27 29 32 33 34 36 35 34 34 36 38 38 38 38 40 41 40 40 38 39
84 80 82 80 75 68 60 57 50 48 49 47 48 47 48 43 40 35 31 32 31 31 33 33 34 35 35 34 34 35 37 37 38 40 41 43 43 42 41 39 38 38 39
78 79 75 72 72 71 67 63 53 55 50 49 49 53 49 44 43 39 37 38 37 36 36 37 37 38 37 36 37 40 43 44 44 42 43 45 46 42 35 29 28 32 36
69 69 72 70 66 61 65 67 59 56 53 51 54 55 52 49 48 46 45 44 43 43 41 41 40 40 42 45 48 48 50 46 45 44 41 41 42 39 39 38 39 33 36
69 70 66 66 62 61 66 70 64 57 56 56 56 55 56 56 56 55 51 50 48 46 44 43 43 44 46 48 47 47 47 42 38 36 37 35 36 39 38 38 37 37 38
68 69 70 66 71 65 65 68 67 63 60 55 53 56 58 58 60 58 57 52 49 48 46 46 49 49 49 50 49 47 44 40 37 34 36 40 40 40 35 33 39 38 39
65 64 68 70 62 67 67 67 68 68 66 63 62 56 54 54 53 50 48 46 44 44 42 42 40 39 41 43 46 45 43 36 33 35 39 43 43 39 38 39 39 41 44
61 61 64 63 69 67 70 65 64 63 65 67 64 66 58 55 53 47 44 42 41 41 40 39 39 39 39 37 42 47 47 42 39 41 44 40 39 40 42 42 46 43 42
68 63 63 66 66 66 64 59 58 59 63 63 61 59 57 53 47 44 40 37 34 33 33 34 33 33 33 32 34 37 40 42 46 42 36 40 41 43 48 52 48 44 39
68 67 65 64 61 60 57 55 57 59 62 65 64 61 53 46 45 43 40 36 35 34 33 33 32 32 31 30 31 32 37 38 40 40 39 35 42 49 48 54 45 45 41
70 70 65 62 62 61 56 56 58 59 58 59 56 52 50 49 46 42 40 39 37 35 34 35 34 34 33 32 33 34 39 39 39 40 43 48 48 58 56 53 45 42 40

GFSSE_prec_cthk_081.txt.gz
RH
46 37 33 32 30 29 28 27 24 21 20 21 19 21 32 40 47 57 62 62 62 56 41 23 17 13 10 14 20 18 18 22 24 26 27 30 26 22 21 21 20 18 20
39 33 32 31 30 30 29 24 23 19 18 12 18 18 25 32 38 43 45 43 31 22 18 14 14 12 14 19 19 21 22 23 25 27 25 25 28 24 23 26 28 27 22
38 34 31 30 30 29 24 21 20 16 14 13 11 10 14 21 24 24 23 22 18 13 14 14 12 16 19 21 22 24 24 24 23 21 18 18 17 21 21 29 32 29 26
35 32 32 29 26 24 21 19 18 16 15 17 14 12 10 10 10 10 10 10 13 14 14 15 15 18 20 20 21 23 23 23 23 22 19 16 15 15 15 21 25 24 24
34 31 32 30 27 23 20 17 17 16 16 18 18 14 12 12 12 11 11 14 15 15 16 16 16 18 19 20 21 24 24 24 21 21 18 18 17 16 16 17 19 21 20
36 33 33 32 29 24 20 18 16 17 17 19 22 17 15 15 14 14 15 15 15 15 15 15 17 18 19 21 23 26 28 29 28 26 26 26 26 25 24 23 21 19 19
42 40 36 33 30 27 23 21 19 17 18 19 23 18 16 15 15 15 15 15 15 15 16 18 19 21 23 25 26 29 30 29 29 29 29 28 29 29 30 30 29 28 26
49 46 42 37 31 32 28 26 23 21 21 22 24 22 19 17 17 17 18 18 19 20 21 22 23 24 24 25 26 28 30 30 31 30 31 31 32 34 34 33 32 29 27
56 52 48 43 35 33 29 27 27 27 27 28 29 27 24 23 20 20 20 21 22 22 23 24 25 25 25 27 28 28 29 31 31 33 34 34 36 36 35 32 32 32 31
66 57 51 48 41 34 31 27 27 28 30 32 33 31 25 24 23 23 23 23 24 25 26 27 26 26 27 28 29 28 28 30 32 34 35 38 37 35 32 30 30 30 32
74 65 56 51 47 42 35 29 28 30 31 33 36 35 31 28 26 25 25 25 25 26 27 27 27 27 27 28 28 28 28 29 31 35 37 38 36 32 30 29 29 29 30
76 71 62 56 53 48 42 33 29 30 32 33 35 37 35 32 30 28 26 26 26 26 27 27 27 27 27 28 28 28 28 29 31 34 35 35 34 32 32 34 33 32 32
85 76 66 63 56 52 48 41 32 29 31 32 32 38 39 37 34 30 26 24 23 23 23 25 26 27 27 27 28 29 28 29 31 32 34 34 34 34 35 37 39 37 34
91 83 76 68 63 58 54 50 44 34 31 34 36 39 41 42 37 32 27 25 24 22 22 23 23 25 27 28 29 30 32 32 33 33 35 36 35 36 37 38 39 38 37
88 82 82 79 71 69 62 56 52 50 40 36 38 40 42 43 40 36 31 27 25 24 22 22 23 24 25 27 30 30 31 31 32 33 35 37 39 41 41 42 43 40 37
82 79 82 81 77 76 72 65 62 58 52 44 42 42 44 44 44 39 34 29 27 26 26 27 28 30 31 32 33 32 31 33 35 36 37 39 40 43 45 45 43 40 37
79 86 89 87 82 80 78 71 65 63 59 51 46 44 43 44 46 41 38 34 32 31 33 33 34 34 34 36 35 35 37 39 39 42 43 45 43 42 42 41 37 34 35
89 88 90 87 82 84 83 75 70 64 61 55 49 45 42 43 45 43 42 41 39 39 39 39 39 39 39 39 39 41 45 46 49 48 46 45 43 41 43 42 45 39 41
78 83 90 92 90 84 84 80 75 68 66 64 51 49 46 48 46 46 46 46 46 46 45 43 43 42 42 42 45 45 47 47 47 48 45 40 42 43 43 41 40 39 38
74 76 82 81 81 79 79 72 72 73 73 66 55 53 52 51 53 53 52 52 53 52 51 48 45 45 45 46 46 45 44 46 45 41 37 35 39 44 43 43 40 39 38
68 67 72 79 77 73 73 71 66 72 78 71 64 67 60 57 56 55 55 56 56 50 51 49 48 47 44 44 44 40 40 41 38 37 34 34 43 48 43 43 38 38 36
68 67 77 79 80 78 74 80 74 71 73 72 70 71 68 65 59 57 58 56 51 47 45 43 43 41 39 39 44 42 39 38 36 35 35 37 46 51 45 43 41 38 43
65 67 67 75 82 81 81 78 84 79 71 71 74 80 79 70 69 65 57 52 46 47 46 43 41 39 38 38 41 44 43 41 40 39 44 46 48 47 45 46 44 47 45
65 66 68 72 73 71 70 70 78 81 78 70 70 70 68 68 65 62 58 52 46 44 41 38 36 36 34 34 34 34 39 42 47 44 41 42 45 43 48 45 46 47 46
63 63 67 69 73 75 75 71 73 75 71 68 64 66 67 66 64 59 52 48 48 46 42 40 38 36 35 34 34 33 33 34 38 44 44 38 42 45 47 51 48 51 47
62 64 65 67 68 73 75 74 69 66 62 60 59 60 62 62 60 57 55 53 50 46 42 39 38 37 36 35 34 35 36 38 40 43 46 44 44 48 52 52 59 52 48

GFSSE_prec_cthk_084.txt.gz
RH
44 39 37 34 31 30 29 27 21 20 14 19 30 36 40 47 50 65 71 68 62 54 30 15 11 12 16 16 16 19 21 24 25 26 28 23 21 23 25 24 21 21 22
39 36 36 34 31 31 30 24 20 26 20 19 27 36 42 49 58 61 59 53 31 19 13 13 12 16 17 18 19 20 21 21 20 18 18 20 20 25 31 29 26 23 22
37 35 35 33 33 33 25 23 18 17 13 15 22 27 34 38 41 40 30 21 17 13 13 13 17 19 19 20 19 20 19 18 17 16 15 16 18 21 23 23 22 25 26
38 37 35 34 33 28 23 20 16 15 13 11 12 17 21 22 21 19 16 11 13 13 14 17 18 18 18 19 22 22 19 18 17 17 16 16 17 17 20 25 27 21 24
40 38 36 37 30 25 21 18 16 19 15 13 10 10 10 10 10 10 11 13 15 14 15 16 17 17 18 19 22 23 24 24 24 24 24 24 24 25 25 24 23 22 22
40 38 38 36 29 25 20 18 16 19 19 15 13 12 12 12 13 14 14 14 14 14 14 15 18 20 22 24 26 27 27 27 27 26 26 27 28 29 29 28 27 26 25
40 39 40 39 31 26 21 18 18 18 22 19 15 15 14 14 14 14 14 14 14 15 17 20 22 23 24 25 26 26 27 27 28 29 30 31 33 34 33 31 29 27 26
43 46 45 38 32 28 24 20 19 18 21 23 17 16 15 15 15 16 17 18 19 20 21 22 23 23 23 24 26 28 29 30 30 33 33 34 35 35 33 32 30 29 28
53 54 51 40 34 30 28 26 24 23 24 26 21 19 18 18 18 18 19 20 21 23 24 25 25 24 25 26 27 28 28 29 30 33 35 37 36 32 31 30 29 29 29
58 56 53 45 40 34 29 28 28 29 31 32 29 26 23 22 21 21 21 22 24 25 26 27 26 26 26 27 27 27 28 29 30 33 35 36 34 31 30 30 31 30 29
66 58 55 50 45 39 33 30 30 30 32 36 36 31 28 26 25 23 23 23 24 26 28 28 27 27 27 27 27 27 27 29 30 33 34 33 33 33 32 33 34 35 33
73 67 59 53 49 45 38 33 32 31 32 33 36 36 33 31 29 27 25 24 24 24 25 26 25 25 26 26 27 27 28 28 29 32 33 34 35 35 35 36 36 37 37
87 79 70 60 56 51 45 38 35 34 32 33 36 37 37 35 34 31 27 25 24 23 23 23 24 25 26 26 27 28 30 31 31 31 31 34 36 37 38 38 38 39 39
98 89 79 72 63 58 52 45 40 38 35 33 33 38 39 40 38 35 29 26 24 23 23 23 23 24 25 27 28 30 31 32 31 32 33 34 37 39 40 42 42 41 40
95 94 88 76 69 62 59 55 49 44 40 36 34 37 39 40 41 40 36 31 26 24 23 23 25 26 27 28 30 31 31 30 31 34 35 37 40 42 44 45 45 44 40
74 88 97 88 77 66 65 62 58 55 54 49 41 37 38 40 42 42 39 34 31 28 26 26 28 30 31 33 34 34 34 34 36 39 42 43 44 44 44 43 44 44 38
76 76 85 96 92 82 73 68 66 62 61 58 55 46 43 41 42 43 41 38 37 33 32 33 35 35 36 37 37 37 38 40 42 44 48 49 46 45 44 44 45 46 51
84 82 81 81 95 93 86 82 76 70 68 64 64 58 50 44 41 43 44 42 43 43 42 41 41 40 40 40 40 40 41 44 46 46 47 49 52 43 43 43 47 45 42
74 78 75 80 79 96 92 90 84 77 71 68 64 63 55 48 43 43 46 46 46 48 48 49 50 48 45 43 43 43 43 42 42 45 45 45 43 41 41 42 41 41 40
67 70 73 70 72 76 89 96 88 84 77 70 68 69 60 53 50 48 49 51 52 53 54 55 52 50 47 47 43 43 43 41 42 37 38 38 39 40 43 42 43 41 39
65 71 75 76 75 72 77 90 89 85 80 73 74 75 69 60 54 54 52 53 52 51 52 52 51 51 47 45 46 39 36 38 39 36 34 32 35 39 42 52 45 44 42
57 62 73 78 79 80 74 83 84 88 86 87 92 85 82 80 66 62 55 55 60 57 53 52 54 47 45 47 45 46 39 37 37 37 35 35 38 44 51 52 49 46 44
57 60 61 73 74 79 78 76 75 82 84 86 83 80 80 83 81 74 67 66 64 59 52 49 48 48 46 44 44 46 46 45 42 41 44 43 45 47 53 53 48 49 47
58 59 67 73 70 78 79 76 72 74 80 83 88 81 82 86 83 78 72 69 61 56 52 49 47 46 46 44 42 40 40 43 48 43 41 43 48 48 48 49 46 51 51
57 63 69 71 70 76 78 79 76 84 80 83 83 81 77 76 71 67 65 62 60 55 53 52 50 47 44 42 40 38 37 37 39 42 41 42 45 46 48 47 47 51 49
57 57 60 65 67 74 75 77 79 80 82 87 87 79 76 72 69 63 59 57 54 53 52 50 47 45 42 40 39 40 39 38 39 42 45 48 49 50 50 51 50 51 59

GFSSE_prec_cthk_087.txt.gz
RH
43 41 43 36 33 31 29 25 19 19 24 28 32 22 23 24 28 45 68 66 62 48 21 11 11 15 15 17 20 22 22 19 20 20 18 21 29 29 25 22 21 21 22
41 41 42 38 33 32 32 23 21 15 25 29 33 42 41 46 62 68 67 58 36 15 12 12 16 16 17 18 19 18 17 15 14 14 15 20 28 27 23 22 24 24 25
41 40 38 36 34 35 30 24 22 20 23 31 38 44 51 58 63 57 44 20 14 12 12 16 16 16 17 17 17 16 16 15 14 14 15 16 21 24 26 26 25 26 28
40 38 37 36 38 36 28 22 17 18 21 27 34 38 41 44 38 24 18 13 12 13 15 16 16 16 16 17 18 18 20 20 20 21 21 22 23 24 26 29 28 24 28
42 39 37 37 38 30 26 20 17 13 14 21 24 25 24 22 19 14 12 13 14 15 15 15 16 17 19 21 22 23 23 24 24 24 25 26 27 27 26 26 25 25 26
44 40 39 41 36 28 26 20 19 20 12 11 12 13 12 12 11 13 15 14 14 14 15 17 20 22 23 24 24 24 24 24 25 26 28 30 32 32 31 29 27 25 25
45 41 42 41 35 26 25 21 24 20 15 13 13 13 13 14 15 14 14 14 15 17 20 22 23 24 24 25 26 26 26 27 29 30 31 33 33 31 30 30 29 28 27
47 46 44 41 32 25 24 22 25 26 20 16 15 15 15 15 15 15 17 18 19 20 21 22 23 24 25 27 27 27 28 27 29 31 33 33 32 30 29 29 28 28 28
49 47 45 42 33 28 26 24 24 27 24 17 16 16 16 17 17 18 19 20 21 22 23 23 24 25 26 27 27 27 27 28 29 31 32 33 32 31 30 29 30 30 30
56 51 49 44 36 31 30 27 26 27 28 23 20 19 20 20 20 21 21 22 23 24 25 25 25 25 26 27 27 27 28 29 30 31 33 33 32 31 31 31 32 33 33
65 56 54 49 44 38 35 32 31 32 35 32 29 26 24 24 23 23 22 23 23 24 25 25 25 25 25 26 27 27 28 29 30 31 31 31 32 33 34 33 33 35 36
68 64 61 54 50 43 37 34 33 34 36 38 37 34 32 30 28 26 25 24 24 24 23 24 24 24 24 26 27 28 28 30 30 30 30 31 32 34 36 36 36 37 38
83 76 69 63 56 49 43 37 36 35 36 38 37 38 37 36 35 32 29 26 26 25 24 24 23 23 24 25 25 27 29 30 31 31 31 32 34 36 37 37 37 39 40
89 91 89 80 64 54 51 44 41 38 37 38 38 38 39 40 41 38 34 29 25 24 23 24 24 24 24 26 27 29 30 31 30 30 33 35 38 42 43 42 41 40 40
79 84 96 86 75 64 59 52 48 46 43 40 39 38 40 42 44 42 38 35 31 26 25 25 25 27 28 30 31 33 34 33 33 35 38 41 45 47 47 46 44 41 39
80 85 92 89 86 76 69 63 55 51 48 47 44 41 38 39 41 43 44 41 36 32 29 28 29 31 32 33 33 34 35 37 38 39 43 44 46 48 47 46 42 44 44
81 78 75 89 91 87 75 69 67 64 59 55 53 52 46 42 41 43 43 44 41 39 36 34 35 35 36 37 37 38 39 40 41 44 45 46 46 47 51 43 45 41 53
72 74 74 77 89 89 90 79 72 71 68 66 64 63 59 52 45 43 43 44 44 44 44 43 44 44 43 43 42 42 42 42 42 42 42 44 45 46 44 40 43 45 42
79 79 75 71 80 87 86 97 92 87 80 75 73 70 67 61 55 46 43 44 46 48 50 51 51 51 49 49 46 47 42 43 43 43 42 43 45 43 40 41 42 42 44
75 80 80 81 81 86 91 89 83 98 92 90 84 79 69 64 61 52 49 45 48 52 53 54 55 53 52 51 48 47 46 45 42 39 40 39 40 40 42 41 47 49 49
74 76 81 83 80 92 85 83 83 91 93 95 85 78 74 70 65 62 57 51 50 52 50 53 52 54 53 53 51 42 40 38 38 37 37 36 35 36 40 44 48 52 55
67 71 79 81 78 85 81 77 84 84 80 88 92 90 92 90 79 72 64 55 52 56 58 61 57 52 50 48 47 47 45 43 39 39 40 39 40 40 44 46 55 53 52
62 68 74 72 78 76 73 71 79 80 90 87 88 81 89 83 93 85 85 79 77 68 65 61 60 54 52 51 51 52 52 50 47 46 46 43 41 46 46 51 55 54 53
57 61 66 66 67 70 74 76 87 79 79 83 82 82 85 83 85 85 85 84 83 76 71 67 62 58 56 52 51 47 45 45 49 45 43 42 43 45 47 50 53 54 52
58 56 55 65 71 71 74 78 81 86 81 81 87 88 81 81 87 89 87 77 74 71 67 61 58 55 52 51 49 47 47 44 43 44 44 45 44 46 51 52 51 54 54
52 56 58 61 66 72 82 82 88 89 88 87 83 83 83 84 90 88 79 76 73 67 62 59 57 57 52 51 50 48 46 42 43 43 44 46 47 49 53 55 59 55 54

GFSSE_prec_cthk_090.txt.gz
RH
44 45 47 39 33 31 28 24 20 25 28 25 18 16 18 29 38 48 58 63 61 34 17 11 13 14 17 22 20 16 16 16 16 18 22 26 22 20 20 22 23 23 24
40 44 46 37 34 34 29 23 23 29 31 32 21 24 26 30 37 60 62 59 34 14 11 14 14 16 17 18 15 14 14 13 14 16 19 22 22 22 25 24 30 29 27
44 44 47 37 35 38 31 24 22 29 33 41 39 38 40 53 68 65 53 27 13 12 15 14 14 14 15 14 15 16 16 17 17 18 19 22 24 28 26 25 26 27 25
46 45 44 38 37 36 28 27 23 30 35 43 50 54 64 67 62 39 19 14 13 15 15 14 14 15 17 19 20 21 21 21 22 22 22 23 24 25 24 24 23 26 31
48 44 41 37 40 34 27 24 26 30 36 39 43 50 58 43 23 18 14 14 14 15 15 15 17 19 21 22 23 23 23 23 23 24 26 28 29 28 27 25 24 24 24
51 44 41 40 40 30 25 21 19 26 31 34 35 32 25 19 15 13 15 14 14 15 17 20 21 22 23 23 24 24 25 25 26 28 30 31 30 28 27 27 26 25 25
53 46 44 43 38 29 24 21 23 17 22 25 24 22 17 14 15 15 14 14 17 19 20 22 23 24 24 25 26 26 26 27 28 29 30 31 29 28 27 26 27 27 26
55 49 49 46 37 31 26 29 24 18 15 14 14 14 14 16 15 15 16 18 20 21 22 23 24 25 25 26 26 27 26 26 27 29 30 31 29 28 27 27 28 29 29
58 54 53 45 36 30 27 35 32 24 19 16 16 16 19 16 17 18 19 21 22 23 24 24 25 24 25 25 25 26 26 27 28 30 30 30 29 29 29 29 30 30 31
65 60 54 45 35 30 28 32 37 33 22 19 17 17 19 19 20 21 22 23 24 24 24 25 25 25 25 25 26 26 26 27 29 30 30 29 29 30 31 31 32 32 33
72 63 57 46 37 33 31 30 37 37 27 22 20 19 21 22 23 23 23 24 24 25 25 25 25 24 25 25 25 26 27 28 29 29 30 29 30 31 32 32 33 35 36
80 71 59 49 43 37 35 34 35 37 35 28 28 25 25 25 25 26 26 26 25 25 25 25 25 24 24 25 26 26 27 28 29 30 29 30 31 32 33 34 35 36 37
73 77 66 57 56 47 41 38 36 40 41 41 38 34 33 32 31 30 29 28 26 25 24 24 23 22 23 24 24 25 27 29 30 30 29 32 34 36 38 39 40 41 40
82 64 68 64 61 57 51 40 38 39 41 42 41 39 38 38 38 36 35 32 29 26 25 24 24 24 24 26 27 29 31 33 32 32 34 36 40 43 44 45 44 41 37
90 72 75 72 65 60 55 50 44 41 41 42 42 42 39 41 42 42 40 37 32 28 26 27 27 27 28 30 31 32 33 34 35 36 37 40 44 45 46 45 43 40 40
81 78 78 79 76 71 63 57 52 50 44 45 45 45 42 43 44 44 43 43 40 35 31 30 30 32 34 36 36 37 37 38 39 40 41 42 44 46 46 49 44 40 44
83 74 73 82 77 76 73 70 62 55 56 54 54 48 46 45 45 43 42 44 46 41 38 36 35 37 39 39 40 40 40 41 41 40 42 42 42 44 42 45 43 42 44
81 82 75 79 82 79 78 76 74 66 61 59 58 58 57 56 53 49 46 44 46 47 44 44 45 46 47 47 47 46 44 44 44 43 42 43 42 44 45 45 43 40 44
83 83 80 76 78 81 84 82 86 82 77 71 69 68 69 68 66 62 54 50 46 46 49 50 51 52 54 53 51 48 49 48 48 47 43 40 40 42 42 42 42 44 44
78 83 82 78 78 80 85 84 84 84 86 79 77 78 77 73 73 69 61 56 54 49 51 54 57 57 56 51 51 47 47 45 43 41 41 40 39 38 39 42 44 46 52
76 81 83 80 81 76 74 89 86 80 81 89 93 86 83 83 79 72 67 64 65 58 55 56 53 55 55 51 48 46 46 43 42 40 39 40 40 39 40 40 45 46 50
72 82 82 82 85 79 74 74 75 83 85 84 84 84 88 89 86 83 75 71 70 61 54 55 56 58 54 52 52 49 48 47 44 42 42 43 44 43 42 45 47 47 54
78 77 76 80 88 92 79 76 89 91 84 82 83 84 88 91 92 89 89 87 86 82 70 63 57 58 59 56 54 54 55 53 50 50 50 46 44 44 45 47 48 53 54
68 74 82 80 80 80 80 90 86 84 85 88 83 82 91 89 88 86 94 89 91 91 89 85 77 72 66 59 56 55 54 54 55 52 51 48 47 46 46 50 54 55 57
61 61 66 72 74 78 80 88 92 97 94 92 94 95 94 90 92 93 94 95 92 93 90 86 79 68 59 56 54 56 54 52 50 50 47 46 45 46 46 50 55 57 59
57 58 60 59 62 67 76 78 78 87 87 87 89 91 94 95 91 90 93 92 91 90 86 80 70 65 63 62 61 58 57 54 53 52 49 48 50 50 51 54 54 56 61

GFSSE_prec_cthk_093.txt.gz
RH
51 52 50 42 32 30 28 24 21 26 29 20 22 20 18 35 46 61 61 61 53 23 20 17 15 22 19 15 14 14 14 17 20 20 20 17 20 21 25 25 24 24 24
46 50 52 41 30 30 28 23 25 30 31 20 24 18 20 34 46 53 59 56 27 15 14 15 18 20 15 13 13 13 14 16 19 20 20 22 25 22 23 28 24 23 23
48 51 53 41 35 31 27 23 29 35 33 26 23 22 33 39 52 61 54 31 15 15 15 14 15 15 14 15 16 17 18 19 19 20 21 22 24 23 24 25 24 24 26
51 52 52 41 37 35 26 24 29 40 45 41 40 39 41 60 67 54 30 15 14 15 14 14 15 17 18 19 20 21 21 21 22 22 23 25 25 24 23 22 22 23 26
56 52 50 40 39 36 28 22 28 40 56 63 64 69 75 68 49 23 14 14 16 14 15 17 18 21 22 22 22 22 23 23 24 26 28 29 27 25 24 23 22 22 23
62 59 48 42 41 34 29 26 31 37 50 57 66 71 69 38 20 16 15 15 14 16 18 20 21 23 24 24 23 24 24 25 27 28 29 28 26 25 24 24 24 24 24
64 59 47 49 41 32 27 24 31 38 44 49 53 49 26 18 15 16 15 15 18 20 21 23 24 25 24 24 25 25 25 27 28 29 29 29 27 26 25 26 26 26 27
62 58 55 54 41 31 25 22 25 33 37 37 32 25 20 17 17 15 17 20 22 22 23 25 25 25 25 26 26 26 26 27 28 29 29 28 27 26 27 27 27 27 27
62 58 63 56 41 32 29 29 21 23 25 25 22 17 18 17 16 17 20 22 23 23 24 24 25 25 25 25 25 26 26 27 29 30 29 27 27 28 29 29 29 30 30
64 64 63 52 39 33 39 31 27 21 19 18 17 22 17 17 19 20 21 22 24 26 26 25 25 25 25 25 25 26 26 27 28 28 28 27 27 28 29 29 30 31 32
71 71 64 52 38 34 39 39 36 28 23 21 19 18 19 20 21 22 23 24 25 26 27 26 26 25 24 24 25 25 26 27 27 28 28 27 28 29 31 32 33 33 34
85 78 64 51 40 35 34 39 40 35 28 23 21 21 22 22 23 23 24 24 24 25 25 26 25 24 23 23 23 23 25 26 28 28 27 28 30 32 35 37 38 38 37
89 84 66 52 44 39 35 35 39 37 32 29 26 24 25 24 25 25 25 26 25 25 24 24 24 22 22 22 23 23 25 28 31 31 31 32 34 36 39 42 43 41 37
93 83 67 54 47 43 40 38 37 40 39 37 34 34 31 31 31 30 29 29 28 26 25 24 23 22 22 24 25 27 29 31 32 33 34 35 37 41 43 43 42 41 38
93 87 73 53 49 47 44 41 42 45 48 48 45 41 38 38 36 36 36 35 32 28 26 25 25 25 25 27 29 31 32 33 34 36 38 40 40 43 45 44 44 42 40
87 94 84 68 55 53 51 47 44 46 46 50 49 46 43 42 42 43 42 39 38 35 30 29 30 30 31 33 34 35 36 36 37 38 38 39 39 40 42 40 41 42 39
78 94 83 75 64 58 58 53 47 46 44 46 49 48 48 45 46 46 45 43 43 42 38 35 33 34 36 38 39 40 40 40 40 39 39 38 41 41 39 43 45 45 41
81 81 88 83 75 61 58 60 59 52 47 47 47 50 47 47 46 46 45 46 46 47 46 41 42 43 44 45 45 46 45 44 43 41 43 40 38 39 41 40 40 44 44
88 84 85 79 76 66 64 64 64 61 57 50 51 51 54 55 56 54 52 53 53 49 48 47 48 50 54 53 53 49 47 44 44 43 41 42 41 40 40 39 40 44 47
90 85 89 84 79 78 70 69 67 68 67 67 66 63 64 67 67 64 62 61 59 55 50 51 52 55 55 54 52 48 47 45 45 42 41 37 36 37 38 37 39 44 46
86 90 83 82 81 78 76 78 75 75 74 73 70 73 77 75 73 71 72 70 67 65 62 58 55 57 51 51 54 49 50 48 43 40 38 36 36 39 40 40 40 44 50
91 80 74 78 83 80 79 78 82 80 75 78 78 87 87 83 85 84 81 80 76 75 74 72 64 56 55 56 56 55 54 50 46 47 45 44 45 44 44 44 46 49 51
82 82 81 82 86 82 79 80 79 76 84 83 86 86 90 88 94 93 91 93 92 85 83 87 83 69 62 60 58 57 55 54 52 52 56 57 53 50 46 47 48 49 50
81 84 85 84 85 82 85 89 91 91 90 89 93 94 96 92 94 95 92 96 98 97 93 95 92 88 80 73 63 55 54 56 62 61 57 57 55 51 49 49 52 53 53
77 82 81 80 84 84 84 95 98 98 88 86 94 93 96 95 95 95 97 98 98 96 93 92 93 91 87 75 67 63 62 61 61 61 62 57 56 54 51 51 54 56 57
64 65 64 69 74 77 77 82 89 86 85 89 95 91 91 90 97 95 98 96 97 96 93 90 92 91 84 75 69 69 69 67 64 61 58 54 54 53 55 57 57 55 56

GFSSE_prec_cthk_096.txt.gz
RH
54 58 50 48 39 32 28 25 20 18 15 16 19 21 29 51 63 66 60 60 38 35 22 20 22 17 18 14 13 16 18 18 18 16 17 21 26 28 23 23 27 25 26
56 55 52 48 36 31 28 23 22 28 26 20 22 20 30 48 55 62 60 45 30 27 16 22 20 13 12 12 13 15 17 18 19 21 23 21 23 25 26 22 22 22 26
62 58 55 48 35 30 27 23 25 30 27 22 24 18 32 46 53 54 51 27 23 17 20 21 21 13 14 15 16 17 17 19 20 21 27 30 23 23 23 22 28 27 27
65 61 59 48 36 31 25 26 31 32 25 25 23 27 46 56 54 56 32 22 18 21 20 15 15 17 17 19 19 20 20 20 21 23 29 31 26 22 21 21 23 27 29
68 66 58 49 40 34 25 29 35 36 35 35 40 53 55 61 62 37 23 20 18 19 16 17 19 20 21 21 21 21 21 22 24 27 28 28 27 24 23 22 22 23 27
70 68 57 48 42 35 26 30 41 47 52 60 61 65 81 71 41 23 16 20 15 21 19 20 21 22 23 22 22 22 23 24 26 28 29 26 25 24 23 24 24 24 24
71 68 58 51 44 35 27 30 44 52 58 66 71 83 81 51 29 15 16 16 16 21 20 22 23 23 23 23 23 23 24 25 28 28 29 30 26 25 25 25 26 26 25
72 70 61 54 49 34 26 30 42 51 57 64 73 72 44 28 16 15 16 17 20 21 21 24 25 24 24 24 24 23 24 25 28 29 28 29 26 27 27 28 28 28 28
74 76 59 62 47 34 25 32 40 47 53 59 61 40 23 17 16 15 18 20 21 22 23 24 25 25 24 24 24 24 24 25 31 29 29 31 27 27 28 29 29 30 31
76 74 67 69 49 35 30 27 35 42 46 44 32 23 18 17 16 18 20 22 22 23 24 24 24 25 24 24 24 24 25 25 31 28 28 28 27 28 29 30 32 33 34
88 80 83 74 54 42 39 29 30 30 29 26 23 20 20 18 18 21 22 23 24 25 26 26 24 24 24 23 23 24 25 26 27 29 30 27 28 30 32 34 35 36 36
91 87 90 73 56 50 43 37 29 24 21 25 26 23 27 23 24 25 23 25 26 26 26 26 25 24 22 22 22 23 24 25 27 28 29 27 30 33 35 37 38 39 35
97 94 89 72 55 47 49 46 38 33 31 30 31 30 31 27 24 25 25 25 26 26 26 25 25 23 22 21 22 24 24 26 31 31 30 31 32 34 36 38 40 38 37
95 98 91 69 55 48 49 49 49 37 36 32 29 27 27 27 26 27 30 29 27 27 26 25 24 24 22 22 24 27 28 29 31 31 33 32 34 36 38 39 39 39 40
97 99 88 66 52 46 44 49 51 44 36 33 32 30 30 30 29 29 30 30 29 28 27 26 25 25 24 25 27 29 31 33 34 34 35 35 37 38 39 41 42 42 42
89 98 88 71 52 46 41 39 40 43 43 39 39 38 38 38 35 34 35 36 35 33 30 28 27 29 29 31 34 34 35 36 36 37 38 38 36 37 37 40 41 46 48
86 92 96 87 63 51 44 39 38 38 42 46 48 46 43 43 42 40 42 41 40 39 36 33 31 32 32 34 36 37 39 40 40 42 41 41 37 36 38 40 40 44 51
80 86 92 90 77 62 53 47 42 45 46 48 51 50 49 47 47 49 51 52 47 47 44 42 38 36 39 40 43 44 45 44 43 44 45 44 45 43 42 39 41 41 43
83 89 88 91 90 73 65 62 56 51 49 51 50 50 49 47 48 49 53 55 50 54 49 49 49 49 50 49 49 52 52 49 49 49 47 43 42 39 39 43 41 42 44
86 84 88 92 91 79 76 73 69 59 57 52 52 53 49 49 49 51 62 59 55 58 52 51 54 57 57 58 53 49 52 47 47 46 46 43 39 37 38 38 38 43 45
87 85 90 89 87 84 82 77 72 66 63 65 66 65 59 59 58 63 69 71 66 63 61 61 62 62 59 59 50 54 54 50 47 44 43 42 42 42 41 40 42 48 48
88 93 94 91 88 85 84 84 78 71 71 69 69 68 70 71 77 73 76 85 77 76 75 73 70 79 70 62 59 56 56 53 52 44 44 44 44 46 43 43 49 53 56
97 96 90 89 90 87 86 83 86 83 80 74 74 75 77 82 79 83 91 89 92 92 86 82 81 81 78 77 70 63 60 57 54 55 50 49 50 52 54 54 53 55 57
93 90 92 91 89 89 87 85 86 90 86 85 82 81 84 82 86 95 91 96 95 98 98 95 91 91 87 81 79 66 58 53 56 58 59 60 60 61 59 58 57 55 59
93 92 89 87 82 83 84 89 90 88 83 85 83 79 82 88 97 92 95 97 96 98 98 98 94 96 93 88 79 69 67 67 66 67 65 68 67 61 58 55 54 53 54
89 89 89 86 82 85 82 85 91 97 92 84 87 88 91 94 93 93 95 97 98 99 92 90 90 89 93 92 90 87 84 80 75 70 67 66 65 62 60 55 54 54 56

GFSSE_prec_cthk_099.txt.gz
RH
56 54 55 48 42 34 29 25 23 20 19 23 29 30 37 55 69 67 58 54 39 29 34 23 23 20 12 18 18 18 17 14 16 18 24 25 26 21 22 24 27 26 27
60 54 58 51 43 34 29 25 21 17 17 20 25 24 34 56 65 62 58 45 37 28 30 18 15 13 12 14 16 17 17 18 18 20 21 22 24 23 22 23 23 28 32
60 58 58 54 42 34 29 25 21 23 19 20 22 20 34 57 61 56 52 31 32 25 21 14 12 12 14 15 16 17 18 19 22 26 28 26 22 21 22 26 27 30 34
64 62 61 56 42 34 29 24 25 31 26 25 24 20 35 55 57 53 33 24 26 23 21 14 14 15 16 17 18 19 19 20 22 27 32 29 23 21 21 23 27 30 31
66 67 65 57 43 36 30 25 31 33 28 31 32 26 43 59 56 48 24 26 28 22 15 16 17 17 18 19 20 20 20 22 26 31 32 29 24 22 22 22 24 27 29
69 73 68 61 46 40 31 30 36 34 32 34 29 41 58 65 55 34 26 30 22 19 17 18 19 20 20 20 20 21 22 24 29 33 30 26 24 23 23 23 23 24 24
73 77 73 64 51 43 32 35 41 38 38 38 52 63 63 69 48 31 28 21 23 24 19 20 21 22 22 22 21 22 23 26 31 33 33 27 25 24 25 25 25 25 25
80 79 77 66 56 46 35 39 47 47 56 62 67 68 74 69 37 27 22 22 25 21 21 22 23 23 23 22 22 22 23 26 32 32 32 26 26 26 27 27 27 27 27
91 84 85 66 65 50 38 40 52 57 62 70 71 78 77 49 30 24 21 25 27 21 23 24 24 23 23 23 23 22 23 25 32 32 33 28 26 26 26 27 28 29 30
98 89 88 71 73 53 41 41 54 60 66 71 75 75 51 34 26 21 23 27 28 24 25 26 25 24 23 23 23 23 23 25 31 30 31 26 25 26 28 29 32 34 34
93 97 97 81 82 57 43 43 53 61 65 72 73 53 33 23 20 22 26 26 26 26 26 26 26 25 24 23 23 23 23 27 28 29 30 25 25 28 30 33 35 37 37
82 92 98 90 89 62 51 39 48 52 59 64 58 33 28 26 26 28 24 25 25 26 27 27 26 25 24 24 22 23 24 26 27 29 30 27 28 31 33 36 37 38 37
74 91 94 98 91 67 62 41 46 49 53 51 38 32 34 29 28 31 25 26 28 29 29 27 27 25 27 26 26 26 26 28 30 30 30 30 30 32 34 35 36 37 40
80 88 88 99 94 66 56 48 48 46 46 39 33 35 36 34 32 33 29 28 28 28 31 29 31 29 26 26 27 28 29 30 30 32 33 32 32 33 34 36 37 43 41
69 80 84 99 97 70 72 63 51 46 41 39 42 41 37 35 33 35 34 34 33 32 32 30 29 29 27 29 28 28 30 32 35 35 35 34 34 35 36 37 37 38 44
76 79 92 98 94 63 79 78 67 48 47 44 38 35 35 36 36 36 36 36 35 33 32 32 31 31 30 31 31 34 35 35 35 36 36 36 36 35 34 36 37 38 46
71 78 90 98 84 61 63 80 80 67 48 44 41 38 38 37 38 36 40 37 36 35 35 34 34 33 34 36 36 39 39 41 41 39 42 40 39 36 38 37 38 37 43
74 82 88 96 84 69 63 56 56 60 56 45 41 41 40 38 40 40 40 40 40 39 39 44 46 37 35 38 41 44 44 44 43 43 43 42 43 43 43 40 39 39 40
82 79 84 90 87 78 73 63 55 50 46 45 45 45 46 44 45 46 46 48 48 47 47 57 51 46 44 46 48 51 55 52 49 46 47 48 46 43 40 39 40 39 38
88 89 82 86 83 88 86 72 58 51 49 47 47 49 55 54 56 54 56 56 55 53 54 63 53 58 57 57 63 60 54 49 51 49 46 44 44 39 40 40 41 43 40
91 90 84 91 92 95 86 83 70 63 55 53 55 58 58 62 63 61 61 57 61 62 59 68 53 59 55 57 64 62 59 53 53 48 43 45 45 44 46 44 43 48 44
91 92 84 90 88 92 83 82 75 71 73 75 73 72 69 65 63 66 65 66 68 66 68 74 70 62 61 74 73 66 66 63 58 49 46 46 48 49 51 48 45 48 53
94 92 87 93 92 89 89 90 88 84 82 88 85 82 76 72 73 76 75 69 75 73 84 85 86 78 81 84 85 83 79 70 64 59 59 54 54 57 56 54 52 54 57
98 91 94 90 93 92 95 94 92 89 88 83 84 86 78 77 78 82 79 78 79 82 88 92 90 94 95 93 91 84 75 71 64 64 66 66 65 65 63 60 61 59 59
98 98 96 96 96 96 95 95 92 91 91 90 94 93 84 83 85 84 85 86 87 93 91 92 92 96 98 95 89 83 81 77 77 80 77 76 71 70 68 64 65 62 60
96 95 91 90 91 95 93 96 92 91 87 95 97 96 90 87 87 84 88 86 83 94 94 96 90 90 86 89 89 89 90 87 86 87 86 84 78 71 67 63 60 61 61

GFSSE_prec_cthk_102.txt.gz
RH
51 52 50 47 42 38 31 26 24 22 23 26 31 28 39 58 66 63 55 46 35 39 36 26 17 17 23 20 18 13 13 15 21 23 23 21 21 21 24 24 26 28 25
51 54 53 51 48 39 33 28 24 22 21 26 30 27 39 58 65 61 56 42 33 38 27 18 14 13 16 15 14 14 16 17 19 20 22 22 21 23 25 25 27 31 35
54 55 55 52 52 41 34 29 25 22 21 23 33 30 35 57 65 58 57 39 31 34 18 13 11 12 14 15 16 17 19 23 25 25 24 22 20 22 25 26 33 33 29
57 55 57 57 54 44 34 30 25 21 22 21 30 25 34 52 60 55 48 32 31 29 13 11 13 14 15 16 17 18 20 24 25 27 27 22 20 20 23 26 28 28 28
65 58 60 62 56 46 36 30 26 29 30 28 31 27 36 51 56 53 30 26 32 24 13 14 15 16 17 19 19 20 21 24 26 27 26 22 21 20 21 22 23 23 25
72 64 62 65 59 47 39 32 32 35 35 35 34 30 41 51 53 48 22 29 30 16 15 16 17 18 19 20 20 21 23 26 28 28 24 23 22 21 22 22 22 23 23
72 68 70 69 61 51 40 35 38 43 34 40 39 35 47 59 59 31 32 32 20 16 17 19 20 20 21 20 20 21 24 28 30 31 25 24 23 23 24 24 24 24 25
69 71 75 79 70 58 45 39 49 41 38 41 34 44 62 68 65 31 34 25 24 19 19 21 22 22 21 21 21 22 24 29 30 29 25 24 24 24 24 24 25 27 27
67 81 80 82 77 63 49 43 54 48 43 40 52 71 72 71 55 43 36 25 26 20 21 22 24 23 22 22 22 22 24 28 30 30 28 25 24 24 25 26 28 30 31
67 80 87 90 83 70 53 47 63 57 55 60 73 75 77 75 51 46 34 27 28 23 23 24 25 24 24 23 23 22 22 26 28 29 27 24 24 24 26 29 31 33 34
58 80 97 95 91 81 65 48 69 70 65 70 76 76 81 64 49 41 33 28 29 27 25 26 26 25 25 24 23 22 23 25 26 28 29 26 25 27 30 32 33 33 33
48 74 85 95 92 91 80 51 67 69 71 74 78 77 71 46 41 37 30 30 30 30 26 27 27 26 25 25 24 23 25 24 25 26 28 26 27 29 31 33 33 33 34
50 54 84 90 96 89 90 64 54 81 72 80 78 84 52 41 36 31 30 32 29 26 27 28 27 26 26 26 27 25 25 25 28 28 28 29 29 30 30 31 31 32 35
53 59 72 81 83 88 92 75 48 65 75 71 84 65 46 38 31 28 27 27 28 29 29 29 28 27 27 26 26 27 27 28 30 30 30 32 31 30 30 30 33 34 38
63 66 68 79 90 95 96 78 47 60 65 78 72 59 40 33 30 31 29 30 31 31 30 32 32 31 28 26 28 27 29 31 34 35 33 34 34 32 30 31 32 32 37
72 59 58 70 86 93 99 83 50 57 62 61 59 45 39 34 31 34 33 32 33 33 33 32 30 31 30 29 29 31 32 35 36 37 36 36 37 34 33 32 33 34 38
81 75 60 72 94 98 98 81 60 59 59 58 53 43 40 35 34 35 35 33 31 32 32 32 33 33 32 33 36 37 36 36 41 42 46 45 39 39 40 38 37 37 38
95 85 78 78 85 90 98 91 79 68 57 48 43 41 40 36 36 34 35 35 34 35 37 36 34 36 35 37 42 42 40 40 40 41 41 43 43 43 41 38 38 40 40
95 95 81 75 76 85 90 98 98 88 73 53 49 44 40 38 37 36 37 39 40 41 41 42 42 50 41 45 50 44 47 49 53 50 47 46 47 43 41 40 41 43 42
96 95 89 81 78 79 82 89 90 94 94 75 52 46 44 41 40 41 43 46 47 48 49 49 51 53 49 61 62 54 61 52 51 50 48 47 42 41 41 43 44 46 47
98 95 93 85 81 82 82 77 73 70 75 81 69 60 54 51 50 51 53 53 53 53 54 58 60 54 56 70 75 63 69 57 54 52 52 51 47 46 45 48 46 47 50
98 97 95 93 92 87 88 87 79 68 65 60 56 57 61 62 63 64 64 59 57 61 65 72 64 65 64 68 77 65 65 61 66 59 56 54 52 51 50 52 52 51 50
96 98 95 97 95 88 90 92 94 87 79 69 65 59 60 62 64 64 66 68 72 79 77 73 71 72 73 80 85 91 77 80 80 75 66 63 62 61 60 60 60 59 57
98 96 98 96 97 87 93 90 90 93 93 91 84 69 70 74 77 78 82 84 83 82 79 80 77 78 85 87 96 96 91 90 83 77 76 74 72 73 73 71 68 63 60
98 97 97 95 96 94 96 97 97 93 91 94 93 93 91 87 89 83 93 90 89 85 82 82 80 83 92 94 92 97 91 84 80 81 85 81 82 81 79 78 69 64 62
98 95 98 93 94 90 93 93 94 93 92 90 94 94 93 91 92 88 94 92 88 85 82 84 85 90 92 91 91 89 90 88 84 80 78 80 78 77 73 73 68 64 59

GFSSE_prec_cthk_105.txt.gz
RH
65 56 46 44 43 39 34 31 28 28 33 32 30 28 30 38 51 56 51 43 42 39 37 19 18 25 22 13 13 13 17 20 21 22 18 19 22 22 24 29 28 28 29
63 62 52 48 44 42 36 31 27 26 28 29 33 28 36 59 63 58 51 44 43 38 33 15 18 17 15 11 13 16 16 17 18 19 19 20 22 22 25 28 28 34 32
67 66 58 52 49 46 39 32 29 26 25 30 33 27 40 64 62 58 50 43 40 30 23 12 13 13 13 15 16 19 21 22 22 20 20 20 20 22 27 31 31 28 30
70 67 63 55 54 48 42 34 30 27 26 26 33 30 36 58 60 59 50 43 35 24 18 12 13 14 15 16 19 22 23 24 24 23 21 19 19 21 23 26 26 25 26
65 70 67 60 56 55 44 38 31 27 27 25 30 34 35 55 58 59 47 38 32 23 14 14 15 15 16 18 19 21 22 23 25 25 22 20 20 19 20 21 22 22 22
56 63 66 67 59 57 48 40 33 29 32 25 30 37 34 53 56 61 41 30 29 21 14 15 17 18 18 19 20 21 22 23 25 24 23 22 21 21 21 22 22 22 23
52 62 73 74 65 60 52 43 37 38 40 34 35 37 37 55 55 53 34 26 29 19 16 18 19 20 20 20 20 21 22 23 24 25 24 24 23 23 23 23 23 24 24
50 60 78 78 76 65 58 47 42 48 44 43 42 38 39 54 54 54 32 32 25 16 17 19 21 22 21 21 21 22 24 24 24 25 25 25 24 24 23 24 25 27 28
45 52 62 72 80 76 66 52 48 56 49 48 49 43 48 57 61 53 35 34 22 17 19 21 22 23 22 22 22 22 24 26 24 26 25 24 24 23 24 26 28 30 31
60 54 55 72 77 80 72 55 51 64 51 53 55 47 57 68 69 48 37 37 22 19 20 22 23 24 23 23 23 24 25 26 24 26 25 23 23 24 26 28 29 30 29
58 67 54 76 82 83 79 64 52 68 63 62 51 56 75 75 71 53 50 40 25 21 22 23 24 24 24 23 23 23 24 25 25 25 25 24 23 26 28 29 31 30 31
53 63 66 69 84 84 86 74 60 74 73 64 60 79 78 79 69 53 50 39 30 22 25 26 25 25 25 24 23 23 24 24 24 24 25 24 24 26 29 30 30 31 32
56 64 66 70 97 90 90 85 70 76 83 72 74 83 80 83 65 52 47 41 33 26 25 27 27 26 26 26 25 25 25 24 26 28 27 28 28 28 29 30 31 31 34
50 63 59 61 67 85 92 94 83 76 81 81 78 87 82 83 63 48 45 40 31 26 27 28 28 27 27 26 25 26 26 25 27 28 30 29 30 30 29 29 30 30 36
48 53 55 50 59 68 83 90 87 70 89 73 79 86 87 63 55 54 44 34 28 28 28 29 29 29 27 25 26 26 28 30 30 30 31 31 30 30 29 26 27 30 32
46 49 54 54 45 57 70 87 92 76 81 95 88 89 80 72 64 49 36 30 29 30 31 31 30 29 28 26 26 28 30 32 33 34 33 35 35 34 33 31 30 32 35
46 51 56 66 53 47 60 74 94 85 65 92 83 85 90 64 55 42 31 30 31 32 34 34 34 33 31 30 29 30 31 35 37 41 36 41 37 37 35 35 34 34 36
53 59 72 77 74 59 54 69 96 98 66 74 84 86 81 67 48 33 32 32 34 36 36 35 35 36 35 35 35 35 36 39 42 44 39 39 41 42 40 39 39 37 39
57 61 71 82 92 76 66 70 96 95 76 71 72 70 62 59 41 36 37 38 39 38 38 39 40 39 40 40 40 42 45 50 57 49 46 44 45 46 45 41 38 40 44
60 71 89 95 97 86 74 82 94 97 80 69 73 68 65 47 44 41 41 40 40 42 43 43 44 46 44 44 47 52 54 65 67 58 57 48 47 46 45 43 44 45 47
74 81 85 93 98 89 82 84 93 99 95 81 69 58 50 46 44 44 44 45 45 47 49 50 51 49 48 49 57 64 59 72 75 64 60 52 45 43 44 47 52 50 50
84 85 88 96 99 89 87 91 96 98 97 96 89 71 54 50 48 48 49 51 52 55 56 56 54 54 55 60 69 64 64 67 68 69 67 59 50 54 54 58 57 56 56
84 91 98 98 99 94 89 92 93 94 93 90 90 89 74 67 59 56 55 56 59 60 61 62 67 71 76 78 75 72 72 73 77 83 87 72 65 67 67 67 64 65 65
89 95 90 99 99 97 96 96 96 95 94 94 90 84 80 77 78 77 71 67 68 70 74 77 78 81 83 84 79 79 78 77 80 85 88 82 79 78 80 79 72 69 68
84 92 93 99 99 98 97 96 93 96 95 94 92 88 87 83 75 74 79 83 82 86 88 87 88 91 91 91 90 91 92 87 90 85 84 85 83 80 82 76 71 69 72
89 93 98 99 98 99 98 98 98 93 94 93 90 89 91 88 86 90 91 86 92 88 87 89 86 85 91 86 90 89 89 91 88 85 79 79 80 82 75 70 69 66 63

GFSSE_prec_cthk_108.txt.gz
RH
61 55 49 45 42 41 39 36 34 35 36 32 28 29 30 32 34 45 47 46 44 34 24 31 29 20 13 13 15 15 19 23 18 17 18 22 23 25 29 30 33 32 42
63 61 56 50 45 42 39 37 34 33 33 33 30 29 31 34 42 53 51 51 46 40 29 28 24 20 12 12 14 16 16 16 16 18 20 22 24 25 30 30 33 33 33
65 62 61 57 51 45 40 37 33 33 33 34 34 30 35 52 61 56 55 52 45 37 25 20 18 12 12 13 14 15 16 17 18 19 21 21 24 29 28 29 28 28 30
60 70 67 64 58 51 44 39 36 31 32 33 39 30 36 59 61 54 58 52 41 28 21 14 14 15 16 18 19 19 20 20 20 20 19 20 22 23 24 24 22 23 23
50 58 71 69 65 57 51 44 38 35 33 30 37 38 34 53 60 58 54 48 32 24 20 14 15 16 17 20 21 20 19 20 21 21 20 19 19 19 20 20 21 20 20
47 53 58 65 70 66 54 48 41 37 35 33 32 45 37 49 61 63 52 46 30 21 20 14 16 18 19 19 20 21 21 20 21 21 21 20 20 20 20 21 21 21 22
48 51 61 68 76 71 62 48 42 38 37 35 32 43 39 46 62 62 53 39 27 22 20 15 17 19 20 21 21 21 22 23 23 22 23 22 22 21 21 21 22 24 25
45 49 52 62 68 73 65 52 41 40 42 44 32 41 42 47 60 60 49 35 25 25 18 16 18 20 21 22 22 21 23 24 23 23 24 24 23 22 21 22 24 27 28
44 42 46 52 63 68 71 61 47 42 51 52 43 45 46 47 61 57 43 36 29 25 18 19 20 20 22 22 22 22 23 24 25 25 25 24 23 22 22 25 27 28 28
47 48 41 48 60 65 71 69 59 49 56 58 53 56 53 49 59 54 46 37 32 26 19 20 21 22 23 23 22 23 24 24 24 25 24 23 23 22 25 27 28 28 28
56 50 52 52 67 72 69 68 67 60 61 58 59 60 62 53 60 65 52 41 36 30 21 22 23 23 24 24 23 24 24 23 23 23 23 23 23 25 26 27 28 27 28
56 54 50 51 62 70 78 69 67 68 70 59 66 66 60 58 70 72 57 51 43 34 24 24 24 24 24 24 24 24 24 22 22 22 23 22 23 24 26 27 27 27 30
46 45 42 51 59 64 73 80 73 71 77 73 68 73 58 62 81 79 57 54 51 37 29 25 25 25 25 24 23 23 24 22 22 24 26 26 26 26 26 27 28 29 30
56 47 43 48 56 59 70 74 79 68 77 85 73 70 63 79 84 83 59 55 50 38 31 27 26 26 26 26 25 24 23 22 24 25 26 28 29 29 27 25 27 27 28
59 57 49 49 60 59 60 69 79 81 74 89 87 75 74 80 82 87 66 56 51 41 34 27 27 28 28 28 27 26 25 24 25 27 28 28 29 30 29 27 26 27 30
66 60 53 47 54 55 55 60 70 70 80 85 96 84 82 92 86 85 76 62 52 42 34 30 30 29 30 29 27 27 27 30 30 29 30 32 35 33 34 31 29 30 30
54 56 53 51 48 54 52 53 53 61 79 79 94 91 89 84 97 83 61 52 54 44 34 33 33 33 31 30 29 29 31 32 33 34 34 36 38 37 36 33 34 35 34
51 49 52 53 49 46 46 49 49 55 64 78 89 97 89 91 80 74 63 68 55 41 35 36 35 33 33 34 33 33 34 34 35 36 37 40 42 40 38 38 43 41 40
53 51 46 52 51 50 47 49 52 50 63 80 87 97 99 92 81 78 74 62 53 39 37 37 36 35 37 38 38 39 38 39 39 39 42 50 47 50 46 42 42 40 43
52 48 47 48 52 60 62 67 68 63 58 77 85 86 97 97 89 76 73 60 44 41 40 39 38 41 42 44 45 45 46 48 48 49 55 55 58 54 49 46 38 39 43
53 45 41 45 60 63 67 82 84 77 67 77 85 80 91 96 95 87 66 50 47 43 43 42 45 45 48 52 50 51 54 55 56 56 64 63 65 59 49 45 39 44 49
47 47 51 61 71 76 85 86 92 87 81 77 80 85 87 86 88 86 59 49 47 47 47 46 49 52 57 58 57 60 60 64 64 64 69 67 64 67 63 58 55 56 60
47 52 55 77 81 87 91 91 93 97 88 83 82 88 90 86 79 67 53 48 49 51 53 53 58 60 61 65 64 68 75 73 77 76 73 73 73 71 65 68 65 63 69
52 62 66 86 91 90 95 93 97 97 94 91 92 94 91 87 73 57 51 51 53 56 61 64 68 67 68 75 74 79 80 88 91 84 81 77 80 79 79 73 77 78 78
78 82 88 92 90 95 95 95 98 99 97 95 94 95 96 93 83 74 67 60 60 63 64 72 82 87 91 89 92 91 92 93 93 92 90 88 86 85 81 82 85 83 75
88 91 92 91 97 98 97 99 99 96 97 96 94 91 93 92 93 95 88 80 87 84 85 89 88 91 90 94 91 90 89 89 93 89 87 86 83 80 83 82 82 77 72

GFSSE_prec_cthk_111.txt.gz
RH
60 56 53 49 45 42 40 38 39 38 37 34 31 28 29 32 33 32 40 43 35 26 29 28 15 14 17 17 17 24 18 15 16 19 24 24 29 30 30 33 35 42 40
52 58 55 54 48 44 40 38 40 39 38 36 31 30 29 32 34 35 46 52 42 34 38 32 17 13 19 14 15 17 15 13 15 18 21 24 27 28 30 32 34 31 33
50 50 54 56 55 49 43 40 40 39 36 36 34 32 31 33 38 47 53 55 48 36 32 28 15 11 12 14 15 15 15 16 18 20 21 26 30 26 28 28 28 27 25
51 52 49 55 57 54 49 43 39 38 38 39 38 34 37 42 51 55 55 55 47 32 26 23 12 12 13 15 17 18 18 18 18 20 21 22 22 22 22 22 20 20 20
50 50 51 50 60 59 53 46 39 36 35 35 41 40 36 51 54 58 56 50 40 28 22 18 13 14 16 18 20 20 19 19 19 19 19 20 19 19 19 19 19 19 20
48 51 50 49 57 63 61 51 44 38 35 34 38 43 42 51 57 59 62 49 33 27 22 20 15 17 18 20 20 20 19 19 20 20 20 20 20 20 20 19 20 21 22
51 53 53 49 54 65 65 60 48 41 38 37 36 41 43 48 62 62 61 51 33 27 23 21 15 17 18 20 21 21 21 20 20 21 22 22 22 22 21 21 22 24 25
59 52 49 51 54 63 66 67 57 44 37 37 41 37 44 46 61 66 61 49 35 26 24 20 16 18 20 21 22 22 22 21 20 21 22 23 23 22 22 23 25 26 25
74 68 52 50 51 58 66 66 65 53 41 40 45 39 45 48 54 68 64 45 34 29 26 21 18 19 20 21 22 23 24 23 22 22 22 23 22 22 22 24 25 26 25
73 72 73 53 48 50 53 58 61 62 55 49 52 44 50 51 50 69 66 44 35 32 30 22 19 20 21 22 22 23 24 24 24 22 22 21 21 21 23 25 26 26 26
80 77 70 69 55 49 49 55 56 60 63 63 60 57 56 59 54 61 63 44 41 37 34 25 21 21 22 22 23 23 23 23 23 23 22 20 20 22 24 25 25 25 26
72 76 70 65 64 56 56 57 59 62 62 64 66 62 62 67 63 56 58 48 45 40 37 31 23 22 22 22 22 23 23 23 22 22 22 22 22 23 24 24 24 26 27
66 71 71 71 62 54 59 66 73 70 66 66 71 68 66 70 66 58 60 62 50 45 45 37 30 24 23 23 23 23 23 24 23 24 24 25 25 25 26 26 26 26 28
56 61 68 69 59 56 55 57 64 72 73 68 62 70 74 71 68 63 69 68 51 47 47 41 35 26 25 24 24 23 24 24 23 25 26 27 28 28 27 27 28 30 29
52 55 57 62 65 50 55 58 63 66 68 71 73 72 81 81 71 65 80 71 56 48 48 45 39 30 27 27 27 26 25 25 24 26 28 28 29 29 28 27 26 26 27
51 51 56 61 64 60 52 64 63 62 63 66 62 71 78 84 70 72 81 81 59 55 47 48 42 34 30 30 29 28 28 28 28 28 29 31 32 31 33 33 29 30 30
45 52 52 52 51 54 49 55 58 59 62 62 59 65 79 84 81 79 83 84 65 56 52 50 44 36 32 31 30 29 29 30 31 31 32 33 34 35 36 36 36 35 37
45 50 52 51 47 47 46 47 53 56 58 55 56 61 65 92 95 93 87 89 67 63 62 51 46 36 34 33 32 32 32 33 34 34 35 37 36 36 39 41 41 44 42
40 48 52 53 47 47 41 45 45 54 55 57 58 61 61 77 97 98 93 87 74 66 64 56 49 39 38 36 36 37 37 38 37 36 37 39 41 42 44 47 47 47 44
37 43 48 54 55 50 44 47 46 49 50 49 49 55 60 76 96 99 97 84 78 67 66 65 58 42 41 39 43 44 45 45 45 45 47 49 51 53 58 58 55 50 45
33 42 45 47 47 51 47 45 44 42 47 46 46 53 58 73 85 98 96 91 82 71 74 66 57 45 46 46 48 49 50 50 51 52 55 58 63 64 64 63 60 55 56
34 40 45 46 47 48 47 48 49 49 55 66 70 66 69 75 88 93 92 87 85 78 67 66 53 48 48 51 52 55 55 54 55 57 60 63 67 68 68 67 63 60 60
32 39 46 50 51 46 46 49 60 61 66 83 78 80 77 76 87 93 94 91 80 73 68 61 53 52 54 55 58 59 62 57 60 65 69 73 69 76 76 76 68 66 64
37 41 50 53 47 45 46 59 67 79 79 82 83 86 80 77 91 93 95 94 89 73 65 55 57 59 59 60 66 69 68 68 70 74 76 83 87 87 87 83 76 70 71
41 46 47 48 46 48 61 72 80 85 85 88 98 84 91 91 94 96 91 94 87 72 63 61 61 65 66 70 77 76 80 86 92 93 90 92 91 92 92 89 85 80 81
61 66 64 52 44 59 76 84 87 90 91 94 94 97 94 93 91 93 91 87 80 74 67 74 78 82 84 84 85 90 89 88 95 93 92 93 91 93 94 94 84 86 86

GFSSE_prec_cthk_114.txt.gz
RH
52 56 55 51 48 45 40 39 38 38 38 38 35 32 31 32 33 29 34 35 33 30 27 20 19 20 20 16 17 17 17 16 20 22 22 29 26 29 34 35 39 34 37
48 55 56 57 52 50 45 40 38 39 38 38 34 31 30 32 34 30 39 42 38 39 33 22 20 19 16 14 18 15 13 15 18 21 26 28 29 32 31 34 30 34 32
47 49 53 55 58 55 51 45 40 39 39 37 35 32 32 33 35 34 49 49 47 45 38 24 17 19 15 13 14 13 14 16 19 22 25 28 25 28 30 27 25 24 21
51 52 52 49 53 58 55 50 46 41 39 38 35 34 34 35 37 50 59 54 46 38 33 22 15 14 14 14 14 15 16 17 19 21 23 22 22 22 22 21 19 19 19
44 47 49 49 49 56 59 55 47 44 38 41 43 40 42 42 47 59 66 55 42 32 26 20 14 13 16 18 18 17 17 17 18 19 20 19 19 18 19 19 18 19 20
49 44 45 46 47 47 55 58 52 46 41 38 41 49 49 50 56 64 69 57 42 29 27 22 16 14 17 19 20 19 18 18 18 18 19 19 19 19 18 19 20 22 23
54 49 49 48 47 49 51 56 58 50 42 38 38 44 47 48 63 67 66 56 40 32 28 23 19 16 17 19 20 20 19 18 19 20 20 21 21 20 20 20 22 24 24
59 61 52 47 44 47 54 60 61 56 48 41 38 40 48 52 56 68 65 57 41 33 30 23 20 16 17 19 20 21 20 19 19 20 21 22 22 22 21 22 24 24 23
68 67 74 58 48 46 49 58 63 62 57 49 42 41 49 58 56 62 66 60 43 34 30 26 22 16 17 18 19 21 21 21 20 20 21 22 22 22 22 24 25 25 24
74 69 73 80 66 54 53 52 57 58 59 59 53 48 46 53 56 61 61 59 47 36 31 30 27 18 17 18 19 21 21 22 22 22 21 21 21 22 23 25 25 25 25
64 68 77 82 83 77 62 52 52 59 57 60 61 60 53 54 56 62 65 63 47 37 32 34 31 22 19 18 19 21 22 21 22 21 21 20 20 21 23 25 25 24 25
54 64 73 77 77 80 70 58 50 53 57 55 61 66 63 61 59 59 66 70 51 38 35 38 35 26 20 20 20 21 22 22 22 22 21 21 21 22 23 24 24 25 26
49 55 69 77 80 80 77 66 63 59 61 61 59 61 67 70 68 64 64 66 60 43 42 44 42 34 25 22 21 22 22 23 22 22 23 23 24 24 25 26 27 27 28
45 50 55 68 79 81 76 75 63 60 68 62 65 65 68 72 76 76 68 66 64 52 46 47 45 40 36 25 22 22 23 23 23 24 25 25 26 26 26 30 28 30 31
39 46 50 61 72 73 77 71 65 61 60 67 67 67 65 68 77 80 75 68 68 70 49 47 48 45 43 32 25 24 23 23 24 24 26 28 28 28 27 28 30 27 27
32 39 48 50 63 66 70 75 64 57 58 65 70 69 72 70 77 81 86 74 75 82 58 54 52 50 49 38 29 28 26 25 26 26 28 30 31 32 30 30 30 29 31
32 34 42 48 50 58 65 69 66 56 50 58 62 66 64 63 72 76 87 84 82 88 62 60 54 55 51 43 34 31 30 28 28 30 32 34 35 35 35 35 34 36 38
32 35 39 48 50 52 60 64 65 60 52 51 57 60 62 60 60 74 80 85 79 92 69 64 62 59 54 49 39 34 34 31 30 33 35 36 38 39 40 40 40 40 41
25 33 39 43 47 48 51 55 56 52 49 45 51 56 52 55 58 66 74 80 86 91 88 70 62 59 60 54 47 39 37 36 35 36 36 37 40 42 45 45 46 49 51
22 26 35 43 47 52 50 49 49 46 43 41 43 46 52 54 54 58 73 80 90 98 98 80 64 67 61 62 56 44 40 41 43 42 42 45 47 50 55 56 58 57 55
21 22 29 39 46 49 50 49 47 44 41 40 43 42 43 53 59 59 67 77 95 96 94 82 80 71 66 64 62 54 47 46 46 45 46 49 53 54 60 61 63 65 63
22 21 26 34 43 47 46 46 45 46 43 41 41 41 40 49 52 55 61 79 92 95 94 90 86 78 71 70 64 62 55 48 48 49 52 56 59 62 67 67 72 72 69
24 23 25 30 36 41 43 42 42 42 39 39 39 44 51 59 58 64 60 67 83 93 92 91 92 84 76 75 68 66 66 60 56 55 59 60 66 76 76 75 77 80 77
27 27 27 30 34 38 42 44 44 41 41 41 45 55 65 74 77 81 76 72 78 86 88 88 88 85 80 74 71 65 68 70 67 63 69 75 80 79 82 81 85 88 87
35 31 31 35 41 47 46 48 47 45 45 51 62 68 75 77 80 83 85 82 87 96 88 83 81 77 75 74 76 73 71 66 70 74 83 83 87 91 90 91 92 92 90
39 36 41 42 45 46 47 47 48 47 52 63 75 80 81 81 88 92 92 88 92 99 94 93 87 77 74 76 76 77 77 82 89 90 87 87 88 88 90 90 90 93 92

GFSSE_prec_cthk_117.txt.gz
RH
52 55 58 55 49 47 44 42 45 42 41 39 38 35 31 32 34 30 30 32 31 26 27 28 25 23 18 15 18 18 16 21 23 21 22 25 28 34 34 36 32 37 32
49 56 58 58 58 53 49 45 41 42 40 39 40 35 31 31 34 31 35 37 34 30 27 24 23 18 15 16 12 12 13 17 21 26 30 31 34 29 34 32 33 29 20
48 52 53 54 58 60 57 52 45 40 40 40 38 33 32 33 34 33 43 46 45 38 31 29 23 15 16 13 11 12 13 16 20 23 27 25 29 30 26 23 21 19 18
52 54 54 52 54 54 61 61 54 47 40 38 36 34 34 34 34 43 56 57 50 42 33 29 17 14 13 13 13 14 15 17 20 23 21 19 21 21 20 18 18 17 18
53 53 54 52 50 54 55 59 59 54 48 40 39 38 38 37 43 66 66 60 46 36 29 24 18 12 14 15 16 15 15 16 18 19 18 18 18 18 18 18 18 19 20
48 50 51 49 50 49 48 51 55 55 49 45 43 49 50 49 57 73 71 66 49 35 27 24 20 15 16 17 18 18 16 16 16 17 17 18 19 19 18 18 20 22 22
47 50 48 45 46 47 49 48 51 54 52 46 42 43 45 48 65 73 74 63 49 36 30 27 22 18 16 17 17 18 17 16 17 17 18 19 20 19 19 20 22 22 22
48 60 56 54 48 46 46 49 51 54 53 51 45 43 42 47 58 71 71 65 48 40 34 30 24 19 17 17 18 18 19 18 17 18 19 20 20 20 20 21 23 23 23
54 65 77 65 58 48 42 45 48 54 57 58 53 46 46 49 55 66 69 66 52 43 37 32 28 23 18 18 18 19 19 19 19 19 20 20 20 20 21 22 24 24 24
49 57 69 77 71 67 56 50 53 52 56 58 60 58 52 52 55 58 66 65 56 44 39 34 31 29 21 19 19 19 19 20 20 20 20 20 20 20 22 23 24 24 24
53 58 62 75 73 74 77 63 70 64 55 56 58 59 61 58 58 60 64 67 60 45 40 36 32 34 26 21 19 19 20 21 21 21 21 20 19 20 22 23 24 24 24
44 50 58 64 75 80 80 86 78 65 58 54 54 55 60 64 63 64 62 69 66 55 44 37 34 39 33 25 21 20 20 20 21 21 21 21 21 21 22 24 24 24 25
42 44 47 54 64 72 81 80 82 79 71 57 54 60 59 61 65 70 68 68 71 64 49 42 40 43 40 35 26 22 22 21 21 21 20 21 23 23 24 25 27 28 28
35 42 45 48 57 66 75 76 77 80 80 68 63 58 60 63 64 72 77 76 74 70 55 46 46 47 45 42 37 28 24 24 23 23 23 24 25 26 26 28 31 29 37
30 37 42 44 46 54 67 71 79 79 77 71 69 70 71 66 65 70 76 82 77 77 67 52 52 51 49 47 45 40 28 25 25 25 26 27 28 28 29 30 31 30 27
21 29 37 44 45 48 55 62 72 73 74 72 66 67 69 68 65 71 77 81 84 78 75 66 58 54 51 52 52 49 36 28 28 27 28 29 31 32 32 31 32 32 31
13 21 30 37 47 49 51 55 61 72 70 75 65 64 68 70 72 70 74 79 80 88 85 85 71 63 56 57 55 52 45 35 30 29 29 31 33 35 37 36 36 37 36
13 13 23 32 41 49 52 50 54 67 65 72 71 61 56 64 67 65 67 68 76 86 89 83 85 72 61 60 59 56 54 44 34 32 31 33 36 38 40 41 41 40 39
18 13 14 25 35 48 52 51 51 59 62 65 67 62 53 53 58 62 61 62 67 77 80 84 86 85 72 69 65 63 61 57 40 36 35 37 39 41 44 47 48 49 51
20 18 13 16 29 41 52 53 53 54 56 59 61 59 48 44 46 53 57 54 63 67 74 90 88 83 81 79 71 66 63 62 52 44 42 44 45 47 51 53 57 58 61
21 19 16 14 19 36 46 53 51 47 48 47 50 54 48 40 40 42 44 48 55 62 61 79 96 95 92 84 74 67 65 63 58 56 53 50 49 51 53 56 62 66 66
23 21 19 16 16 24 43 51 50 49 48 45 45 44 41 38 36 36 37 38 47 59 62 70 87 94 94 89 86 80 77 70 61 61 61 58 52 54 55 60 73 76 74
24 24 22 18 16 21 35 47 51 51 49 46 43 41 40 38 34 33 38 42 46 53 64 70 86 92 93 90 89 88 87 79 68 65 64 62 62 57 66 75 79 86 88
27 27 25 22 19 21 31 41 46 44 44 41 40 42 42 40 41 44 50 61 68 70 70 70 72 83 90 87 93 93 90 85 78 74 73 73 75 76 76 78 79 81 87
34 28 26 25 24 24 30 36 44 44 41 42 43 43 45 46 52 53 61 70 73 77 76 74 66 69 89 89 88 88 90 86 85 80 77 76 79 82 83 85 89 87 89
54 45 35 29 26 29 32 38 41 44 45 45 44 46 47 54 62 60 70 72 76 81 79 79 74 81 90 89 86 85 91 90 85 86 90 92 92 90 88 89 89 87 89

GFSSE_prec_cthk_123.txt.gz
RH
51 49 51 50 49 47 46 48 49 45 49 49 45 40 32 30 32 30 33 32 32 40 38 35 33 27 28 24 17 24 25 18 23 23 33 42 37 39 36 49 41 20 17
50 50 54 50 48 48 49 52 53 47 43 42 44 43 33 31 33 31 39 36 32 37 41 39 28 19 24 20 15 19 21 16 21 27 33 36 36 37 32 38 22 17 17
46 51 55 55 49 48 51 51 53 48 46 44 46 49 31 32 34 33 44 42 30 33 36 32 27 18 16 16 13 15 17 23 28 32 38 37 33 28 22 20 18 18 18
44 46 53 56 52 47 47 49 51 48 44 40 42 38 33 32 33 36 51 54 40 31 30 33 25 14 14 13 14 16 18 21 25 28 38 32 25 20 18 18 18 19 19
46 48 49 49 53 53 51 53 52 50 51 44 45 44 39 34 34 47 65 63 51 39 32 31 24 14 14 16 17 18 18 21 21 26 26 27 26 18 18 19 20 21 21
53 52 61 50 49 50 52 52 51 50 50 49 47 47 45 44 55 66 72 74 60 46 35 29 25 18 15 16 18 18 19 20 21 28 24 23 24 18 19 20 22 21 21
52 54 54 50 48 49 51 50 51 48 48 52 48 47 52 53 57 71 79 82 68 48 38 34 28 23 18 17 18 19 19 19 23 25 25 26 20 19 20 21 22 22 23
49 56 57 47 44 43 47 51 50 48 50 51 54 52 54 56 58 65 75 83 76 54 41 38 35 30 23 18 18 18 19 19 23 25 26 28 21 21 21 21 23 24 24
43 47 53 54 45 44 47 50 50 50 49 49 49 54 53 57 57 59 72 77 77 61 47 42 38 35 30 23 19 19 19 20 24 27 27 28 22 22 22 22 23 24 24
40 45 48 51 55 47 53 56 54 55 49 49 47 51 52 56 57 60 67 72 76 65 48 45 41 39 32 31 24 21 20 19 24 24 26 26 22 22 22 23 24 24 24
38 42 44 46 49 56 63 59 63 62 55 54 51 52 58 56 55 57 61 66 69 68 50 45 43 42 36 33 30 25 24 23 28 26 26 23 21 21 22 23 24 24 24
34 40 44 48 53 57 57 61 62 61 68 68 62 53 59 60 63 63 60 64 69 69 59 46 44 43 41 37 36 32 28 30 32 29 29 24 21 21 21 22 24 25 26
29 36 42 45 47 52 56 59 65 67 70 77 76 72 68 66 61 64 68 66 70 73 68 58 50 47 43 42 44 43 39 38 35 32 29 25 23 22 23 23 25 28 29
14 19 33 43 49 52 54 58 64 69 73 80 78 78 80 77 74 63 66 66 67 68 70 69 60 54 51 48 46 47 48 48 46 38 32 27 25 24 25 26 28 38 42
10 12 16 26 36 48 55 60 62 62 65 67 67 75 82 85 80 68 61 67 72 76 75 76 75 70 62 56 51 48 48 49 50 49 44 34 29 27 27 27 29 30 37
12 11 10 15 23 33 43 53 59 59 59 53 56 66 77 83 80 84 80 75 70 72 80 81 81 78 75 67 59 54 54 52 53 55 53 48 38 31 30 31 32 30 32
14 13 13 10 13 21 32 44 50 57 59 57 53 54 63 74 78 78 86 85 84 84 83 83 80 81 79 73 66 59 61 57 55 57 58 56 51 41 34 33 34 35 34
16 15 15 14 11 13 19 32 44 50 57 57 56 55 56 63 69 75 78 86 82 84 83 84 86 86 84 82 81 75 65 64 63 63 59 58 58 57 47 38 38 38 40
19 16 16 16 15 11 12 19 32 39 49 58 57 57 54 55 62 68 71 80 75 77 80 75 75 78 82 79 77 76 71 68 67 66 67 63 61 62 61 57 49 44 43
20 18 18 18 18 18 14 17 23 33 43 50 58 56 58 56 56 56 59 64 76 71 70 65 64 65 68 69 68 69 67 69 73 66 68 68 68 66 66 60 57 53 53
22 20 18 20 20 19 19 18 22 23 35 47 54 54 57 61 58 56 53 51 59 66 61 54 54 52 52 60 70 66 64 69 65 67 66 68 70 75 73 68 66 65 65
26 24 22 22 22 22 20 21 23 27 29 41 51 52 55 61 63 58 55 56 53 62 58 59 58 54 46 46 50 57 61 59 65 62 69 72 79 76 76 76 77 77 73
35 27 24 24 25 25 24 23 24 27 32 39 48 54 54 55 56 57 55 52 49 46 52 49 48 46 45 42 52 61 57 56 55 67 71 75 83 77 77 77 83 84 83
54 43 32 29 28 26 25 24 26 27 32 37 46 54 53 55 55 58 55 48 43 40 42 40 37 38 41 46 47 52 62 72 70 71 82 75 72 71 76 75 81 83 83
62 61 51 42 34 29 27 27 27 27 30 32 49 60 55 51 49 49 51 50 43 40 40 38 39 44 53 65 70 75 71 75 83 84 81 76 77 75 72 78 78 83 81
61 66 58 54 42 35 33 31 30 30 33 31 41 61 64 50 47 43 48 50 46 43 40 49 56 59 68 74 76 78 82 87 85 90 84 83 86 86 88 85 81 85 83

GFSSE_prec_cthk_126.txt.gz
RH
52 49 48 44 45 44 44 46 45 43 47 46 43 37 29 29 31 29 35 34 36 37 37 37 32 41 29 18 28 23 18 23 22 30 40 43 46 44 48 41 24 17 17
50 50 49 45 44 42 46 51 49 44 44 44 49 44 30 28 31 30 38 37 37 41 42 41 21 22 24 19 19 23 18 19 22 29 39 38 38 33 36 28 17 17 17
46 50 51 48 44 42 44 50 53 48 45 42 45 50 33 30 32 32 41 40 35 37 38 33 22 16 16 16 15 18 25 29 33 37 38 32 32 23 19 18 18 18 18
42 47 50 52 47 43 43 44 47 47 48 43 42 40 35 32 33 35 49 43 38 34 33 31 22 13 13 13 15 20 24 28 31 33 40 31 21 18 17 18 19 20 20
42 42 47 52 50 45 45 46 47 46 45 46 46 47 40 34 32 40 60 53 44 37 35 31 24 14 13 14 16 19 22 25 28 31 32 25 20 16 17 18 20 21 21
43 48 46 46 55 52 51 48 49 49 46 44 47 47 43 41 50 56 67 62 55 44 37 32 26 18 15 15 16 18 21 22 25 27 24 22 21 17 17 19 20 21 22
45 51 52 53 53 52 51 50 48 49 47 46 47 46 51 54 63 68 71 72 65 52 39 35 33 26 18 16 16 17 18 21 24 24 25 24 20 19 19 19 20 21 22
49 50 54 58 52 48 47 46 47 50 47 46 47 48 52 55 57 60 72 77 72 59 48 39 38 34 26 19 17 17 17 19 22 25 24 24 22 21 21 21 22 22 23
45 50 53 56 49 49 47 44 44 47 47 46 49 47 45 56 57 56 65 75 76 65 53 47 42 38 34 28 22 18 17 18 22 24 26 25 23 22 22 22 22 23 23
38 44 48 51 53 48 47 46 46 48 47 49 46 42 41 43 53 56 57 68 74 71 54 48 44 43 38 32 29 24 21 19 23 24 24 24 24 20 20 21 22 23 23
30 36 43 46 47 53 52 47 46 54 53 57 55 51 49 47 49 56 56 63 69 69 60 51 46 45 42 39 34 31 27 25 27 26 24 24 21 19 20 20 22 22 23
24 30 38 42 46 47 47 60 57 56 53 53 59 64 55 52 53 61 58 56 63 67 65 53 47 46 44 41 37 35 35 33 31 33 29 28 23 20 20 21 21 22 24
19 24 30 39 45 46 52 55 63 61 53 56 57 58 68 63 58 61 63 60 58 65 71 68 54 50 49 47 43 42 38 39 42 42 33 29 27 23 22 22 23 24 28
10 11 15 21 34 44 48 54 57 58 58 60 64 67 70 72 74 72 66 68 62 63 67 68 63 56 53 54 54 51 44 42 43 48 49 44 36 28 26 25 25 25 32
11 10 9 12 16 27 36 45 53 55 62 64 67 71 72 73 78 79 79 71 69 64 65 68 69 66 61 59 57 57 53 49 45 46 49 49 50 45 37 32 29 29 29
12 12 11 10 10 14 24 32 42 51 56 67 69 65 62 65 68 72 73 74 76 73 72 69 70 73 75 73 70 65 62 58 54 54 52 54 54 52 49 44 39 36 32
15 13 13 13 11 9 12 21 32 41 47 55 58 62 61 59 63 67 69 73 78 80 82 86 85 81 79 76 77 74 65 61 58 56 55 54 53 56 53 50 49 50 46
20 18 15 15 14 12 10 12 19 32 42 47 52 60 63 58 59 57 58 68 75 76 79 86 88 88 86 85 83 82 80 72 68 64 64 60 58 61 59 55 52 52 55
23 22 20 17 16 15 13 11 12 20 32 40 47 57 54 56 59 58 54 60 67 75 78 78 87 86 84 80 77 78 77 77 71 65 60 61 67 70 62 63 66 60 60
26 24 22 20 19 18 17 16 13 14 17 35 45 44 50 62 67 62 59 59 62 62 69 75 80 83 81 70 66 62 63 63 62 61 56 58 61 55 58 63 65 62 68
31 28 24 21 20 20 21 20 19 18 17 18 38 48 47 57 59 58 58 61 66 58 56 55 63 70 78 70 63 57 51 52 51 54 53 55 58 58 55 59 67 75 73
36 35 32 26 23 21 20 21 21 21 23 18 21 37 49 58 57 60 57 58 59 59 57 55 54 52 56 66 66 64 62 52 49 44 50 48 55 58 59 60 65 73 72
43 42 41 39 31 25 22 22 24 24 27 27 22 21 41 56 67 67 63 62 61 58 58 57 56 55 53 55 60 57 55 49 44 46 53 50 54 60 69 64 65 68 68
51 52 52 48 43 39 29 23 24 24 24 27 30 30 31 50 65 68 62 64 64 58 56 56 60 57 54 49 47 45 45 46 57 56 59 64 65 71 74 77 75 74 69
61 59 59 62 56 50 48 34 26 26 25 25 25 28 39 53 67 67 66 67 62 57 54 53 51 50 47 47 46 46 44 52 71 79 80 73 82 80 82 78 74 86 75
77 74 70 72 65 55 53 48 37 29 28 27 28 26 29 43 57 66 71 70 59 55 55 50 49 50 47 45 56 58 69 76 83 80 83 87 87 86 87 84 81 86 87